     2.10           OBSERVATION DATA    G (GPS)             RINEX VERSION / TYPE
teqc 2000Jul20 Chris Zhao 20021109 23:03:55UTC              PGM / RUN BY / DATE
cha2                                                        MARKER NAME
xxx                                                         MARKER NUMBER
CORS/NGS/NOAA U.S. Coast Guard                              OBSERVER / AGENCY
04954 ASHTECH Z-XII3 RD00                                   REC # / TYPE / VERS
11089 ASH700829.3                                           ANT # / TYPE
   946795.4534 -5284913.8546  3431354.5492                  APPROX POSITION XYZ
        0.0000        0.0000        0.0000                  ANTENNA: DELTA H/E/N
     1     1                                                WAVELENGTH FACT L1/2
     7    C1    L1    L2    P1    P2    D1    D2            # / TYPES OF OBSERV
    30.0000                                                 INTERVAL
Forced Modulo Decimation to 30 seconds                      COMMENT
  2002     8     5     0     3    0.0000000     GPS         TIME OF FIRST OBS
                                                            END OF HEADER
 02  8  5  0  3  0.0000000  0  7G 3G25G20G 2G22G 1G13
  22469292.6904   -6643839.17648  -5018247.72046  22469292.8384   22469297.5464
      1731.3354       1349.0854
  22659904.5974   11902525.32448   9950952.07246  22659904.8544   22659912.2524
     -2820.6974      -2197.9454
  22796682.5954     -79373.03848    296760.00746  22796680.9914   22796688.2844
     -3361.6964      -2619.5014
  21049714.0514   -8012782.32549  -6078185.78147  21049713.5044   21049716.9774
     -1268.0954       -988.1314
  19969479.7524  -12302907.95149  -9376684.97647  19969477.4244   19969483.9164
     -2164.8154      -1686.8694
  21512338.1754  -10821069.96748  -8047823.19947  21512338.1024   21512343.3984
       994.5024        774.9364
  23891664.5074   -4682479.61047  -3484827.43745  23891664.0994   23891671.2154
      2069.2824       1612.4264
 02  8  5  0  3 30.0000000  0  7G 3G25G20G 2G22G 1G13
  22459430.7664   -6695657.09148  -5058625.18946  22459430.7114   22459437.0604
      1722.0954       1341.8894
  22676013.6714   11987203.16748  10016934.79246  22676014.2704   22676025.9954
     -2825.6544      -2201.8094
  22815903.8864      21647.82648    375477.53646  22815903.9064   22815912.0624
     -3374.1694      -2629.2234
  21056977.1914   -7974582.72648  -6048419.87546  21056976.0544   21056986.2324
     -1279.6924       -997.1584
  19981879.1634  -12237738.28649  -9325903.31347  19981879.2904   19981885.0404
     -2181.0374      -1699.5094
  21506691.7784  -10850747.09448  -8070948.16947  21506691.3134   21506695.2714
       982.7844        765.8024
  23879862.9984   -4744504.73047  -3533158.61745  23879863.2354   23879867.5084
      2064.5514       1608.7414
 02  8  5  0  4  0.0000000  0  7G 3G25G20G 2G22G 1G13
  22449633.0664   -6747132.10947  -5098735.57945  22449632.6704   22449642.6984
      1709.0344       1331.7224
  22692168.2854   12072095.92648  10083085.00046  22692169.1254   22692181.2084
     -2834.4254      -2208.6414
  22835209.4774     123106.30848    454536.08246  22835210.6734   22835220.2284
     -3390.3064      -2641.7954
  21064331.5494   -7935970.77749  -6018332.61947  21064330.8104   21064333.6844
     -1295.0404      -1009.1274
  19994386.8704  -12172018.55649  -9274693.21847  19994385.1814   19994391.3424
     -2200.9074      -1714.9944
  21501121.3344  -10880006.92948  -8093747.96147  21501121.4454   21501127.7854
       967.2534        753.7004
  23868098.9814   -4806322.50547  -3581328.21245  23868098.7924   23868104.3114
      2055.9904       1602.0654
 02  8  5  0  4 30.0000000  0  7G 3G25G20G 2G22G 1G13
  22439898.7504   -6798313.72848  -5138617.41246  22439896.8084   22439902.5194
      1702.5744       1326.6784
  22708357.0434   12157151.63448  10149362.15146  22708359.3954   22708365.9544
     -2836.4904      -2210.2534
  22854590.5504     224947.13148    533892.53446  22854591.1854   22854599.6334
     -3399.5764      -2649.0194
  21071740.2374   -7896999.94948  -5987965.71446  21071739.3494   21071749.4094
     -1303.5114      -1015.7174
  20006985.6874  -12105803.25448  -9223096.80547  20006985.5414   20006991.8194
     -2213.9794      -1725.1754
  21495620.2364  -10908899.57448  -8116261.67746  21495620.3804   21495629.5674
       958.3974        746.8014
  23856365.1234   -4867982.83247  -3629375.13045  23856364.6244   23856369.4024
      2054.1424       1600.6164
 02  8  5  0  5  0.0000000  0  7G 3G25G20G 2G22G 1G13
  22430199.5084   -6849269.10248  -5178322.76446  22430199.6054   22430205.2114
      1692.6244       1318.9234
  22724571.9204   12242300.72247  10215712.04246  22724568.3154   22724568.8274
     -2841.9324      -2214.4924
  22874031.0944     327097.23448    613490.00046  22874030.8474   22874037.6524
     -3412.1854      -2658.8464
  21079217.3264   -7857741.72549  -5957374.91347  21079216.5694   21079219.9544
     -1315.4634      -1025.0404
  20019667.5274  -12039164.22149  -9171170.32247  20019666.4144   20019672.4714
     -2230.4464      -1738.0144
  21490180.2824  -10937492.64648  -8138541.95546  21490179.8674   21490188.7684
       946.0124        737.1494
  23844645.9654   -4929553.56747  -3677352.22145  23844647.1824   23844652.3794
      2048.7534       1596.4334
 02  8  5  0  5 30.0000000  0  7G 3G25G20G 2G22G 1G13
  22420555.2254   -6899942.06847  -5217808.06845  22420555.7394   22420562.2014
      1686.1474       1313.8784
  22740800.4354   12327596.31848  10282176.08846  22740798.2614   22740800.7994
     -2843.8184      -2215.9634
  22893540.7794     429606.68048    693367.45446  22893538.9094   22893545.0254
     -3421.1174      -2665.8044
  21086746.6014   -7818143.99648  -5926519.46746  21086746.2764   21086755.3024
     -1323.7244      -1031.4684
  20032438.9494  -11972050.47448  -9118873.85347  20032438.3874   20032443.7014
     -2243.2134      -1747.9524
  21484804.3344  -10965730.63248  -8160545.52346  21484804.1784   21484814.3004
       937.1484        730.2464
  23832959.1144   -4990979.37447  -3725216.40845  23832958.8474   23832965.2664
      2046.8694       1594.9604
 02  8  5  0  6  0.0000000  0  7G 3G25G20G 2G22G 1G13
  22410949.2854   -6950431.23447  -5257150.30845  22410947.8284   22410957.4394
      1679.3744       1308.6034
  22757031.9344   12412937.41448  10348675.60146  22757032.2624   22757039.7394
     -2845.9614      -2217.6324
  22913097.1594     532370.89548    773443.42346  22913095.3004   22913100.0324
     -3430.1734      -2672.8614
  21094332.8064   -7778309.72449  -5895479.83847  21094331.9144   21094335.4934
     -1332.1994      -1038.0814
  20045280.9114  -11904565.53349  -9066288.20547  20045279.9664   20045285.3394
     -2256.1534      -1758.0464
  21479480.7274  -10993712.63748  -8182349.64346  21479479.8874   21479489.6074
       927.9524        723.0784
  23821278.1954   -5052359.37747  -3773044.89745  23821277.6724   23821284.8324
      2044.7544       1593.3184
 02  8  5  0  6 30.0000000  0  7G 3G25G20G 2G22G 1G13
  22401395.0824   -7000641.98648  -5296275.52146  22401393.9204   22401400.1894
      1667.0424       1298.9934
  22773294.6064   12498415.85648  10415282.16346  22773294.6194   22773306.8914
     -2853.5384      -2223.5354
  22932718.6104     635478.88748    853787.28446  22932716.3644   22932720.8994
     -3444.5814      -2684.0874
  21101969.2134   -7738148.21848  -5864185.05547  21101969.8294   21101978.2304
     -1346.0984      -1048.9054
  20058211.6804  -11836619.29848  -9013343.09147  20058210.2314   20058215.2984
     -2274.4904      -1772.3244
  21474226.4664  -11021344.65148  -8203881.04347  21474224.3204   21474232.2384
       913.2624        711.6314
  23809623.5674   -5113599.51747  -3820764.40645  23809623.3494   23809630.4084
      2037.0314       1587.3024
 02  8  5  0  7  0.0000000  0  7G 3G25G20G 2G22G 1G13
  22391899.2994   -7050536.91448  -5335154.54746  22391899.1394   22391905.4914
      1658.5354       1292.3604
  22789595.0914   12584066.72248  10482023.08746  22789595.0124   22789605.5904
     -2857.2484      -2226.4274
  22952411.0104     738961.84648    934423.32646  22952408.4484   22952412.0844
     -3455.0034      -2692.2124
  21109686.0884   -7697626.15348  -5832609.49847  21109684.7954   21109688.8024
     -1356.0404      -1056.6584
  20071233.6964  -11768179.59649  -8960013.43247  20071233.2654   20071238.6734
     -2288.8854      -1783.5504
  21469041.8334  -11048589.73048  -8225110.93547  21469040.2154   21469047.2774
       902.3574        703.1334
  23798006.0964   -5174662.77347  -3868346.11245  23798004.7244   23798009.6504
      2033.1544       1584.2714
 02  8  5  0  7 30.0000000  0  7G 3G25G20G 2G22G 1G13
  22382458.2304   -7100144.70947  -5373809.86046  22382458.7624   22382466.3434
      1648.9844       1284.9224
  22805922.4524   12669858.87648  10548874.08246  22805924.3224   22805931.6914
     -2861.8334      -2230.0024
  22972166.3144     842785.02948   1015324.48246  22972164.3624   22972170.0594
     -3466.1604      -2700.9024
  21117455.8634   -7656776.77248  -5800778.68847  21117456.3464   21117462.4144
     -1366.8264      -1065.0604
  20084346.7624  -11699279.84749  -8906325.35847  20084345.0534   20084349.7354
     -2304.0434      -1795.3544
  21463926.7774  -11075477.35848  -8246062.29547  21463925.4294   21463930.2394
       890.5164        693.9094
  23786414.4514   -5235578.70447  -3915813.01945  23786412.6094   23786418.8794
      2028.3074       1580.4964
 02  8  5  0  8  0.0000000  0  7G 3G25G20G 2G22G 1G13
  22373081.4634   -7149435.65547  -5412218.44845  22373079.3054   22373086.6944
      1636.8644       1275.4774
  22822285.3514   12755818.92648  10615855.89746  22822285.7414   22822289.8584
     -2868.9524      -2235.5434
  22991992.2564     946972.10148   1096509.17646  22991990.7754   22991996.2294
     -3479.7504      -2711.4924
  21125298.7244   -7615574.49448  -5768673.11047  21125297.4454   21125302.9274
     -1380.0914      -1075.3974
  20097547.8494  -11629895.82949  -8852259.82547  20097547.6934   20097552.7184
     -2321.6874      -1809.1104
  21458884.6484  -11101978.53449  -8266712.49947  21458883.6064   21458887.5364
       876.0834        682.6594
  23774854.2334   -5296318.17147  -3963142.40645  23774854.7964   23774859.7604
      2020.8764       1574.7064
 02  8  5  0  8 30.0000000  0  7G 3G25G20G 2G22G 1G13
  22363753.2484   -7198448.84948  -5450410.45746  22363752.3894   22363759.0874
      1629.4504       1269.6964
  22838671.4184   12841905.72548  10682936.47346  22838668.0764   22838670.4584
     -2871.3114      -2237.3844
  23011879.0224    1051478.15848   1177942.44446  23011876.7374   23011883.6784
     -3488.4574      -2718.2784
  21133197.5984   -7574062.36848  -5736325.88347  21133197.3514   21133202.3514
     -1388.5144      -1081.9614
  20110837.1574  -11560070.83249  -8797850.79947  20110835.2464   20110840.3064
     -2334.4954      -1819.0874
  21453906.9754  -11128132.36549  -8287092.06447  21453906.1284   21453910.9374
       866.3234        675.0564
  23763324.0784   -5356920.77947  -4010365.16045  23763322.6194   23763328.1974
      2018.1144       1572.5524
 02  8  5  0  9  0.0000000  0  7G 3G25G20G 2G22G 1G13
  22354474.3044   -7247204.70248  -5488401.88046  22354474.1894   22354480.7334
      1619.0544       1261.5954
  22855068.3294   12928096.17248  10750097.81146  22855067.5804   22855071.9184
     -2876.5094      -2241.4354
  23031819.2784    1156276.73648   1259603.64546  23031818.1374   23031825.9814
     -3499.8814      -2727.1764
  21141151.7364   -7532265.07648  -5703756.65947  21141149.7744   21141155.8514
     -1399.7354      -1090.7034
  20124201.3444  -11489830.78449  -8743118.21447  20124201.2394   20124206.5834
     -2350.0404      -1831.2024
  21448992.0894  -11153960.10049  -8307217.55747  21448991.1984   21448995.9324
       853.6944        665.2164
  23751812.6984   -5417407.40647  -4057497.56845  23751813.0554   23751818.2954
      2012.4924       1568.1754
 02  8  5  0  9 30.0000000  0  7G 3G25G20G 2G22G 1G13
  22345256.7144   -7295639.48647  -5526143.21946  22345256.5654   22345266.0444
      1609.7784       1254.3744
  22871496.9824   13014451.33948  10817387.51946  22871496.9574   22871505.1094
     -2880.6394      -2244.6524
  23051827.1674    1261425.56048   1341537.75946  23051826.9644   23051835.0764
     -3510.1144      -2735.1524
  21149171.1924   -7490123.56948  -5670919.01247  21149171.0544   21149174.9964
     -1409.8414      -1098.5824
  20137659.5414  -11419116.65949  -8688016.37947  20137657.5774   20137662.8364
     -2364.3654      -1842.3644
  21444152.4994  -11179398.75349  -8327039.84747  21444151.6734   21444154.0514
       842.0614        656.1474
  23740337.6104   -5477714.81547  -4104490.30745  23740336.3104   23740342.2624
      2007.8124       1564.5304
 02  8  5  0 10  0.0000000  0  7G 3G25G20G 2G22G 1G13
  22336099.6444   -7343777.73948  -5563653.57946  22336097.1784   22336103.9504
      1600.9484       1247.4924
  22887953.1714   13100943.94348  10884784.34146  22887953.8444   22887964.7244
     -2884.0394      -2247.3044
  23071896.1334    1366893.79348   1423720.74046  23071896.6424   23071904.4714
     -3519.5474      -2742.5024
  21157248.6914   -7447666.02148  -5637835.29046  21157247.1754   21157254.4874
     -1419.1544      -1105.8304
  20151199.3384  -11347958.07749  -8632568.05047  20151199.3224   20151204.1054
     -2378.0064      -1852.9904
  21439379.9854  -11204473.41049  -8346578.48447  21439379.8194   21439383.0804
       831.0754        647.5904
  23728890.2664   -5537868.21047  -4151363.08945  23728889.9214   23728893.9584
      2003.8864       1561.4744
 02  8  5  0 10 30.0000000  0  7G 3G25G20G 2G22G 1G13
  22326986.7234   -7391651.81048  -5600957.92146  22326986.3274   22326992.0494
      1590.1184       1239.0464
  22904431.5364   13187539.40448  10952261.32646  22904432.7444   22904442.6584
     -2889.4664      -2251.5314
  23092019.0074    1472643.48348   1506123.05846  23092019.7554   23092027.2624
     -3530.9094      -2751.3554
  21165383.4304   -7404929.36648  -5604533.90247  21165383.2224   21165387.1424
     -1430.4534      -1114.6434
  20164818.7124  -11276392.26249  -8576802.53947  20164817.1114   20164822.3434
     -2393.5594      -1865.1154
  21434670.3824  -11229216.77549  -8365859.02247  21434670.2654   21434675.6444
       817.9784        637.3864
  23717465.0114   -5597900.44847  -4198141.43845  23717465.5974   23717471.8734
      1997.7894       1556.7204
 02  8  5  0 11  0.0000000  0  7G 3G25G20G 2G22G 1G13
  22317943.9414   -7439166.22548  -5637982.00946  22317944.3434   22317951.5264
      1576.9194       1228.7634
  22920949.3164   13274330.51348  11019890.74946  22920950.2004   22920959.0834
     -2897.1764      -2257.5394
  23112214.3184    1578764.11748   1588814.43446  23112214.3904   23112221.5794
     -3544.3644      -2761.8424
  21173583.4194   -7361821.84348  -5570943.69346  21173582.0804   21173590.3144
     -1443.9564      -1125.1574
  20178531.8164  -11204328.63948  -8520649.00147  20178531.2904   20178536.2104
     -2411.3014      -1878.9324
  21430043.8154  -11253533.89849  -8384807.43047  21430043.6364   21430047.2924
       802.5484        625.3614
  23706082.1264   -5657716.50547  -4244751.33345  23706081.8524   23706088.0484
      1989.3744       1550.1614
 02  8  5  0 11 30.0000000  0  8G 3G25G31G20G 2G22G 1G13
  22308969.1544   -7486328.59047  -5674731.87945  22308969.5664   22308979.1584
      1564.7924       1219.3174
  22937505.1144   13361306.70548  11087664.35946  22937505.0754   22937509.9474
     -2903.5884      -2262.5364
  24891480.2474    -438088.71956   -325715.51344  24891478.1394   24891490.2184
      2548.1504       1985.5644
  23132476.2884    1685241.51248   1671783.79046  23132476.5514   23132483.8364
     -3556.4674      -2771.2734
  21181858.5774   -7318356.21349  -5537074.28647  21181858.1174   21181861.5234
     -1456.1254      -1134.6474
  20192336.6824  -11131780.16049  -8464117.76247  20192335.7114   20192341.0394
     -2427.6454      -1891.6744
  21425495.2444  -11277433.30549  -8403430.31247  21425495.1654   21425498.7154
       788.3594        614.3044
  23694739.4824   -5717324.96947  -4291199.46745  23694739.1664   23694745.4624
      1982.1354       1544.5174
 02  8  5  0 12  0.0000000  0  8G 3G25G31G20G 2G22G 1G13
  22300059.4504   -7533159.63848  -5711223.61346  22300058.6534   22300065.2324
      1556.5294       1212.8744
  22954091.6904   13448445.11348  11155564.38746  22954088.9034   22954091.3434
     -2906.2924      -2264.6404
  24876922.8884    -514611.89046   -385343.71545  24876920.2134   24876926.1764
      2552.6124       1989.0334
  23152803.9234    1792049.17248   1755010.50846  23152802.6524   23152808.8324
     -3564.6744      -2777.6664
  21190188.8414   -7274556.52848  -5502944.71046  21190187.1394   21190196.3284
     -1464.5024      -1141.1654
  20206231.5654  -11058772.13248  -8407228.36747  20206230.6044   20206234.6654
     -2440.2174      -1901.4614
  21421021.0294  -11300936.06448  -8421744.13447  21421021.1844   21421026.6844
       777.8344        606.1044
  23683432.6464   -5776746.53947  -4337501.94645  23683431.6824   23683439.2174
      1978.6124       1541.7744
 02  8  5  0 12 30.0000000  0  8G 3G25G31G20G 2G22G 1G13
  22291201.8434   -7579703.04248  -5747491.04946  22291201.3674   22291206.7084
      1545.8704       1204.5674
  22970692.6164   13535699.67248  11223554.93546  22970691.2494   22970695.6704
     -2911.1794      -2268.4504
  24862339.9274    -591228.92446   -445045.06344  24862339.3744   24862347.4694
      2554.6734       1990.6414
  23173182.2484    1899137.83848   1838456.19146  23173181.4944   23173187.4724
     -3575.0384      -2785.7424
  21198582.4574   -7230471.03448  -5468592.32047  21198581.8144   21198585.3934
     -1475.0344      -1149.3824
  20220200.2384  -10985353.35149  -8350018.92747  20220199.6734   20220205.4154
     -2454.9074      -1912.9184
  21416614.9464  -11324086.32248  -8439783.30347  21416615.3644   21416622.3914
       765.0104        596.1124
  23672149.9054   -5836025.32747  -4383693.17545  23672149.2064   23672157.9904
      1972.7824       1537.2274
 02  8  5  0 13  0.0010000  0  8G 3G25G31G20G 2G22G 1G13
  22282402.5974   -7625943.39848  -5783522.38746  22282402.5634   22282409.5104
      1535.8574       1196.7724
  22987318.8694   13623087.63448  11291649.44446  22987318.2804   22987325.1184
     -2915.3204      -2271.6774
  24847739.0164    -667925.55846   -504808.44244  24847738.0614   24847749.8704
      2557.3784       1992.7654
  23193617.1714    2006521.94348   1922132.08346  23193616.7134   23193622.2274
     -3584.5064      -2793.1244
  21207023.7374   -7186085.03448  -5434005.85246  21207022.3994   21207031.6584
     -1484.7664      -1156.9544
  20234254.9034  -10911509.02049  -8292477.91847  20234253.0614   20234258.1234
     -2468.7384      -1923.6874
  21412279.5344  -11346868.40248  -8457535.56847  21412279.7824   21412286.2524
       752.8824        586.6604
  23660900.1834   -5895146.60147  -4429761.62645  23660899.0834   23660906.8524
      1967.6694       1533.2454
 02  8  5  0 13 30.0010000  0  7G 3G25G20G 2G22G 1G13
  22273668.3394   -7671840.09747  -5819286.06645  22273666.3814   22273675.8064
      1524.3964       1187.8454
  23003975.7634   13710638.04848  11359870.55346  23003975.7934   23003985.1904
     -2920.8454      -2275.9844
  23214115.6454    2114225.66248   2006057.03146  23214112.8654   23214117.7594
     -3595.2304      -2801.4774
  21215538.3554   -7141368.99449  -5399162.14247  21215537.4354   21215540.7494
     -1495.8014      -1165.5654
  20248390.2554  -10837212.11049  -8234584.17447  20248390.0744   20248395.7774
     -2483.9114      -1935.5184
  21408019.3074  -11369244.15748  -8474971.22146  21408020.0054   21408026.9864
       739.3044        576.0804
  23649687.8914   -5954069.78347  -4475675.71345  23649687.3684   23649694.2814
      1960.9884       1528.0424
 02  8  5  0 14  0.0010000  0  7G 3G25G20G 2G22G 1G13
  22264995.8684   -7717424.67148  -5854806.44346  22264994.2874   22264999.9324
      1514.8844       1180.4224
  23020661.3624   13798321.01448  11428194.95746  23020661.8164   23020670.7564
     -2924.3454      -2278.7114
  23234666.6224    2222216.57348   2090205.76246  23234663.8194   23234668.2444
     -3603.8084      -2808.1594
  21224097.9084   -7096355.16148  -5364086.42346  21224096.8844   21224106.7424
     -1504.7414      -1172.5204
  20262610.9874  -10762494.75149  -8176362.92347  20262608.8284   20262614.3314
     -2496.9324      -1945.6594
  21403833.8374  -11391244.79148  -8492114.56447  21403833.6584   21403841.6794
       727.7034        567.0414
  23638506.0074   -6012827.09147  -4521460.54045  23638505.5624   23638513.0374
      1956.4184       1524.4754
 02  8  5  0 14 30.0010000  0  7G 3G25G20G 2G22G 1G13
  22256385.4454   -7762664.06648  -5890057.76946  22256385.0874   22256391.3654
      1502.8354       1171.0364
  23037378.6364   13886167.45348  11496646.74146  23037379.3754   23037387.7694
     -2930.2904      -2283.3434
  23255274.7784    2330521.47548   2174599.14946  23255272.8794   23255277.1814
     -3614.7474      -2816.6844
  21232732.1854   -7051014.98649  -5328756.40547  21232731.4394   21232734.9714
     -1516.1374      -1181.4094
  20276912.5494  -10687329.30349  -8117792.36147  20276912.3524   20276917.7214
     -2512.3414      -1957.6704
  21399723.5554  -11412837.84148  -8508940.31447  21399723.4934   21399733.6574
       713.5644        556.0254
  23627365.3624   -6071386.02547  -4567090.77445  23627364.4084   23627369.1124
      1949.2584       1518.8994
 02  8  5  0 15  0.0010000  0  8G 3G25G31G20G 2G22G 1G13
  22247838.3884   -7807572.24348  -5925051.05946  22247838.7394   22247846.8574
      1491.2714       1162.0284
  23054124.5234   13974160.72448  11565212.94046  23054125.6434   23054132.2714
     -2935.6584      -2287.5274
  24789267.6154     -41508.82854    -16464.39643
      2563.8624       1997.8144
  23275940.8014    2439120.49148   2259221.72246  23275938.2714   23275941.7404
     -3624.9364      -2824.6254
  21241413.1134   -7005366.31948  -5293185.99346  21241411.9264   21241421.7094
     -1526.8174      -1189.7204
  20291298.2954  -10611734.30849  -8058887.25947  20291296.7954   20291303.2544
     -2527.1264      -1969.1914
  21395687.6914  -11434037.96048  -8525459.88446  21395687.9004   21395698.5344
       699.9504        545.4154
  23616256.2814   -6129761.02747  -4612577.67845  23616256.1214   23616260.5644
      1942.5914       1513.7054
 02  8  5  0 15 30.0010000  0  8G 3G25G31G20G 2G22G 1G13
  22239359.6654   -7852139.85848  -5959779.09446  22239358.0454   22239364.6564
      1479.4334       1152.8104
  23070901.8004   14062307.48848  11633898.74246  23070901.5494   23070905.5914
     -2941.2044      -2291.8504
  24774628.6684    -118446.62444    -76415.49444
      2564.8864       1998.6014
  23296662.5254    2548016.96448   2344076.08846  23296659.7454   23296664.6614
     -3635.2344      -2832.6474
  21250164.5234   -6959404.41649  -5257371.52847  21250163.9934   21250167.5044
     -1537.6864      -1198.2014
  20305765.4224  -10535705.90049  -7999644.25847  20305765.4274   20305770.9744
     -2541.9324      -1980.7264
  21391731.6874  -11454836.30848  -8541666.36446  21391730.9504   21391739.6594
       686.0894        534.6124
  23605184.7484   -6187943.32647  -4657914.42845  23605184.2024   23605188.8714
      1935.7364       1508.3614
 02  8  5  0 16  0.0010000  0  8G 3G25G31G20G 2G22G 1G13
  22230941.4504   -7896376.85348  -5994249.39646  22230940.4814   22230945.6784
      1470.0314       1145.4744
  23087705.0814   14150595.76048  11702694.79746  23087703.0594   23087706.3954
     -2944.2844      -2294.2484
  24759979.2914    -195437.47144   -136406.98943
      2568.1904       2001.2194
  23317437.9084    2657195.14348   2429149.95746  23317436.1604   23317441.7104
     -3642.9234      -2838.6384
  21258962.1874   -6913142.81248  -5221323.49846  21258960.8474   21258970.6514
     -1545.9994      -1204.6674
  20320313.1484  -10459258.44149  -7940074.89547  20320311.6434   20320318.3404
     -2554.2324      -1990.3144
  21387849.1914  -11475243.00148  -8557567.63946  21387848.2814   21387856.9094
       674.6794        525.7234
  23594148.3714   -6245942.70547  -4703108.63145  23594147.5594   23594152.4924
      1931.2454       1504.8624
 02  8  5  0 16 30.0010000  0  8G 3G25G31G20G 2G22G 1G13
  22222587.6274   -7940274.00548  -6028454.83846  22222587.3804   22222594.1014
      1455.7344       1134.3364
  23104533.1564   14239032.37748  11771606.45146  23104531.3034   23104535.4404
     -2952.1374      -2300.3704
  24745308.1844    -272472.14244    -12478.76443
      2566.7964       2000.1014
  23338267.4474    2766658.49348   2514446.04446  23338264.7214   23338270.8814
     -3655.2874      -2848.2744
  21267829.4494   -6866576.72449  -5185038.25847  21267828.4184   21267831.5824
     -1559.0384      -1214.8394
  20334942.6514  -10382387.55948  -7880175.44747  20334941.9274   20334946.5094
     -2571.2034      -2003.5294
  21384042.3964  -11495249.37048  -8573156.98847  21384041.1714   21384051.2184
       658.4124        513.0474
  23583146.7744   -6303750.22747  -4748153.34545  23583146.2364   23583151.0894
      1921.8834       1497.5724
 02  8  5  0 17  0.0010000  0  7G 3G25G20G 2G22G 1G13
  22214307.9854   -7983769.90148  -6062347.69646  22214308.9994   22214316.4514
      1443.7624       1125.0114
  23121398.2034   14327675.83448  11840679.27846  23121397.3474   23121403.7274
     -2957.6144      -2304.6344
  23359162.1964    2876461.73048   2600006.98446  23359159.9344   23359165.6234
     -3665.1054      -2855.9274
  21276752.3964   -6819649.21448  -5148471.33146  21276752.3614   21276761.7924
     -1569.6344      -1223.0844
  20349659.9794  -10305037.56149  -7819902.76547  20349658.8144   20349665.5164
     -2585.6724      -2014.8144
  21380324.0514  -11514795.09348  -8588387.38947  21380322.4354   21380331.0224
       644.4454        502.1614
  23572193.9194   -6361305.69647  -4793001.64845  23572194.0334   23572199.5614
      1914.9084       1492.1324
 02  8  5  0 17 30.0010000  0  7G 3G25G20G 2G22G 1G13
  22206090.3024   -8026963.04748  -6096004.70346  22206088.9104   22206095.7424
      1435.0534       1118.2184
  23138283.9864   14416425.51848  11909834.88046  23138283.8064   23138291.9364
     -2959.7074      -2306.2654
  23380101.1704    2986500.66048   2685751.56446  23380099.5524   23380106.0834
     -3671.4704      -2860.8844
  21285738.5354   -6772463.04749  -5111702.91847  21285737.5344   21285741.2284
     -1576.7834      -1228.6674
  20364453.5584  -10227311.56948  -7759337.04447  20364451.9634   20364456.7344
     -2596.7404      -2023.4284
  21376674.8834  -11533978.96348  -8603335.80147  21376672.9734   21376679.7624
       633.7624        493.8384
  23561270.3484   -6418707.56147  -4837730.26945  23561270.7914   23561277.0554
      1911.1864       1489.2334
 02  8  5  0 18  0.0010000  0  8G 3G25G31G20G 2G22G 1G13
  22197934.5584   -8069827.96948  -6129405.82546  22197933.6994   22197938.9604
      1422.0674       1108.0984
  23155195.0134   14505304.21648  11979091.01946  23155195.3834   23155205.1154
     -2965.9834      -2311.1554
  24701304.3374     -56593.52854    -28525.47943
      2571.4914       2003.7594
  23401088.3284    3096794.99148   2771695.14646  23401086.6484   23401094.5344
     -3681.9154      -2869.0244
  21294765.3404   -6724996.46748  -5074715.92246  21294764.5334   21294774.1514
     -1588.0804      -1237.4584
  20379316.0364  -10149188.92049  -7698462.24147  20379315.6974   20379322.3294
     -2611.9174      -2035.2644
  21373097.3014  -11552775.96248  -8617982.73547  21373095.2534   21373103.0444
       618.8474        482.2174
  23550381.2604   -6475930.51947  -4882319.49645  23550380.9654   23550386.5234
      1903.1894       1483.0034
 02  8  5  0 18 30.0010000  0  8G 3G25G31G20G 2G22G 1G13
  22189847.8104   -8112318.76348  -6162515.43446  22189847.9334   22189855.2274
      1410.9774       1099.4604
  23172141.0594   14594355.50248  12048481.63046  23172141.5734   23172150.3744
     -2970.3734      -2314.5754
  24686625.6094    -133760.75444    -88655.23744
      2573.2124       2005.1044
  23422133.3214    3207384.33748   2857868.63746  23422131.1634   23422138.4794
     -3690.3174      -2875.5704
  21303865.1014   -6677207.97249  -5037478.18147  21303863.8434   21303867.5964
     -1597.4034      -1244.7344
  20394268.6234  -10070628.73849  -7637246.55647  20394267.1034   20394272.1114
     -2625.0654      -2045.5024
  21369603.1414  -11571140.83948  -8632292.97447  21369601.6614   21369609.3454
       605.8014        472.0514
  23539533.5424   -6532928.95347  -4926733.74945  23539533.8764   23539538.4444
      1897.0614       1478.2264
 02  8  5  0 19  0.0010000  0  8G 3G25G31G20G 2G22G 1G13
  22181828.6484   -8154451.66947  -6195346.24146  22181828.6384   22181835.9714
      1399.0164       1090.1454
  23189116.8724   14683560.23548  12117991.80846  23189117.2694   23189126.3814
     -2975.4734      -2318.5494
  24671936.1124    -210955.41047   -148806.84245  24671933.3154   24671939.8164
      2574.1454       2005.8284
  23443228.5804    3318246.37848   2944254.61046  23443227.6084   23443235.4804
     -3699.3234      -2882.5874
  21313010.0844   -6629117.99748  -5000005.40446  21313009.7454   21313019.3294
     -1607.4214      -1252.5314
  20409295.1004   -9991652.62649  -7575706.66247  20409294.5964   20409300.2674
     -2638.8804      -2056.2744
  21366188.2684  -11589090.56749  -8646279.72447  21366186.4444   21366193.3244
       591.9574        461.2644
  23528727.0104   -6589719.90847  -4970986.36145  23528726.1764   23528731.9244
      1890.1194       1472.8204
 02  8  5  0 19 30.0010000  0  8G 3G25G31G20G 2G22G 1G13
  22173878.5624   -8196247.93548  -6227914.77546  22173876.7224   22173881.3374
      1386.5974       1080.4644
  23206118.8344   14772894.97548  12187603.28246  23206119.4394   23206126.3004
     -2980.9934      -2322.8504
  24657231.3384    -288198.88147   -208996.30245  24657230.1954   24657241.2354
      2574.6114       2006.1664
  23464369.7014    3429354.13248   3030832.03846  23464369.6834   23464378.6654
     -3708.6494      -2889.8564
  21322219.5614   -6580752.15049  -4962317.80147  21322218.4854   21322222.7284
     -1617.7544      -1260.5914
  20424400.4444   -9912286.47649  -7513862.98047  20424398.0054   20424403.4654
     -2652.9954      -2067.2694
  21362846.9934  -11606646.85848  -8659959.88047  21362845.4124   21362850.8774
       577.6254        450.0944
  23517953.9514   -6646324.60347  -5015093.84345  23517953.9254   23517959.8864
      1882.6984       1467.0374
 02  8  5  0 20  0.0010000  0  8G 3G25G31G20G 2G22G 1G13
  22165994.2824   -8237665.75448  -6260188.28046  22165994.7734   22166002.0214
      1374.9914       1071.4184
  23223152.8524   14862399.29748  12257346.90246  23223153.4424   23223157.5084
     -2985.5224      -2326.3814
  24642526.0794    -365449.24746   -269191.20044  24642525.4884   24642542.5774
      2575.7564       2007.0784
  23485565.4854    3540743.41848   3117628.85046  23485566.4304   23485575.3404
     -3716.9064      -2896.2894
  21331477.0184   -6532072.40448  -4924385.46146  21331476.5294   21331486.4004
     -1627.0674      -1267.8394
  20439582.1144   -9832493.56849  -7451686.59647  20439582.1114   20439587.6224
     -2666.0934      -2077.4764
  21359590.8874  -11623768.29849  -8673301.20147  21359589.2534   21359593.1524
       564.2054        439.6384
  23507227.2964   -6702701.54547  -5059023.88445  23507227.3984   23507232.9754
      1876.1624       1461.9474
 02  8  5  0 20 30.0010000  0  8G 3G25G31G20G 2G22G 1G13
  22158176.7204   -8278749.50448  -6292201.52246  22158176.9264   22158183.7404
      1364.5874       1063.3134
  23240211.0544   14952026.19248  12327186.03246  23240209.9764   23240213.6034
     -2988.8824      -2328.9974
  24627823.5954    -442751.19746   -329426.28244  24627818.4464   24627829.5314
      2578.3684       2009.1104
  23506806.3714    3652363.80948   3204605.75246  23506807.0114   23506815.5974
     -3723.7254      -2901.6044
  21340796.7564   -6483127.66448  -4886246.77747  21340795.6834   21340799.8744
     -1635.1314      -1274.1334
  20454839.3404   -9752323.01149  -7389216.11147  20454837.5464   20454843.6014
     -2677.8854      -2086.6664
  21356406.5384  -11640499.86749  -8686338.72847  21356404.9464   21356410.7054
       551.9484        430.0884
  23496533.2014   -6758895.39847  -5102811.25745  23496532.8024   23496539.7734
      1870.7824       1457.7514
 02  8  5  0 21  0.0010000  0  8G 3G25G31G20G 2G22G 1G13
  22150422.8724   -8319502.04047  -6323956.72646  22150421.4594   22150427.9934
      1352.8004       1054.1304
  23257291.1834   15041770.41448  12397116.57246  23257288.3464   23257291.7664
     -2993.4294      -2332.5414
  24613110.0224    -520107.81746   -389703.91044  24613104.9874   24613108.9744
      2579.4574       2009.9664
  23528089.9774    3764206.44248   3291755.83646  23528090.1624   23528099.0884
     -3731.7474      -2907.8554
  21350155.2324   -6433924.76848  -4847906.77846  21350154.0844   21350163.1574
     -1644.3204      -1281.2834
  20470165.5644   -9671783.07349  -7326457.64047  20470165.3054   20470169.7264
     -2690.7814      -2096.7104
  21353295.1774  -11656845.14149  -8699075.26047  21353293.9874   21353299.8084
       538.3964        419.5284
  23485873.7154   -6814909.18247  -5146458.32845  23485874.2524   23485880.0054
      1864.1324       1452.5734
 02  8  5  0 21 30.0010000  0  8G 3G25G31G20G 2G22G 1G13
  22142736.2224   -8359891.61248  -6355429.07246  22142735.7114   22142742.6514
      1341.4274       1045.2674
  23274394.8164   15131661.50948  12467161.53846  23274393.0984   23274397.1424
     -2997.6244      -2335.8094
  24598382.3604    -597487.16947   -449999.23445  24598379.2344   24598384.3234
      2580.8654       2011.0544
  23549419.9784    3876297.42548   3379099.42946  23549420.5374   23549429.0604
     -3739.2424      -2913.6954
  21359577.2424   -6384435.87948  -4809344.08147  21359575.9184   21359580.3274
     -1653.1544      -1288.1764
  20485566.3634   -9590846.35149  -7263390.12547  20485565.0814   20485571.0134
     -2703.2574      -2106.4374
  21350265.2014  -11672772.60449  -8711486.23247  21350263.8894   21350267.3794
       525.1344        409.1944
  23475254.2384   -6870711.22647  -5189940.39845  23475254.0434   23475262.5394
      1857.7294       1447.5774
 02  8  5  0 22  0.0010000  0  8G 3G25G31G20G 2G22G 1G13
  22135110.6474   -8399961.43448  -6386652.21346  22135110.6584   22135118.4394
      1329.1084       1035.6664
  23291517.9174   15221653.64448  12537285.25246  23291517.0284   23291521.9864
     -3002.6104      -2339.6964
  24583641.9454    -674932.73047   -510346.12645  24583641.1704   24583646.9034
      2581.4064       2011.4794
  23570789.3004    3988587.38548   3466598.08846  23570789.0484   23570797.2264
     -3747.4944      -2920.1234
  21369032.9554   -6334708.35548  -4770595.29446  21369033.1384   21369043.9024
     -1662.7574      -1295.6484
  20501036.9274   -9509561.36648  -7200051.11947  20501035.9504   20501039.6414
     -2716.5094      -2116.7554
  21347305.5964  -11688326.13849  -8723605.81647  21347304.2754   21347308.0374
       510.9864        398.1704
  23464666.3964   -6926345.28647  -5233291.58745  23464666.4714   23464674.0394
      1850.4604       1441.9124
 02  8  5  0 22 30.0010000  0  8G 3G25G31G20G 2G22G 1G13
  22127558.3394   -8439641.32948  -6417571.52346  22127558.8904   22127566.0414
      1316.2314       1025.6334
  23308672.8314   15311815.10748  12607540.91246  23308671.9294   23308679.2144
     -3008.0414      -2343.9304
  24568898.4414    -752374.19546   -570689.89245  24568901.5844   24568908.4514
      2581.4204       2011.4824
  23592205.3914    4101140.61248   3554301.88946  23592206.6144   23592215.2214
     -3755.8854      -2926.6624
  21378560.7394   -6284676.44148  -4731609.46347  21378559.5554   21378564.0474
     -1672.5944      -1303.3234
  20516580.5484   -9427862.83549  -7136389.95547  20516579.6314   20516586.0414
     -2730.0304      -2127.3004
  21344429.2994  -11703435.96849  -8735379.68647  21344428.6044   21344433.7644
       496.4034        386.8064
  23454126.4234   -6981741.13747  -5276457.14145  23454126.4604   23454132.3914
      1842.7154       1435.8844
 02  8  5  0 23  0.0010000  0  8G 3G25G31G20G 2G22G 1G13
  22120075.4364   -8478971.29448  -6448218.25946  22120075.0334   22120081.0524
      1304.2714       1016.3124
  23325852.3934   15402102.78348  12677894.92246  23325851.9004   23325860.3444
     -3012.5714      -2347.4574
  24554152.0094    -829852.12846   -631062.09644  24554153.2674   24554165.8074
      2582.3004       2012.1834
  23613664.3544    4213910.80048   3642174.74746  23613666.1334   23613675.0584
     -3763.4564      -2932.5634
  21388125.6514   -6234384.41048  -4692420.79146  21388124.8644   21388134.6144
     -1681.6284      -1310.3544
  20532200.6634   -9345795.78648  -7072441.60247  20532199.3254   20532203.2664
     -2742.5684      -2137.0614
  21341631.5324  -11718142.96849  -8746839.68347  21341630.2044   21341634.8534
       482.6054        376.0564
  23443623.7584   -7036939.35647  -5319468.70845  23443623.2324   23443629.1454
      1835.7184       1430.4314
 02  8  5  0 23 30.0010000  0  8G 3G25G31G20G 2G22G 1G13
  22112672.2984   -8517884.22848  -6478539.95546  22112671.0284   22112677.9084
      1289.8724       1005.0914
  23343068.7354   15492581.22048  12748397.57046  23343068.5124   23343078.7054
     -3019.3574      -2352.7444
  24539416.8554    -907299.29646   -691410.36245  24539416.4734   24539427.6074
      2580.7934       2011.0004
  23635176.7674    4326959.34048   3730264.50646  23635178.1074   23635186.9554
     -3773.1274      -2940.1004
  21397762.7704   -6183769.37848  -4652980.58247  21397761.5944   21397765.7674
     -1692.7724      -1319.0484
  20547895.7694   -9263298.23949  -7008157.78847  20547895.2114   20547901.4694
     -2757.3214      -2148.5664
  21338922.2914  -11732380.67949  -8757933.99147  21338921.2444   21338924.6014
       466.5174        363.5194
  23433170.7194   -7091872.88047  -5362274.02245  23433170.9394   23433174.9794
      1826.4804       1423.2324
 02  8  5  0 24  0.0010000  0  8G 3G25G31G20G 2G22G 1G13
  22105338.7064   -8556408.23148  -6508558.55046  22105339.2654   22105346.5904
      1277.9114        995.7714
  23360315.3744   15583220.47648  12819025.53846  23360315.9464   23360326.6184
     -3023.6874      -2356.1204
  24524687.6254    -984743.72447   -751756.45445  24524683.6144   24524692.0994
      2581.7314       2011.7324
  23656736.8034    4440252.18648   3818544.62046  23656737.4724   23656746.5224
     -3780.1414      -2945.5644
  21407443.3054   -6132863.19948  -4613313.35946  21407443.0794   21407453.3214
     -1701.3944      -1325.7564
  20563673.9534   -9180402.66849  -6943563.87847  20563672.0324   20563676.3924
     -2769.4894      -2158.0404
  21336296.3434  -11746177.45049  -8768684.69447  21336295.5474   21336299.0134
       452.8254        352.8504
  23422761.6374   -7146570.03947  -5404895.13246  23422761.7444   23422768.3084
      1819.5954       1417.8664
 02  8  5  0 24 30.0010000  0  8G 3G25G31G20G 2G22G 1G13
  22098082.8794   -8594539.94948  -6538271.48346  22098083.3544   22098088.7474
      1265.2874        985.9384
  23377595.8634   15674021.50448  12889779.53946  23377595.4634   23377605.3404
     -3028.5894      -2359.9374
  24509954.0954   -1062182.28547   -812097.93245  24509951.9144   24509954.8244
      2581.9694       2011.9154
  23678342.3054    4553786.55548   3907012.94546  23678342.7344   23678351.7834
     -3787.6044      -2951.3804
  21417191.8864   -6081667.14249  -4573420.39647  21417190.7974   21417195.3924
     -1710.5354      -1332.8904
  20579520.1854   -9097111.53849  -6878661.64647  20579519.9894   20579526.1304
     -2782.1474      -2167.9094
  21333755.2124  -11759530.89349  -8779089.96547  21333754.3044   21333758.9194
       438.5034        341.6904
  23412399.4854   -7201027.66448  -5447329.60146  23412399.7014   23412405.4964
      1812.0204       1411.9614
 02  8  5  0 25  0.0010000  0  8G 3G25G31G20G 2G22G 1G13
  22090890.1014   -8632348.68848  -6567732.84646  22090888.3464   22090895.5654
      1254.8084        977.7694
  23394890.9644   15764912.41048  12960603.58346  23394891.0284   23394901.7194
     -3031.3384      -2362.0814
  24495200.6204   -1139684.30047   -872488.84645  24495201.1294   24495205.6594
      2584.3154       2013.7424
  23699977.3114    4667487.49148   3995611.04946  23699978.6204   23699988.1954
     -3792.8944      -2955.5004
  21426970.4404   -6030254.33448  -4533358.39446  21426969.3224   21426979.1584
     -1717.4814      -1338.2904
  20595434.0424   -9013498.42649  -6813508.64447  20595432.1774   20595437.3984
     -2792.5634      -2176.0234
  21331286.0284  -11772510.59749  -8789204.02847  21331285.1454   21331289.2124
       426.2774        332.1644
  23402070.4324   -7255315.28948  -5489631.61046  23402069.4394   23402074.4654
      1806.6114       1407.7504
 02  8  5  0 25 30.0010000  0  8G 3G25G31G20G 2G22G 1G13
  22083763.4134   -8669790.35848  -6596908.09546  22083763.3314   22083770.4664
      1242.2884        968.0114
  23412212.1044   15855935.11348  13031530.33246  23412213.2054   23412222.8714
     -3035.8884      -2365.6264
  24480446.7224   -1217205.37347   -932894.65545  24480444.6864   24480454.7594
      2584.7134       2014.0474
  23721653.8504    4781393.35248   4084368.84346  23721655.1384   23721662.7044
     -3799.8404      -2960.9134
  21436807.5844   -5978584.78849  -4493096.47847  21436806.7474   21436811.5684
     -1726.1864      -1345.0844
  20611411.6084   -8929524.32949  -6748074.21147  20611411.5124   20611416.8414
     -2804.7584      -2185.5284
  21328895.0644  -11785072.78549  -8798992.74647  21328894.1864   21328897.9344
       412.1374        321.1454
  23391780.5644   -7309388.57448  -5531766.58846  23391779.6844   23391783.9294
      1799.2214       1401.9944
 02  8  5  0 26  0.0010000  0  8G 3G25G31G20G 2G22G 1G13
  22076708.6924   -8706862.49648  -6625795.33546  22076708.7864   22076714.2454
      1229.3724        957.9464
  23429560.0364   15947089.84648  13102559.95446  23429560.9534   23429568.4794
     -3040.8564      -2369.4984
  24465683.9344   -1294742.97446   -993313.34344  24465686.1174   24465698.9494
      2584.5784       2013.9404
  23743368.8814    4895500.66748   4173283.61346  23743369.1264   23743376.7934
     -3807.0254      -2966.5114
  21446683.9374   -5926659.83048  -4452635.40046  21446682.5664   21446692.5534
     -1735.2344      -1352.1244
  20627460.7994   -8845191.39349  -6682360.31347  20627458.9514   20627464.7754
     -2817.2264      -2195.2424
  21326583.8454  -11797215.46549  -8808454.57247  21326582.9084   21326586.6044
       397.5654        309.7904
  23381531.6964   -7363245.67948  -5573733.08646  23381531.2474   23381534.7984
      1791.4574       1395.9394
 02  8  5  0 26 30.0010000  0  8G 3G25G31G20G 2G22G 1G13
  22069733.7614   -8743514.76948  -6654355.47246  22069733.7534   22069741.0444
      1214.3154        946.2254
  23446942.2004   16038424.04348  13173729.40146  23446942.5964   23446949.1424
     -3047.8554      -2374.9494
  24450936.6564   -1372247.25346  -1053706.13244  24450934.6114   24450949.3414
      2582.5164       2012.3474
  23765128.6364    5009853.28648   4262389.53146  23765128.9664   23765137.6114
     -3816.1424      -2973.6174
  21456627.1774   -5874433.76949  -4411939.81347  21456626.1544   21456630.5424
     -1746.2334      -1360.7054
  20643584.9434   -8760454.78549  -6616331.72047  20643585.0514   20643589.8434
     -2831.6834      -2206.5054
  21324363.0604  -11808889.39049  -8817551.13347  21324362.4744   21324366.0774
       380.9154        296.8164
  23371333.8184   -7416836.40948  -5615492.02746  23371333.2134   23371336.9274
      1781.5074       1388.1864
 02  8  5  0 27  0.0010000  0  8G 3G25G31G20G 2G22G 1G13
  22062837.0914   -8779767.52148  -6682604.40446  22062835.9444   22062842.4604
      1202.6924        937.1614
  23464356.0504   16129915.65248  13245021.52246  23464354.6734   23464359.3184
     -3051.3604      -2377.6814
  24436194.4574   -1449738.00746  -1114088.36945  24436194.9594   24436203.8014
      2583.7244       2013.2854
  23786933.1924    5124425.42148   4351666.48546  23786931.9974   23786939.8724
     -3821.6564      -2977.9134
  21466613.4874   -5821930.69148  -4371028.25646  21466611.9094   21466621.8304
     -1753.6724      -1366.4894
  20659781.6524   -8675339.41849  -6550008.12747  20659780.3314   20659786.2394
     -2842.4854      -2214.9264
  21322227.0204  -11820115.09849  -8826298.44547  21322225.8614   21322230.4664
       367.6824        286.5054
  23361180.7124   -7470180.73448  -5657058.95046  23361181.4754   23361186.2604
      1775.0324       1383.1374
 02  8  5  0 27 30.0010000  0  8G 3G25G31G20G 2G22G 1G13
  22056013.1754   -8815620.18348  -6710541.41546  22056012.1944   22056019.0694
      1188.2064        925.8694
  23481797.4484   16221562.65548  13316434.73846  23481795.5024   23481799.2184
     -3057.6984      -2382.6214
  24421457.4344   -1527214.71247  -1174459.70345  24421456.9274   24421461.6514
      2582.0964       2012.0274
  23808775.8454    5239211.77948   4441110.35046  23808775.0844   23808782.7214
     -3829.9114      -2984.3454
  21476661.0384   -5769154.41649  -4329903.91447  21476660.1684   21476664.6874
     -1763.9374      -1374.5024
  20676051.5814   -8589849.64848  -6483392.67347  20676051.2764   20676054.3314
     -2856.1314      -2225.5534
  21320174.9864  -11830892.56149  -8834696.48447  21320174.3964   21320178.7284
       351.5494        273.9344
  23351077.7514   -7523278.42048  -5698433.70146  23351076.9224   23351081.8304
      1765.5674       1375.7634
 02  8  5  0 28  0.0010000  0  8G 3G25G31G20G 2G22G 1G13
  22049270.8874   -8851046.70548  -6738146.35146  22049270.9344   22049277.5284
      1175.2774        915.8004
  23499270.8914   16313389.26948  13387987.92246  23499269.1974   23499273.1604
     -3062.3604      -2386.2564
  24406722.2994   -1604651.24047  -1234799.66545  24406722.2504   24406724.3764
      2582.0294       2011.9594
  23830661.8524    5354232.64047   4530736.96946  23830662.2064   23830670.9314
     -3836.3794      -2989.3814
  21486755.4274   -5716082.36748  -4288549.02946  21486754.1724   21486764.4944
     -1772.4114      -1381.0934
  20692392.7194   -8503964.13749  -6416468.93547  20692391.4664   20692397.6474
     -2867.8984      -2234.7294
  21318215.9794  -11841196.21349  -8842725.29147  21318215.0074   21318217.5654
       337.0654        262.6464
  23341024.1984   -7576103.32748  -5739595.88446  23341024.3424   23341029.5374
      1757.7934       1369.7054
 02  8  5  0 28 30.0010000  0  8G 3G25G31G20G 2G22G 1G13
  22042604.2154   -8886088.37148  -6765451.51546  22042602.7164   22042610.0114
      1159.2164        903.2904
  23516771.0544   16405351.41948  13459646.72146  23516768.7144   23516772.9844
     -3070.0094      -2392.2154
  24391980.7564   -1682088.95447  -1295140.56745  24391981.6004   24391988.7464
      2578.8044       2009.4564
  23852584.2464    5469440.49348   4620509.29346  23852585.9604   23852594.1374
     -3845.6544      -2996.6134
  21496907.0324   -5662760.43949  -4246999.48447  21496906.0034   21496910.6954
     -1783.9194      -1390.0724
  20708805.8544   -8417729.26148  -6349272.91747  20708804.5284   20708808.4394
     -2882.6514      -2246.2184
  21316337.3084  -11851068.19449  -8850417.70747  21316336.2474   21316339.6814
       319.4764        248.9414
  23331016.6474   -7628697.07248  -5780577.94846  23331017.0774   23331020.7514
      1746.8834       1361.2084
 02  8  5  0 29  0.0010000  0  8G 3G25G31G20G 2G22G 1G13
  22036020.1224   -8920686.50748  -6792411.09446  22036018.8154   22036025.3654
      1148.4254        894.8764
  23534306.1714   16497505.06848  13531454.73846  23534304.8164   23534309.4664
     -3072.4104      -2394.0874
  24377257.1304   -1759468.86747  -1355436.44745  24377252.1514   24377264.9964
      2580.9344       2011.1134
  23874553.8614    5584888.30348   4710468.58046  23874554.9344   23874564.1644
     -3849.6624      -2999.7334
  21507108.2064   -5609133.56548  -4205212.27546  21507106.4624   21507115.7724
     -1790.0454      -1394.8294
  20725288.5534   -8331091.33749  -6281762.84947  20725287.8844   20725294.8924
     -2892.0704      -2253.5644
  21314550.8994  -11860450.24949  -8857728.39047  21314549.8734   21314554.9134
       307.1034        239.3024
  23321064.2984   -7681001.22348  -5821334.32546  23321064.3914   23321066.2634
      1741.1724       1356.7554
 02  8  5  0 29 30.0010000  0  8G 3G25G31G20G 2G22G 1G13
  22029501.7944   -8954934.29648  -6819097.53446  22029501.9594   22029508.1204
      1135.6534        884.9194
  23551858.9924   16589755.62548  13603338.27346  23551858.4804   23551863.6884
     -3076.6614      -2397.3984
  24362517.3724   -1836883.93046  -1415759.73345  24362518.0684   24362530.8144
      2580.9504       2011.1344
  23896550.5764    5700477.09348   4800537.74446  23896550.5154   23896559.9204
     -3855.2734      -3004.1064
  21517355.8924   -5555299.26349  -4163263.45247  21517355.0614   21517359.8624
     -1797.9474      -1401.0034
  20741837.2664   -8244147.88749  -6214014.73547  20741835.6134   20741840.1494
     -2903.2144      -2262.2414
  21312841.4744  -11869435.96549  -8864730.24047  21312840.5714   21312844.7974
       292.8564        228.1994
  23311147.1824   -7733108.56048  -5861937.35946  23311147.7024   23311150.2254
      1733.5814       1350.8374
 02  8  5  0 30  0.0010000  0  8G 3G25G31G20G 2G22G 1G13
  22023055.2834   -8988809.39548  -6845493.58746  22023055.5354   22023062.7714
      1122.6854        874.8164
  23569436.0844   16682122.95248  13675312.80146  23569434.9624   23569440.7084
     -3081.0904      -2400.8474
  24347789.0174   -1914311.79947  -1476093.04545  24347787.0024   24347798.2484
      2580.8224       2011.0324
  23918574.8864    5816223.43048   4890729.66046  23918576.8734   23918585.4804
     -3861.0144      -3008.5774
  21527639.4094   -5501239.10248  -4121138.63146  21527638.2684   21527647.9744
     -1805.9784      -1407.2474
  20758439.4784   -8156882.04149  -6146015.34047  20758439.2294   20758445.9664
     -2914.4824      -2271.0274
  21311211.0344  -11878003.76249  -8871406.40347  21311209.9894   21311213.4244
       278.3674        216.9074
  23301273.3064   -7784996.94148  -5902369.77846  23301272.8174   23301277.2314
      1725.7024       1344.7034
 02  8  5  0 30 30.0010000  0  8G 3G25G31G20G 2G22G 1G13
  22016689.4184   -9022278.25648  -6871573.27646  22016686.6784   22016693.2104
      1108.7154        863.9344
  23587039.6784   16774638.15148  13747402.57146  23587039.4644   23587046.3094
     -3086.4464      -2405.0254
  24333064.2444   -1991718.70847  -1536409.99845  24333062.8074   24333069.5984
      2579.6394       2010.0984
  23940635.3314    5932155.11647   4981066.02146  23940636.8954   23940646.4684
     -3867.6664      -3013.7694
  21537979.1554   -5446923.75049  -4078814.95247  21537978.3324   21537983.1044
     -1814.8744      -1414.1934
  20775116.0294   -8069264.58549  -6077742.06047  20775113.9594   20775118.9874
     -2926.5474      -2280.4234
  21309665.5644  -11886120.43749  -8877731.03647  21309664.4144   21309668.9664
       262.8724        204.8354
  23291446.5424   -7836632.75248  -5942605.38846  23291446.5864   23291452.3364
      1716.7984       1337.7624
 02  8  5  0 31  0.0010000  0  8G 3G25G31G20G 2G22G 1G13
  22010404.6284   -9055296.56548  -6897301.71746  22010403.5694   22010409.2264
      1093.6984        852.2264
  23604680.3494   16867343.52348  13819640.53146  23604679.9724   23604687.6764
     -3092.6874      -2409.8874
  24318346.3434   -2069059.88347  -1596675.71845  24318346.3884   24318349.5694
      2577.5414       2008.4704
  23962739.6264    6048310.88847   5071577.00245  23962741.0314   23962749.8414
     -3874.8904      -3019.3954
  21548368.9634   -5392312.37748  -4036260.63146  21548366.8864   21548375.5364
     -1824.6334      -1421.7864
  20791860.3074   -7981256.13549  -6009163.99647  20791860.0074   20791866.1434
     -2939.4734      -2290.5014
  21308215.6374  -11893742.02349  -8883669.90247  21308214.6544   21308219.3724
       246.4174        192.0134
  23281676.1274   -7887971.31148  -5982609.36546  23281677.2344   23281682.2104
      1706.9484       1330.0864
 02  8  5  0 31 30.0010000  0  8G 3G25G31G20G 2G22G 1G13
  22004204.7064   -9087870.74048  -6922684.03246  22004204.4624   22004211.0724
      1079.3424        841.0424
  23622355.0334   16960230.19148  13892019.74646  23622354.8504   23622362.9734
     -3098.2844      -2414.2474
  24303635.6574   -2146341.70547  -1656895.19345  24303638.8264   24303642.7754
      2576.0524       2007.3094
  23984884.0344    6164678.35347   5162252.93245  23984885.1224   23984893.6854
     -3881.4334      -3024.4924
  21558817.0864   -5337416.05949  -3993484.22847  21558816.5244   21558821.6514
     -1833.6084      -1428.7914
  20808682.2374   -7892867.79549  -5940290.04147  20808680.2604   20808685.9104
     -2951.5854      -2299.9374
  21306858.2764  -11900875.66049  -8889228.54547  21306857.3244   21306861.7864
       230.6514        179.7254
  23271965.5284   -7939019.57148  -6022387.15746  23271965.1134   23271968.7144
      1697.7314       1322.9054
 02  8  5  0 32  0.0010000  0  8G 3G25G31G20G 2G22G 1G13
  21998086.9224   -9120020.00348  -6947735.33346  21998086.8934   21998094.0034
      1063.5424        828.7354
  23640059.8854   17053276.58248  13964523.40546  23640059.6094   23640069.0394
     -3105.1904      -2419.6274
  24288933.2144   -2223583.22847  -1717083.29645  24288935.3224   24288943.1324
      2573.0444       2004.9574
  24007064.1494    6281232.24147   5253074.11945  24007064.4034   24007073.2384
     -3889.1524      -3030.5074
  21569312.2034   -5282257.64148  -3950503.66646  21569310.0544   21569317.8094
     -1843.9214      -1436.8144
  20825568.0584   -7804124.06249  -5871139.00847  20825568.3754   20825573.7284
     -2965.0484      -2310.4274
  21305588.8214  -11907541.26749  -8894422.47247  21305587.9854   21305592.7994
       213.3924        166.2774
  23262301.5684   -7989796.71948  -6061953.67846  23262301.6904   23262304.6484
      1687.0514       1314.5804
 02  8  5  0 32 30.0010000  0  8G 3G25G31G20G 2G22G 1G13
  21992062.7014   -9151686.36548  -6972410.44446  21992060.9204   21992066.2744
      1047.9714        816.6024
  23657807.8644   17146538.68348  14037195.18346  23657807.3784   23657816.8874
     -3111.7974      -2424.7764
  24274251.5164   -2300726.22946  -1777194.66645  24274252.3334   24274263.8034
      2570.2524       2002.8024
  24029289.8874    6398024.89947   5344081.36746  24029290.1284   24029298.2074
     -3896.5464      -3036.2744
  21579869.6064   -5226783.38749  -3907276.90347  21579869.3334   21579874.4464
     -1853.8654      -1444.5754
  20842534.0334   -7714971.39049  -5801669.46247  20842532.2694   20842538.6624
     -2978.0404      -2320.5524
  21304420.8364  -11913681.20049  -8899206.79247  21304419.2064   21304423.9964
       196.3874        153.0294
  23252701.7094   -8040244.72848  -6101263.74846  23252701.6744   23252705.3614
      1676.5814       1306.4244
 02  8  5  0 33  0.0010000  0  8G 3G25G31G20G 2G22G 1G13
  21986112.2314   -9182947.55148  -6996769.67846  21986111.7944   21986118.5184
      1035.2374        806.6744
  23675579.7644   17239936.51848  14109972.71346  23675579.4784   23675589.6474
     -3115.5634      -2427.7134
  24259580.2274   -2377848.00547  -1837289.49245  24259577.8794   24259588.2664
      2570.2684       2002.8024
  24051544.6854    6514972.92647   5435209.66345  24051544.5534   24051552.5234
     -3900.8634      -3039.6344
  21590469.8214   -5171074.50248  -3863867.42147  21590467.6094   21590475.8144
     -1860.8504      -1450.0094
  20859562.5424   -7625492.44049  -5731945.55247  20859562.2834   20859566.1464
     -2988.0794      -2328.3714
  21303337.7544  -11919373.88049  -8903642.59947  21303336.5584   21303341.3064
       182.2554        142.0164
  23243147.8884   -8090441.03848  -6140377.66846  23243148.3784   23243151.7684
      1668.9554       1300.4844
 02  8  5  0 33 30.0010000  0  8G 3G25G31G20G 2G22G 1G13
  21980242.6064   -9213794.15148  -7020805.86646  21980242.7904   21980249.2704
      1020.0154        794.8134
  23693380.2084   17333477.37648  14182861.67046  23693380.0514   23693389.0914
     -3121.6884      -2432.4834
  24244917.3754   -2454938.90147  -1897360.21545  24244914.5094   24244919.5174
      2567.8784       2000.9414
  24073830.8424    6632080.15547   5526462.00646  24073829.9004   24073837.7174
     -3907.4234      -3044.7414
  21601116.8054   -5115125.77249  -3820270.92447  21601116.6624   21601122.3164
     -1870.1944      -1457.2984
  20876651.2304   -7535682.27149  -5661963.65247  20876649.6614   20876656.3234
     -3000.4364      -2338.0044
  21302340.8514  -11924610.29149  -8907722.87147  21302339.2544   21302344.8454
       165.6364        129.0654
  23233644.5394   -8140375.92548  -6179287.88846  23233645.1654   23233650.3974
      1658.8404       1292.6014
 02  8  5  0 34  0.0010000  0  8G 3G25G31G20G 2G22G 1G13
  21974456.7324   -9244188.51648  -7044489.73546  21974456.9624   21974463.6704
      1005.4674        783.4874
  23711213.5364   17427196.50348  14255889.52146  23711213.4924   23711223.2054
     -3127.0274      -2436.6444
  24230259.7454   -2531961.24647  -1957377.47645  24230258.7314   24230263.7794
      2566.1324       1999.5834
  24096153.1254    6749378.29948   5617863.11146  24096151.6134   24096158.5664
     -3913.1784      -3049.2304
  21611815.7184   -5058903.51348  -3776461.43947  21611813.5204   21611820.9384
     -1878.6884      -1463.9094
  20893814.1974   -7445508.47449  -5591698.33647  20893812.8964   20893815.9624
     -3011.9474      -2346.9664
  21301435.7484  -11929353.59948  -8911418.92347  21301434.6074   21301441.5424
       149.7784        116.7084
  23224200.4174   -8190012.11348  -6217965.36746  23224200.3974   23224205.9254
      1649.4464       1285.2794
 02  8  5  0 34 30.0020000  0  8G 3G25G31G20G 2G22G 1G13
  21968766.0274   -9274114.88148  -7067808.97946  21968763.9414   21968768.7204
       990.2814        771.6434
  23729083.3064   17521111.89848  14329070.30646  23729084.7754   23729095.7474
     -3133.0494      -2441.3384
  24215616.7944   -2608899.99747  -2017329.63345  24215615.1294   24215620.7994
      2563.6874       1997.6754
  24118513.2624    6866882.40648   5709424.72946  24118511.2074   24118519.5064
     -3919.4484      -3054.1144
  21622569.5664   -5002392.99349  -3732427.16847  21622569.1824   21622574.5274
     -1887.7554      -1470.9814
  20911041.2114   -7354955.47549  -5521137.57547  20911040.4654   20911047.4504
     -3024.0004      -2356.3664
  21300630.3944  -11933587.31948  -8914717.90247  21300628.6254   21300635.4654
       133.1864        103.7794
  23214815.5434   -8239333.98848  -6256397.93146  23214815.4264   23214820.7134
      1639.3184       1277.3874
 02  8  5  0 35  0.0020000  0  8G 3G25G31G20G 2G22G 1G13
  21963143.7874   -9303644.20648  -7090818.69746  21963143.3274   21963150.4984
       977.2204        761.4684
  23746978.1894   17615141.91748  14402340.44146  23746978.0914   23746988.6164
     -3136.7784      -2444.2414
  24200976.5244   -2685822.93047  -2077269.49245  24200976.0504   24200983.2384
      2563.3664       1997.4164
  24140897.0334    6984506.04048   5801079.45646  24140894.9964   24140902.3844
     -3923.2474      -3057.0724
  21633362.8644   -4945674.63848  -3688231.12347  21633360.5634   21633367.6814
     -1894.5334      -1476.2584
  20928333.8404   -7264107.20149  -5450346.71847  20928332.5664   20928334.9644
     -3033.6984      -2363.9164
  21299908.2594  -11937384.82348  -8917676.95647  21299906.3454   21299913.0504
       118.8314         92.5954
  23205476.5164   -8288411.29248  -6294639.93246  23205476.3184   23205480.9324
      1631.3974       1271.2184
 02  8  5  0 35 30.0020000  0  8G 3G25G31G20G 2G22G 1G13
  21957614.8814   -9332696.22948  -7113456.54146  21957615.0144   21957622.2594
       961.1644        748.9574
  23764908.1684   17709368.89848  14475764.02846  23764908.7784   23764918.7394
     -3143.5204      -2449.4954
  24186353.3394   -2762650.78847  -2137135.25045  24186351.0554   24186362.3534
      2559.9174       1994.7244
  24163318.8214    7102328.77247   5892889.33046  24163316.2974   24163323.5714
     -3930.0264      -3062.3554
  21644209.1414   -4888669.45948  -3643811.40047  21644209.4794   21644215.4794
     -1904.2944      -1483.8684
  20945688.1424   -7172884.07849  -5379263.75247  20945687.5414   20945694.0644
     -3046.3594      -2373.7894
  21299282.8494  -11940665.23548  -8920233.08347  21299281.5464   21299289.3774
       101.3904         79.0064
  23196196.1434   -8337164.21048  -6332629.14846  23196196.8644   23196203.3974
      1620.3384       1262.5984
 02  8  5  0 36  0.0020000  0  8G 3G25G31G20G 2G22G 1G13
  21952172.4344   -9361313.54248  -7135755.72246  21952170.8284   21952175.9784
       947.2214        738.0964
  23782867.8834   17803748.06248  14549306.20046  23782868.3904   23782878.4724
     -3147.9984      -2452.9834
  24171744.8824   -2839426.07747  -2196960.07745  24171742.8264   24171751.0964
      2558.8454       1993.9124
  24185769.3544    7220302.09947   5984816.53545  24185766.8214   24185771.6564
     -3934.3954      -3065.7624
  21655104.5494   -4831423.88548  -3599204.54447  21655102.2514   21655108.7044
     -1911.6194      -1489.5744
  20963114.4164   -7081333.44349  -5307925.62647  20963112.5524   20963115.1914
     -3056.6354      -2381.7904
  21298747.7564  -11943472.11848  -8922420.23747  21298746.1604   21298754.9024
        86.1494         67.1304
  23186973.1204   -8385635.71648  -6370399.09946  23186973.4544   23186979.1634
      1611.4774       1255.6984
 02  8  5  0 36 30.0020000  0  8G 3G25G31G20G 2G22G 1G13
  21946804.9034   -9389506.72048  -7157724.40546  21946803.1224   21946811.7694
       932.6874        726.7664
  23800854.8044   17898267.21748  14622957.46746  23800855.7394   23800865.3524
     -3152.9514      -2456.8464
  24157148.6414   -2916158.85547  -2256751.74645  24157145.6704   24157151.9484
      2557.0644       1992.5094
  24208243.2554    7338409.90347   6076848.54245  24208241.9304   24208248.1884
     -3939.1134      -3069.4404
  21666039.6944   -4773952.45948  -3554421.50847  21666039.7424   21666045.0394
     -1919.4204      -1495.6544
  20980590.7524   -6989470.75049  -5236344.26547  20980590.3584   20980596.3464
     -3067.2494      -2390.0674
  21298300.9984  -11945816.46948  -8924246.98547  21298299.8704   21298308.8284
        70.3934         54.8514
  23177800.8234   -8433835.29748  -6407957.15146  23177801.0324   23177805.8284
      1602.1014       1248.3924
 02  8  5  0 37  0.0020000  0  8G 3G25G31G20G 2G22G 1G13
  21941520.8034   -9417272.19448  -7179359.73246  21941521.0154   21941527.2774
       918.4564        715.6744
  23818867.7984   17992927.51648  14696718.72646  23818868.5334   23818878.7334
     -3157.5674      -2460.4414
  24142556.0554   -2992845.17147  -2316507.21145  24142554.4904   24142559.3494
      2555.5354       1991.3194
  24230743.8934    7456650.26447   6168983.83545  24230742.0314   24230748.8574
     -3943.4354      -3072.8044
  21677019.5454   -4716255.06049  -3509462.58647  21677017.9734   21677024.7594
     -1926.8494      -1501.4424
  20998134.4154   -6897296.79449  -5164520.46347  20998132.5274   20998136.7814
     -3077.5274      -2398.0704
  21297942.3864  -11947695.15948  -8925710.86647  21297942.1084   21297950.9424
        54.9304         42.8014
  23168682.9734   -8481759.74648  -6445300.83546  23168682.3654   23168686.9464
      1592.9624       1241.2684
 02  8  5  0 37 30.0020000  0  8G 3G25G31G20G 2G22G 1G13
  21936313.2364   -9444638.55148  -7200684.01446  21936313.4574   21936318.8544
       903.1774        703.7694
  23836901.8594   18087697.56848  14770565.51346  23836902.9864   23836912.4644
     -3163.1494      -2464.7904
  24127962.0934   -3069513.28047  -2376248.49545  24127963.0004   24127969.0334
      2552.9534       1989.3094
  24253263.6244    7574988.73647   6261195.60645  24253262.2744   24253267.2554
     -3948.4984      -3076.7534
  21688035.2614   -4658364.79248  -3464353.18647  21688034.9984   21688041.0394
     -1935.1854      -1507.9414
  21015724.0004   -6804845.17449  -5092480.18347  21015723.8144   21015729.4164
     -3088.6394      -2406.7344
  21297668.3014  -11949137.64748  -8926834.84847  21297667.4234   21297676.8684
        38.4674         29.9744
  23159610.7494   -8529437.63848  -6482452.38146  23159610.8424   23159614.7844
      1582.8194       1233.3644
 02  8  5  0 38  0.0020000  0  8G 3G25G31G20G 2G22G 1G13
  21931204.4134   -9471493.25448  -7221609.79546  21931202.1774   21931209.8834
       887.1354        691.2774
  23854978.3884   18182688.28748  14844584.22246  23854979.0574   23854989.3434
     -3169.4874      -2469.7314
  24113400.6584   -3146050.26447  -2435887.57745  24113398.0814   24113404.4954
      2549.5314       1986.6384
  24275822.3574    7693532.16647   6353567.08345  24275820.2964   24275825.0644
     -3954.2594      -3081.2384
  21699110.0284   -4600172.61049  -3419008.72747  21699108.4484   21699114.5224
     -1944.1994      -1514.9634
  21033392.4884   -6712007.91349  -5020139.52947  21033390.6814   21033395.7454
     -3100.4234      -2415.9144
  21297497.0444  -11950031.98448  -8927531.71647  21297497.6584   21297506.8764
        21.2114         16.5294
  23150605.3344   -8576756.20248  -6519323.94646  23150605.5714   23150611.1794
      1571.8474       1224.8144
 02  8  5  0 38 30.0020000  0  8G 3G25G31G20G 2G22G 1G13
  21926180.2864   -9497897.65648  -7242184.57846  21926178.9074   21926184.7454
       872.6144        679.9544
  23873084.9604   18277836.37848  14918725.55846  23873085.2254   23873095.5474
     -3174.2344      -2473.4284
  24098839.5474   -3222516.51047  -2495471.59445  24098840.5084   24098851.7254
      2547.6324       1985.1684
  24298406.8734    7812214.27047   6446046.61945  24298404.3674   24298410.0614
     -3958.3394      -3084.4214
  21710227.1044   -4541743.51848  -3373479.46247  21710226.7104   21710232.9574
     -1951.6074      -1520.7324
  21051118.3234   -6618850.65549  -4947549.39847  21051118.1074   21051123.0504
     -3110.5474      -2423.8044
  21297420.8954  -11950439.41048  -8927849.17747  21297421.0364   21297429.2874
         5.4764          4.2684
  23141656.4774   -8623776.12448  -6555962.81146  23141656.7744   23141663.3414
      1562.3394       1217.4054
 02  8  5  0 39  0.0020000  0  8G 3G25G31G20G 2G22G 1G13
  21921241.1634   -9523838.14148  -7262397.78946  21921241.5044   21921247.6514
       857.3404        668.0544
  23891222.5634   18373153.42648  14992998.54746  23891223.5074   23891233.5864
     -3179.6194      -2477.6264
  24084308.8824   -3298898.05147  -2554989.58045  24084308.0624   24084316.3484
      2545.0774       1983.1744
  24321018.2804    7931042.71147   6538640.20446  24321017.1454   24321023.2214
     -3962.9284      -3087.9954
  21721394.3754   -4483067.67349  -3327758.12647  21721392.7884   21721398.8074
     -1959.5254      -1526.9064
  21068908.3124   -6525364.38049  -4874703.02747  21068906.8194   21068913.2344
     -3121.2234      -2432.1224
  21297439.9144  -11950347.08148  -8927777.20047  21297439.7824   21297446.8354
       -11.0054         -8.5774
  23132768.2294   -8670483.75348  -6592358.33746  23132768.4124   23132775.1434
      1552.1084       1209.4344
 02  8  5  0 39 30.0020000  0  8G 3G25G31G20G 2G22G 1G13
  21916388.1484   -9549341.97548  -7282270.81146  21916388.7734   21916395.3594
       842.0244        656.1224
  23909387.4074   18468609.97948  15067380.26746  23909388.2334   23909398.3714
     -3185.0584      -2481.8634
  24069790.6444   -3375221.82347  -2614462.55645  24069788.0674   24069795.6374
      2542.2874       1980.9954
  24343650.9464    8049984.44947   6631322.05045  24343649.2904   24343656.2934
     -3967.3624      -3091.4504
  21732599.3884   -4424176.47648  -3281868.79147  21732599.1364   21732605.6994
     -1967.4294      -1533.0594
  21086756.6794   -6431581.33449  -4801625.27447  21086755.9244   21086759.3984
     -3131.8134      -2440.3724
  21297547.6364  -11949782.89048  -8927337.55147  21297547.8794   21297554.2274
       -27.4914        -21.4224
  23123934.4414   -8716906.07848  -6628531.52746  23123935.1874   23123940.2564
      1541.8484       1201.4414
 02  8  5  0 40  0.0020000  0  8G 3G25G31G20G 2G22G 1G13
  21911641.6784   -9574299.52448  -7301718.26246  21911639.3654   21911645.5404
       822.9994        641.2954
  23927599.1234   18564313.58648  15141954.47246  23927599.2994   23927610.2484
     -3194.0254      -2488.8504
  24055299.8644   -3451377.78647  -2673804.74245  24055297.7584   24055301.7414
      2535.9674       1976.0734
  24366328.1044    8169143.52247   6724173.26045  24366325.7474   24366331.3994
     -3975.3284      -3097.6604
  21743868.9284   -4364963.95149  -3235729.26047  21743867.3484   21743873.0214
     -1978.8634      -1541.9754
  21104676.5534   -6337396.46549  -4728234.53247  21104675.3334   21104682.2804
     -3145.9594      -2451.4004
  21297766.5944  -11948637.83248  -8926445.27047  21297766.2914   21297772.0084
       -47.6274        -37.1134
  23115176.5324   -8762933.51248  -6664397.01346  23115177.4144   23115181.1934
      1527.8714       1190.5444
 02  8  5  0 40 30.0020000  0  8G 3G25G31G20G 2G22G 1G13
  21906984.6144   -9598759.97848  -7320778.25446  21906983.9274   21906990.1664
       808.5284        630.0184
  23945848.1454   18660213.25748  15216681.43546  23945848.8414   23945859.5884
     -3198.4764      -2492.3154
  24040830.5004   -3527414.19547  -2733053.75245  24040829.5634   24040832.2664
      2534.0244       1974.5554
  24389032.0694    8288465.73547   6817151.57245  24389030.7534   24389037.7684
     -3978.5854      -3100.1934
  21755185.4044   -4305482.89248  -3189380.29647  21755185.1964   21755191.8634
     -1985.7114      -1547.3054
  21122669.3484   -6242863.16449  -4654572.18147  21122668.4794   21122671.5294
     -3155.4064      -2458.7544
  21298085.9504  -11946961.23049  -8925138.80447  21298086.1624   21298090.7454
       -63.2884        -49.3164
  23106485.2494   -8808614.17548  -6699992.28046  23106485.1544   23106488.4784
      1518.3604       1183.1344
 02  8  5  0 41  0.0020000  0  8G 3G25G31G20G 2G22G 1G13
  21902411.2644   -9622794.04648  -7339505.93946  21902411.1894   21902416.6214
       793.2164        618.0854
  23964121.4114   18756236.02648  15291504.31546  23964121.7764   23964131.8204
     -3203.5884      -2496.3014
  24026365.2424   -3603401.45947  -2792264.51445  24026365.3364   24026372.6234
      2531.2244       1972.3704
  24411751.4764    8407874.41147   6910197.23945  24411752.2574   24411761.0704
     -3982.4384      -3103.2014
  21766543.5064   -4245807.80949  -3142880.32347  21766542.1354   21766547.2074
     -1993.1654      -1553.1204
  21140706.3584   -6148056.85449  -4580697.17547  21140705.4494   21140712.0444
     -3165.5274      -2466.6484
  21298494.0634  -11944824.54549  -8923473.82847  21298493.7864   21298497.7464
       -79.7074        -62.1104
  23097845.5504   -8854019.29348  -6735372.85146  23097844.6444   23097848.6324
      1508.1054       1175.1464
 02  8  5  0 41 30.0020000  0  8G 3G25G31G20G 2G22G 1G13
  21897923.9764   -9646372.25448  -7357878.50246  21897923.2174   21897931.0534
       777.9614        606.2054
  23982423.0284   18852409.19448  15366444.39946  23982423.0664   23982432.8284
     -3208.6594      -2500.2524
  24011916.0604   -3679309.39347  -2851413.47545  24011916.2594   24011925.3184
      2528.5704       1970.3114
  24434494.2764    8527393.99447   7003329.31645  24434494.9814   24434505.7244
     -3986.1244      -3106.0684
  21777939.3244   -4185912.80748  -3096208.83646  21777938.3824   21777945.2594
     -2000.5074      -1558.8314
  21158809.2234   -6052952.60949  -4506589.94647  21158807.7954   21158810.3724
     -3175.4154      -2474.3464
  21298993.9044  -11942198.84049  -8921427.79847  21298993.6364   21298997.3584
       -96.0334        -74.8334
  23089261.4314   -8899118.66648  -6770515.18246  23089261.9254   23089267.6034
      1497.8444       1167.1494
 02  8  5  0 42  0.0020000  0  8G 3G25G31G20G 2G22G 1G13
  21893531.9194   -9669467.82448  -7375875.09646  21893529.8574   21893534.1624
       761.3354        593.2454
  24000756.4324   18948757.60848  15441521.03946  24000757.6134   24000766.9914
     -3214.9974      -2505.1934
  23997494.0734   -3755110.64247  -2910479.27845  23997493.1634   23997502.1964
      2524.4984       1967.1374
  24457261.6744    8647045.36747   7096564.09345  24457263.7974   24457273.3344
     -3990.9884      -3109.8624
  21789384.9074   -4125775.08449  -3049348.32747  21789383.7074   21789389.1954
     -2009.0494      -1565.4974
  21176962.5584   -5957528.20949  -4432233.28747  21176961.8674   21176968.8944
     -3186.5854      -2483.0564
  21299591.5514  -11939057.85549  -8918980.25447  21299591.0604   21299594.9814
      -113.7624        -88.6474
  23080743.8714   -8943885.62948  -6805398.49846  23080743.3294   23080748.2914
      1486.2254       1158.0954
 02  8  5  0 42 30.0020000  0  8G 3G25G31G20G 2G22G 1G13
  21889221.7374   -9692102.68848  -7393512.47546  21889221.5664   21889227.4954
       747.2704        582.2834
  24019120.2904   19045257.85148  15516716.00246  24019120.3124   24019131.4664
     -3218.7064      -2508.0804
  23983088.9774   -3830826.29947  -2969478.45345  23983088.1024   23983094.2784
      2522.9554       1965.9324
  24480051.9094    8766801.71047   7189880.65145  24480053.1674   24480062.0574
     -3993.0364      -3111.4574
  21800868.9694   -4065419.92148  -3002318.29747  21800867.8484   21800874.3204
     -2014.9294      -1570.0684
  21195182.7104   -5861809.68449  -4357647.43047  21195181.0784   21195184.1644
     -3195.0104      -2489.6154
  21300283.3164  -11935424.07449  -8916148.71747  21300282.6354   21300286.4154
      -128.8584       -100.4094
  23072285.2804   -8988340.58648  -6840038.69646  23072285.0744   23072288.7014
      1477.1164       1150.9984
 02  8  5  0 43  0.0020000  0  8G 3G25G31G20G 2G22G 1G13
  21884995.4084   -9714303.57448  -7410811.74946  21884996.0934   21885003.1374
       731.8054        570.2354
  24037507.9524   19141881.13948  15592006.81146  24037508.4134   24037517.8204
     -3223.7874      -2512.0424
  23968695.5564   -3906482.59147  -3028431.28045  23968693.9734   23968697.2574
      2519.8894       1963.5494
  24502856.9414    8886630.53147   7283253.68945  24502856.1914   24502864.8534
     -3996.4754      -3114.1344
  21812390.7954   -4004878.08849  -2955142.86147  21812389.6594   21812395.1184
     -2022.0874      -1575.6564
  21213441.6694   -5765828.66049  -4282857.01747  21213440.9304   21213448.1774
     -3204.6714      -2497.1504
  21301063.9514  -11931324.69049  -8912954.37547  21301062.9464   21301066.1034
      -145.3914       -113.2934
  23063880.5724   -9032510.74048  -6874456.94946  23063880.7114   23063881.7294
      1466.6084       1142.8094
 02  8  5  0 43 30.0020000  0  8G 3G25G31G20G 2G22G 1G13
  21880869.1604   -9736013.71548  -7427728.73946  21880867.4064   21880871.8254
       715.0584        557.1894
  24055929.5594   19238681.84948  15667435.90146  24055929.5354   24055938.7614
     -3230.0364      -2516.9114
  23954318.8794   -3982022.35947  -3087293.32345  23954317.9944   23954324.1464
      2515.6024       1960.2044
  24525684.9504    9006583.03247   7376723.08845  24525682.7754   24525690.4904
     -4000.8804      -3117.5654
  21823956.3604   -3944096.49948  -2907780.58747  21823954.7904   21823961.5494
     -2030.4034      -1582.1254
  21231771.3404   -5669532.79549  -4207821.30347  21231769.5184   21231772.6254
     -3215.5154      -2505.5934
  21301944.0724  -11926703.64749  -8909353.54447  21301942.8584   21301945.7194
      -163.1384       -127.1224
  23055539.7384   -9076339.38948  -6908609.09446  23055539.5044   23055541.1444
      1454.8354       1133.6354
 02  8  5  0 44  0.0020000  0  8G 3G25G31G20G 2G22G 1G13
  21876832.2234   -9757211.24948  -7444246.23646  21876830.7154   21876837.6274
       698.2624        544.0954
  24074386.1944   19335680.10048  15743018.92746  24074386.6384   24074396.9334
     -3236.3474      -2521.8294
  23939968.4354   -4057422.99347  -3146047.00045  23939967.4814   23939972.1524
      2511.2334       1956.8124
  24548541.7464    9126675.68447   7470301.69545  24548538.3214   24548544.0714
     -4005.1434      -3120.8884
  21835571.8684   -3883057.05449  -2860217.36347  21835571.0954   21835576.9374
     -2038.6824      -1588.5884
  21250153.9634   -5572904.96249  -4132526.85247  21250153.2564   21250160.1344
     -3226.2024      -2513.9264
  21302926.5594  -11921539.69849  -8905329.66647  21302925.4704   21302928.1134
      -180.9484       -140.9984
  23047268.1514   -9119804.19348  -6942477.72446  23047268.0784   23047270.0014
      1443.0004       1124.4154
 02  8  5  0 44 30.0020000  0  8G 3G25G31G20G 2G22G 1G13
  21872886.1284   -9777943.67748  -7460401.25947  21872886.4334   21872893.3274
       682.8784        532.1104
  24092872.1884   19432826.17648  15818717.12546  24092872.8564   24092882.9544
     -3241.0524      -2525.4954
  23925633.6764   -4132730.91447  -3204728.40545  23925634.2984   23925642.9344
      2508.2894       1954.5084
  24571411.3304    9246855.91547   7563948.57345  24571407.8564   24571413.4324
     -4007.8314      -3122.9804
  21847226.7044   -3821810.13048  -2812492.51647  21847224.9044   21847231.6394
     -2045.3994      -1593.8114
  21268599.1304   -5475996.46249  -4057013.78947  21268597.5114   21268601.4834
     -3235.3494      -2521.0484
  21304002.6184  -11915880.53149  -8900919.90947  21304001.4484   21304004.7404
      -197.3274       -153.7614
  23039057.0424   -9162951.91748  -6976099.29046  23039056.7914   23039060.2914
      1432.5454       1116.2674
 02  8  5  0 45  0.0020000  0  8G 3G25G31G20G 2G22G 1G13
  21869036.6534   -9798172.16948  -7476163.61846  21869037.5044   21869043.1184
       664.4524        517.7514
  24111395.2904   19530157.45748  15894559.64646  24111394.5944   24111404.6554
     -3248.8614      -2531.5784
  23911329.7294   -4207906.49247  -3263306.73245  23911327.1864   23911338.3594
      2502.2114       1949.7754
  24594305.3334    9367157.18647   7657689.79045  24594301.7464   24594306.0154
     -4013.4074      -3127.3244
  21858926.8284   -3760320.66749  -2764578.59347  21858926.7524   21858932.6104
     -2055.0444      -1601.3384
  21287096.1494   -5378773.01649  -3981255.20947  21287095.8544   21287102.6394
     -3247.4014      -2530.4444
  21305180.6094  -11909687.82249  -8896094.40547  21305179.0024   21305183.6384
      -216.7374       -168.8864
  23030913.8534   -9205742.92648  -7009442.88746  23030913.9764   23030918.0014
      1419.0084       1105.7194
 02  8  5  0 45 30.0020000  0  8G 3G25G31G20G 2G22G 1G13
  21865293.4984   -9817857.50648  -7491502.88346  21865291.5024   21865297.0444
       649.5424        506.1384
  24129959.0564   19627710.99848  15970575.35446  24129959.5864   24129968.5574
     -3253.0724      -2534.8614
  23897060.4224   -4282910.20747  -3321751.10745  23897057.8964   23897065.3234
      2499.6574       1947.7834
  24617225.8704    9487613.23447   7751551.59145  24617224.0234   24617228.1904
     -4015.3184      -3128.8174
  21870682.5324   -3698553.33148  -2716448.25147  21870680.2824   21870686.6874
     -2061.0734      -1606.0274
  21305667.7344   -5281199.92949  -3905224.29847  21305665.4004   21305669.9744
     -3255.8244      -2537.0054
  21306467.9374  -11902923.23748  -8890823.28047  21306465.7504   21306470.3924
      -232.5734       -181.2274
  23022848.2194   -9248138.19648  -7042478.12146  23022847.3774   23022850.1294
      1408.9804       1097.9054
 02  8  5  0 46  0.0020000  0  8G 3G25G31G20G 2G22G 1G13
  21861628.6654   -9837107.27948  -7506502.59847  21861627.9634   21861633.6774
       634.1104        494.1074
  24148545.9284   19725377.61148  16046679.18446  24148545.3314   24148553.9964
     -3257.6744      -2538.4464
  23882799.1954   -4357848.59747  -3380144.57945  23882798.6294   23882806.1394
      2496.5244       1945.3404
  24640156.1784    9608111.23547   7845446.10945  24640153.6484   24640158.4634
     -4017.5614      -3130.5634
  21882466.6274   -3636619.26549  -2668187.85647  21882466.5254   21882472.3414
     -2067.5254      -1611.0634
  21324276.5204   -5183389.07349  -3829007.98847  21324276.6774   21324283.0664
     -3264.6134      -2543.8564
  21307841.8254  -11895694.50448  -8885190.47947  21307839.8784   21307846.2104
      -248.9624       -193.9974
  23014835.0954   -9290244.34848  -7075288.04946  23014834.2524   23014837.5534
      1398.4244       1089.6784
 02  8  5  0 46 30.0020000  0  8G 3G25G31G20G 2G22G 1G13
  21858066.6354   -9855815.99948  -7521080.69847  21858067.0944   21858073.9914
       615.6864        479.7524
  24167171.5294   19823260.50848  16122951.53246  24167171.6994   24167180.4604
     -3265.2244      -2544.3304
  23868574.4334   -4432615.52747  -3438404.44545  23868573.5854   23868576.8734
      2490.4664       1940.6214
  24663113.1244    9728751.41747   7939451.38645  24663110.2234   24663116.1124
     -4022.5694      -3134.4654
  21894304.6114   -3574416.50948  -2619718.25047  21894302.5934   21894308.8704
     -2076.7554      -1618.2474
  21342956.7084   -5085239.33749  -3752527.74547  21342954.5704   21342960.3784
     -3276.1564      -2552.8494
  21309323.8624  -11887896.87248  -8879114.37247  21309322.3054   21309330.3074
      -268.2674       -209.0404
  23006896.3964   -9331955.94048  -7107790.52646  23006895.3004   23006899.2824
      1384.9214       1079.1554
 02  8  5  0 47  0.0020000  0  8G 3G25G31G20G 2G22G 1G13
  21854599.6884   -9874047.18548  -7535286.78846  21854599.7034   21854604.0194
       599.6724        467.2764
  24185829.1884   19921294.46647  16199341.59546  24185827.8714   24185835.7324
     -3270.3544      -2548.3274
  23854363.2394   -4507273.78047  -3496579.60945  23854363.4644   23854370.2614
      2486.7014       1937.6874
  24686080.0594    9849464.81547   8033513.72045  24686079.3954   24686086.8374
     -4025.0374      -3136.3934
  21906178.4204   -3512012.40349  -2571091.57347  21906178.0544   21906183.6264
     -2083.5444      -1623.5454
  21361683.4794   -4986818.78249  -3675836.34447  21361683.5254   21361688.9934
     -3285.2424      -2559.9304
  21310902.1464  -11879594.42848  -8872644.90347  21310900.8744   21310909.8764
      -285.2344       -222.2624
  22999019.9914   -9373336.08548  -7140034.74346  22999019.5934   22999024.6834
      1373.7304       1070.4364
 02  8  5  0 47 30.0020000  0  8G 3G25G31G20G 2G22G 1G13
  21851222.5084   -9891798.07348  -7549118.61446  21851220.6784   21851226.0474
       583.3684        454.5704
  24204515.4504   20019480.19147  16275849.92546  24204514.4244   24204519.8174
     -3275.6834      -2552.4824
  23840174.3864   -4581819.41447  -3554667.06145  23840173.8594   23840183.3484
      2482.6684       1934.5434
  24709063.2374    9970249.42847   8127631.55845  24709062.8244   24709072.9074
     -4027.6004      -3138.3884
  21918093.0224   -3449407.00348  -2522308.22547  21918091.0934   21918097.0734
     -2090.4884      -1628.9524
  21380464.5244   -4888128.48149  -3598934.87047  21380462.9034   21380469.0984
     -3294.4604      -2567.1124
  21312577.3054  -11870784.82648  -8865780.24747  21312577.2484   21312586.5984
      -302.4794       -235.6984
  22991210.7114   -9414380.83548  -7172017.61046  22991209.5444   22991214.1904
      1362.2434       1061.4854
 02  8  5  0 48  0.0020000  0  8G 3G25G31G20G 2G22G 1G13
  21847942.6314   -9909020.97748  -7562538.96547  21847941.9794   21847949.2724
       566.8524        441.6994
  24223237.5564   20117863.80747  16352512.44246  24223235.4844   24223242.0444
     -3281.1844      -2556.7654
  23826018.3724   -4656203.95347  -3612628.97045  23826018.4034   23826029.4284
      2478.3774       1931.1984
  24732065.5364   10091147.52247   8221837.80645  24732067.4474   24732076.4714
     -4030.1844      -3140.4054
  21930052.4774   -3386556.25548  -2473333.50247  21930052.2154   21930057.2704
     -2097.5194      -1634.4324
  21399304.1514   -4789125.15049  -3521789.35647  21399303.8834   21399308.6714
     -3303.7334      -2574.3374
  21314359.5754  -11861420.72148  -8858483.51947  21314359.8574   21314367.9674
      -319.8314       -249.2214
  22983472.7804   -9455042.36248  -7203701.84746  22983471.9044   22983476.9254
      1350.5454       1052.3694
 02  8  5  0 48 30.0020000  0  8G 3G25G31G20G 2G22G 1G13
  21844746.8034   -9925819.98248  -7575628.99746  21844746.6964   21844751.6984
       552.4154        430.4504
  24241977.4264   20216339.41847  16429246.62446  24241976.5854   24241981.0174
     -3284.5314      -2559.3724
  23811880.4854   -4730530.59547  -3670545.78845  23811878.1064   23811887.0034
      2476.0954       1929.4234
  24755072.3014   10212049.63647   8316047.18745  24755074.5814   24755085.1244
     -4030.5234      -3140.6674
  21942039.9274   -3323567.67349  -2424251.57447  21942038.0944   21942043.7424
     -2102.3304      -1638.1814
  21418182.5674   -4689917.13149  -3444484.47647  21418180.6674   21418187.5784
     -3310.7794      -2579.8294
  21316229.3574  -11851606.89748  -8850836.35647  21316229.4454   21316235.8634
      -335.1134       -261.1274
  22975789.1164   -9495424.25048  -7235168.17546  22975787.3174   22975793.5994
      1340.9234       1044.8734
 02  8  5  0 49  0.0020000  0  8G 3G25G31G20G 2G22G 1G13
  21841639.7794   -9942155.25048  -7588357.75346  21841638.6044   21841643.7284
       535.4984        417.2724
  24260742.9074   20314945.02147  16506082.13445  24260740.6614   24260744.5224
     -3290.3004      -2563.8654
  23797756.8614   -4804758.82147  -3728385.87545  23797756.6774   23797759.5434
      2471.3464       1925.7184
  24778090.9524   10332990.53847   8410286.79245  24778089.2734   24778098.4994
     -4033.1844      -3142.7394
  21954057.8634   -3260405.25648  -2375033.99047  21954057.6764   21954063.1984
     -2109.5294      -1643.7904
  21437107.9744   -4590469.00849  -3366992.37947  21437107.9224   21437111.6094
     -3320.1924      -2587.1614
  21318192.1154  -11841304.02948  -8842808.13247  21318191.7564   21318196.6364
      -352.8464       -274.9444
  22968162.8114   -9535486.05748  -7266385.09846  22968162.2374   22968170.2604
      1328.7814       1035.4134
 02  8  5  0 49 30.0020000  0  8G 3G25G31G20G 2G22G 1G13
  21838634.1704   -9957940.58948  -7600658.01547  21838633.3984   21838639.6364
       518.3044        403.8714
  24279549.2594   20413764.90147  16583084.59745  24279546.6984   24279549.6694
     -3296.2414      -2568.5004
  23783665.1834   -4878801.60347  -3786081.43045  23783665.5404   23783671.3424
      2466.3214       1921.8064
  24801130.1874   10454051.14547   8504619.68345  24801126.6404   24801135.9434
     -4036.0284      -3144.9554
  21966126.8584   -3196986.15649  -2325616.59247  21966125.3784   21966131.1904
     -2116.8814      -1649.5224
  21456091.8124   -4490698.83949  -3289249.44447  21456090.1844   21456097.2304
     -3329.7034      -2594.5764
  21320262.9004  -11830426.61449  -8834332.21847  21320262.8004   21320266.5964
      -370.8414       -288.9674
  22960615.2874   -9575141.58348  -7297285.45546  22960614.8584   22960623.5564
      1316.3864       1025.7544
 02  8  5  0 50  0.0020000  0  8G 3G25G31G20G 2G22G 1G13
  21835723.4884   -9973231.44048  -7612572.83347  21835723.7914   21835729.6244
       501.4974        390.7734
  24298383.5924   20512742.16747  16660209.68745  24298381.2864   24298383.9394
     -3301.8414      -2572.8594
  23769601.9684   -4952713.01547  -3843674.64445  23769600.3844   23769603.9964
      2461.4934       1918.0444
  24824180.3364   10575171.27647   8598998.96445  24824177.7734   24824183.9994
     -4038.2204      -3146.6674
  21978232.4434   -3133368.95548  -2276044.64747  21978231.9464   21978237.3964
     -2123.7934      -1654.9004
  21475129.7304   -4390665.97248  -3211301.69747  21475129.4254   21475133.0524
     -3338.7254      -2601.6014
  21322432.3394  -11819030.40949  -8825452.05247  21322431.8874   21322434.6714
      -388.4764       -302.7084
  22953135.0914   -9614445.26048  -7327911.63046  22953135.1654   22953143.4234
      1304.2744       1016.3164
 02  8  5  0 50 30.0020000  0  8G 3G25G31G20G 2G22G 1G13
  21832908.5504   -9988020.29348  -7624096.53246  21832909.1514   21832915.6234
       484.9734        377.9024
  24317247.8104   20611882.11647  16737461.54245  24317246.5964   24317250.4574
     -3306.9884      -2576.8754
  23755556.9974   -5026484.83347  -3901159.12845  23755556.8244   23755567.8024
      2457.1194       1914.6464
  24847241.5844   10696353.37847   8693426.54345  24847238.6594   24847244.6204
     -4039.9624      -3148.0144
  21990377.4144   -3069549.61049  -2226315.35947  21990375.9964   21990381.6574
     -2130.2254      -1659.9204
  21494213.1974   -4290366.99849  -3133146.69847  21494211.6424   21494218.9784
     -3347.3294      -2608.3104
  21324701.1584  -11807108.46049  -8816162.21447  21324700.8114   21324703.4704
      -405.7634       -316.1794
  22945724.8964   -9653388.37048  -7358256.85046  22945724.5864   22945731.4424
      1292.5104       1007.1474
 02  8  5  0 51  0.0020000  0  8G 3G25G31G20G 2G22G 1G13
  21830206.7204  -10002240.48648  -7635177.25746  21830205.1534   21830209.2454
       464.7674        362.1554
  24336155.7704   20711249.64647  16814890.75245  24336154.7744   24336159.8494
     -3315.8424      -2583.7694
  23741561.3414   -5100049.46447  -3958482.19745  23741559.2154   23741569.0784
      2448.8604       1908.2014
  24870325.4124   10817658.32847   8787949.84645  24870323.1464   24870328.6434
     -4045.2774      -3152.1594
  22002571.8194   -3005464.92148  -2176379.16347  22002571.1754   22002576.8174
     -2140.3294      -1667.7834
  21513365.3374   -4189739.89148  -3054735.91447  21513364.7724   21513368.2114
     -3359.4374      -2617.7424
  21327082.2364  -11794594.83449  -8806411.33147  21327081.7424   21327084.7484
      -426.7594       -332.5394
  22938395.5724   -9691904.45148  -7388269.30346  22938395.7334   22938402.2914
      1276.9574        995.0314
 02  8  5  0 51 30.0020000  0  8G 3G25G31G20G 2G22G 1G13
  21827589.1744  -10015978.08048  -7645881.78347  21827588.5594   21827595.1694
       449.9654        350.6184
  24355088.8714   20810757.43247  16892429.25245  24355088.8604   24355094.4954
     -3319.2524      -2586.4254
  23727587.1144   -5173491.62947  -4015709.74745  23727585.2524   23727593.3374
      2446.0384       1905.9974
  24893415.1784   10938995.77747   8882498.47745  24893412.5814   24893418.1414
     -4044.9844      -3151.9334
  22014799.7734   -2941204.08349  -2126305.81847  22014798.7344   22014805.2024
     -2144.8464      -1671.3144
  21532555.9364   -4088874.42049  -2976139.47947  21532554.2554   21532561.8544
     -3366.0254      -2622.8804
  21329560.0564  -11781575.71749  -8796266.55647  21329559.2424   21329562.1834
      -442.3094       -344.6564
  22931131.1774   -9730078.60748  -7418015.33046  22931131.9154   22931138.6074
      1266.8374        987.1414
 02  8  5  0 52  0.0020000  0  8G 3G25G31G20G 2G22G 1G13
  21825074.2384  -10029192.91948  -7656178.96247  21825074.4134   21825080.0314
       431.7074        336.3944
  24374055.5594   20910443.88047  16970106.94345  24374058.1564   24374064.9024
     -3325.9444      -2591.6474
  23713647.3444   -5246770.37347  -4072809.96646  23713645.2934   23713647.9604
      2439.8264       1901.1594
  24916516.2274   11060400.58147   8977099.58445  24916514.8224   24916520.2774
     -4047.9744      -3154.2644
  22027069.0964   -2876730.34648  -2076066.52047  22027067.9604   22027074.3514
     -2152.6784      -1677.4034
  21551806.6334   -3987734.42948  -2897329.05447  21551805.4934   21551808.5504
     -3375.9454      -2630.6044
  21332140.5024  -11768011.61249  -8785697.10647  21332139.6894   21332142.8764
      -461.2824       -359.4414
  22923941.8454   -9767870.30348  -7447463.34346  22923941.6274   22923948.2074
      1253.2614        976.5654
 02  8  5  0 52 30.0020000  0  8G 3G25G31G20G 2G22G 1G13
  21822652.8564  -10041931.24748  -7666104.88946  21822652.1774   21822656.4044
       414.9724        323.3564
  24393050.6084   21010260.56947  17047886.12745  24393051.5554   24393060.2074
     -3331.0954      -2595.6604
  23699722.8344   -5319931.01347  -4129818.11245  23699722.0824   23699724.3204
      2434.9894       1897.3934
  24939619.4544   11181821.31347   9071713.09845  24939617.9044   24939626.1294
     -4049.3014      -3155.2954
  22039368.7354   -2812093.49849  -2025700.14047  22039367.7614   22039373.9974
     -2158.9414      -1682.2964
  21571090.4674   -3886370.56549  -2818344.25447  21571089.2944   21571097.2744
     -3384.1864      -2637.0314
  21334816.1494  -11753949.34549  -8774739.47247  21334814.3304   21334819.0004
      -478.7644       -373.0634
  22916814.2324   -9805325.32848  -7476649.03446  22916814.2434   22916821.0474
      1241.1994        967.1664
 02  8  5  0 53  0.0020000  0  8G 3G25G31G20G 2G22G 1G13
  21820327.6404  -10054136.17148  -7675615.25146  21820327.0194   21820334.0894
       397.9394        310.0814
  24412078.2374   21110262.61447  17125809.76145  24412080.0974   24412089.8724
     -3336.5094      -2599.8754
  23685831.3894   -5392915.70247  -4186689.20245  23685830.8624   23685837.7244
      2429.8614       1893.3994
  24962734.0124   11303309.64047   9166379.27545  24962735.0164   24962744.0564
     -4050.6684      -3156.3604
  22051711.2254   -2747239.77248  -1975164.77847  22051709.4244   22051715.4934
     -2165.3794      -1687.3014
  21590437.7994   -3784730.07948  -2739143.85247  21590436.4194   21590438.7594
     -3392.5994      -2643.5814
  21337595.4734  -11739332.64448  -8763349.80747  21337593.9434   21337600.3434
      -496.4614       -386.8544
  22909761.3374   -9842386.06348  -7505527.49446  22909762.5264   22909767.7474
      1228.7544        957.4694
 02  8  5  0 53 30.0020000  0  8G 3G25G31G20G 2G22G 1G13
  21818100.1754  -10065842.50148  -7684736.96847  21818099.9634   21818106.0234
       382.1684        297.7884
  24431136.1594   21210413.90947  17203849.68645  24431137.0244   24431147.2044
     -3340.6034      -2603.0594
  23671965.1124   -5465757.89847  -4243449.23345  23671964.7224   23671976.9234
      2425.8924       1890.3074
  24985855.4704   11424826.27647   9261067.50045  24985858.2124   24985868.5814
     -4050.6904      -3156.3814
  22064084.6944   -2682207.40249  -1924490.16147  22064084.0214   22064090.4124
     -2170.4084      -1691.2314
  21609818.6534   -3682851.70949  -2659758.12847  21609817.7904   21609825.3234
     -3399.5864      -2649.0314
  21340473.1484  -11724196.64548  -8751555.47847  21340471.9824   21340480.4204
      -512.9024       -399.6664
  22902780.5034   -9879086.36048  -7534125.09146  22902780.9084   22902784.1024
      1217.6074        948.7834
 02  8  5  0 54  0.0020000  0  8G 3G25G31G20G 2G22G 1G13
  21815967.4214  -10077050.66748  -7693470.47746  21815967.6424   21815973.0124
       362.7134        282.6294
  24450221.9564   21310712.62247  17282004.47145  24450222.9444   24450233.1354
     -3348.3034      -2609.0624
  23658131.7794   -5538456.87847  -4300097.74445  23658131.5514   23658141.6724
      2418.2924       1884.3844
  25008988.8364   11546365.92547   9355773.64545  25008988.3864   25008997.7304
     -4054.2164      -3159.1274
  22076495.2624   -2616999.44448  -1873678.82747  22076493.1804   22076499.1584
     -2179.0494      -1697.9564
  21629255.8534   -3580739.46748  -2580190.13947  21629254.4394   21629256.9344
     -3410.2134      -2657.3044
  21343449.9984  -11708542.25448  -8739357.20146  21343450.2564   21343459.5784
      -533.0044       -415.3294
  22895867.7504   -9915425.77748  -7562441.47746  22895867.3204   22895867.5524
      1202.7274        937.1884
 02  8  5  0 54 30.0020000  0  8G 3G25G31G20G 2G22G 1G13
  21813949.2914  -10087668.49148  -7701744.13146  21813947.8004   21813952.5724
       343.8404        267.9294
  24469355.2084   21411248.84647  17360344.31945  24469355.1874   24469365.6964
     -3355.3834      -2614.5824
  23644348.4404   -5610919.46247  -4356562.00045  23644346.3454   23644351.6834
      2411.2424       1878.8844
  25032142.3054   11668015.73447   9450565.64745  25032139.9854   25032145.9114
     -4057.0284      -3161.3204
  22088952.2624   -2551527.48549  -1822661.63847  22088951.7764   22088958.1354
     -2186.9994      -1704.1584
  21648742.4754   -3478305.53349  -2500371.50247  21648741.4344   21648749.4184
     -3420.0254      -2664.9584
  21346546.1724  -11692277.95648  -8726683.67446  21346546.2964   21346554.6964
      -552.5514       -430.5614
  22889039.1384   -9951311.81248  -7590404.57846  22889038.4124   22889038.6674
      1188.4004        926.0244
 02  8  5  0 55  0.0020000  0  9G 3G25G31G20G 2G27G22G 1G13
  21812023.7684  -10097776.99248  -7709620.83947  21812023.4524   21812028.5534
       329.1784        256.5004
  24488516.1544   21511940.12047  17438804.99646  24488517.2044   24488526.5664
     -3358.2274      -2616.7944
  23630590.2854   -5683225.40747  -4412904.17546  23630589.3024   23630590.6694
      2408.2654       1876.5634
  25055297.5784   11789689.78947   9545376.57145  25055293.4694   25055299.8654
     -4055.4524      -3160.0924
  22101447.1434   -2485875.39648  -1771504.24647  22101445.0814   22101451.5044
     -2190.6354      -1706.9864
  25951015.5654    -214314.83056    -67297.26344  25951014.7404   25951026.7224
      1318.1444       1027.1154
  21668286.4494   -3375634.71748  -2420368.25847  21668284.6274   21668287.3244
     -3425.5334      -2669.2434
  21349743.6214  -11675485.21048  -8713598.38347  21349744.1554   21349750.5174
      -567.8664       -442.4944
  22882279.5414   -9986824.82148  -7618077.01446  22882279.2364   22882281.6274
      1178.2524        918.1174
 02  8  5  0 55 30.0030000  0  9G 3G25G31G20G 2G27G22G 1G13
  21810191.9834  -10107394.18248  -7717114.65147  21810192.1124   21810199.0144
       311.1684        242.4644
  24507705.9384   21612770.74647  17517374.26846  24507704.8174   24507714.4954
     -3364.3254      -2621.5544
  23616854.9054   -5755393.46947  -4469138.87846  23616855.1814   23616858.9784
      2401.9784       1871.6644
  25078451.2424   11911369.81347   9640192.13845  25078449.1784   25078454.6884
     -4057.0134      -3161.3104
  22113969.2744   -2420062.00149  -1720220.98247  22113969.2724   22113974.8794
     -2197.5174      -1712.3534
  25943484.0434    -253906.57546    -98147.94144  25943485.2314   25943492.1504
      1320.4734       1028.9364
  21687859.6554   -3272745.15549  -2340194.58047  21687858.3924   21687866.3044
     -3434.2794      -2676.0664
  21353038.1974  -11658181.44948  -8700114.90847  21353038.2874   21353042.8774
      -586.4594       -456.9834
  22875588.8254  -10021982.32148  -7645472.44446  22875587.9884   22875591.8004
      1164.7494        907.5954
 02  8  5  0 56  0.0030000  0  9G 3G25G31G20G 2G27G22G 1G13
  21808471.5774  -10116441.76748  -7724164.68846  21808472.0454   21808477.4524
       293.2574        228.5144
  24526933.5134   21713809.42347  17596105.66345  24526932.9794   24526940.7124
     -3370.3734      -2626.2634
  23603161.5394   -5827340.29647  -4525201.21946  23603161.3874   23603169.1754
      2395.6884       1866.7674
  25101622.5014   12033120.09047   9735062.47845  25101618.4834   25101623.7724
     -4058.3794      -3162.3784
  22126538.4794   -2354017.23549  -1668757.61547  22126536.7124   22126542.7934
     -2204.1854      -1717.5484
  25935948.6124    -293536.39746   -129028.16744  25935946.3004   25935950.1594
      1322.7634       1030.7244
  21707499.1324   -3169570.06648  -2259798.40147  21707497.4884   21707500.0514
     -3442.7904      -2682.6904
  21356443.9284  -11640291.07349  -8686174.33347  21356443.8494   21356447.2704
      -604.9944       -471.4254
  22868980.4664  -10056704.35248  -7672528.52646  22868979.6004   22868985.0454
      1151.2924        897.1104
 02  8  5  0 56 30.0030000  0  9G 3G25G31G20G 2G27G22G 1G13
  21806855.8094  -10124945.82548  -7730791.25446  21806854.0224   21806859.0014
       274.1364        213.6114
  24546197.9284   21815032.49147  17674980.73645  24546197.4974   24546203.2474
     -3377.4164      -2631.7484
  23589503.2104   -5899092.73547  -4581112.14545  23589504.1764   23589514.6094
      2388.2254       1860.9554
  25124795.0784   12154914.60747   9829967.24645  25124793.0794   25124800.4434
     -4060.7684      -3164.2364
  22139143.8024   -2287767.74848  -1617134.54347  22139143.8944   22139149.9224
     -2211.9624      -1723.6074
  25928386.2974    -333232.91046   -159960.36544  25928386.0754   25928393.7354
      1324.0234       1031.7014
  21727175.6904   -3066135.77049  -2179200.24947  21727175.1274   21727182.4194
     -3452.3704      -2690.1614
  21359956.5984  -11621839.77449  -8671796.69147  21359955.9884   21359958.7494
      -624.6364       -486.7304
  22862450.3954  -10091016.70548  -7699265.37046  22862449.3214   22862455.0434
      1136.6404        885.6924
 02  8  5  0 57  0.0030000  0  9G 3G25G31G20G 2G27G22G 1G13
  21805341.7684  -10132886.06148  -7736978.41147  21805341.4444   21805347.6974
       253.1254        197.2394
  24565501.1954   21916459.17547  17754014.46445  24565498.8454   24565503.0934
     -3386.3744      -2638.7294
  23575895.2934   -5970628.90947  -4636854.54445  23575893.5894   23575901.6694
      2378.7404       1853.5654
  25147978.6724   12276768.75047   9924918.48945  25147978.7754   25147987.4824
     -4064.8864      -3167.4414
  22151795.0584   -2221295.83649  -1565338.33047  22151792.8164   22151799.1354
     -2221.5374      -1731.0694
  25920825.1644    -372977.10046   -190929.79644  25920823.2824   25920831.6034
      1323.4774       1031.2844
  21746917.5434   -2962425.29848  -2098386.89147  21746915.8294   21746918.4534
     -3463.7004      -2698.9834
  21363578.0354  -11602807.47449  -8656966.32447  21363577.5904   21363580.5154
      -646.2324       -503.5574
  22856002.7214  -10124898.18148  -7725666.45846  22856001.0374   22856006.9534
      1120.0554        872.7694
 02  8  5  0 57 30.0030000  0  9G 3G25G31G20G 2G27G22G 1G13
  21803938.8224  -10140259.54848  -7742723.89147  21803938.8534   21803944.4714
       236.0024        183.8934
  24584842.0984   22018090.41347  17833207.59445  24584839.7604   24584843.7924
     -3391.4574      -2642.6924
  23562325.6554   -6041944.95847  -4692425.35546  23562325.0334   23562329.8454
      2373.1644       1849.2154
  25171175.6034   12398680.47347  10019914.57145  25171177.5744   25171186.7554
     -4064.9214      -3167.4694
  22164485.1174   -2154602.13348  -1513369.12847  22164485.0354   22164490.3364
     -2227.1134      -1735.4124
  25913257.3944    -412767.51047   -221935.23045  25913257.0174   25913261.1164
      1326.8554       1033.9034
  21766698.9734   -2858440.01149  -2017359.38147  21766698.0914   21766705.8824
     -3471.0264      -2704.6994
  21367310.8894  -11583191.83949  -8641681.41147  21367310.0074   21367313.1154
      -663.8724       -517.3024
  22849635.1854  -10158345.14848  -7751728.95146  22849635.1374   22849641.2734
      1107.3594        862.8734
 02  8  5  0 58  0.0030000  0  9G 3G25G31G20G 2G27G22G 1G13
  21802641.0344  -10147090.90048  -7748047.00346  21802640.2214   21802644.7204
       219.7344        171.2234
  24604216.2824   22119899.65647  17912539.44645  24604213.9134   24604217.3464
     -3395.5854      -2645.9154
  23548793.8424   -6113064.52448  -4747843.06846  23548792.6284   23548796.8424
      2368.4164       1845.5184
  25194383.7674   12520620.36147  10114932.62245  25194383.5874   25194389.2574
     -4064.0324      -3166.7704
  22177213.6264   -2087714.69849  -1461249.12147  22177212.1304   22177218.1914
     -2231.7144      -1739.0004
  25905670.3494    -452630.92947   -252997.54245  25905669.0374   25905674.7664
      1331.0624       1037.1884
  21786540.1164   -2754208.40048  -1936139.93047  21786538.5244   21786540.8034
     -3477.4314      -2709.6824
  21371149.9714  -11563018.34248  -8625961.79547  21371148.0654   21371151.6794
      -680.6954       -530.4114
  22843347.0884  -10191381.81648  -7777471.74146  22843347.2254   22843354.6614
      1095.4144        853.5674
 02  8  5  0 58 30.0030000  0  9G 3G25G31G20G 2G27G22G 1G13
  21801433.5614  -10153431.31448  -7752987.62346  21801432.4954   21801437.7474
       203.0434        158.2144
  24623608.7484   22221834.26947  17991968.97445  24623608.9454   24623614.5784
     -3400.0014      -2649.3484
  23535285.2924   -6184037.27348  -4803146.38846  23535285.5874   23535291.0004
      2363.1864       1841.4404
  25217587.2134   12642532.60847  10209929.15145  25217584.4064   25217591.1314
     -4063.3154      -3166.2144
  22189969.4214   -2020687.37448  -1409019.97247  22189968.6864   22189973.5294
     -2236.6424      -1742.8344
  25898050.5854    -492619.51447   -284157.39845  25898054.3654   25898065.1904
      1334.9204       1040.2064
  21806404.3154   -2649785.39449  -1854771.34247  21806403.6994   21806411.4314
     -3484.0344      -2714.8344
  21375082.6914  -11542338.52448  -8609847.63547  21375080.7044   21375087.2144
      -697.8854       -543.8094
  22837127.9944  -10224058.47448  -7802933.99946  22837128.8954   22837135.6354
      1083.1024        843.9734
 02  8  5  0 59  0.0030000  0  9G 3G25G31G20G 2G27G22G 1G13
  21800320.1064  -10159270.81848  -7757537.78047  21800320.1134   21800326.1764
       184.8814        144.0604
  24643029.5564   22323903.40447  18071503.27645  24643030.9494   24643037.3874
     -3405.9324      -2653.9734
  23521807.6694   -6254851.49047  -4858326.20646  23521807.9144   23521814.5414
      2356.3444       1836.1094
  25240785.3484   12764422.80847  10304908.44545  25240779.9964   25240785.1484
     -4064.0204      -3166.7674
  22202750.8364   -1953512.84149  -1356676.23447  22202749.9594   22202756.6974
     -2242.9844      -1747.7844
  25890432.7824    -532724.55647   -315407.99645  25890428.1394   25890433.3214
      1337.2694       1042.0314
  21826319.6424   -2545164.29348  -1773248.40747  21826317.9894   21826320.2914
     -3492.0574      -2721.0804
  21379113.4304  -11521142.55148  -8593331.26246  21379111.5304   21379120.6804
      -716.5764       -558.3724
  22830980.9014  -10256363.76848  -7828106.88046  22830981.9884   22830988.6664
      1069.2024        833.1454
 02  8  5  0 59 30.0030000  0  9G 3G25G31G20G 2G27G22G 1G13
  21799314.3184  -10164558.48748  -7761657.96546  21799314.2784   21799320.2764
       167.8074        130.7574
  24662485.1034   22426155.99247  18151180.56045  24662486.9424   24662495.8264
     -3410.7134      -2657.6964
  23508368.6354   -6325454.93647  -4913341.82245  23508368.9794   23508379.1874
      2350.6564       1831.6824
  25263981.2874   12886337.19247  10399906.61745  25263980.3844   25263984.3824
     -4063.4294      -3166.3024
  22215572.1394   -1886143.16348  -1304180.34047  22215571.4594   22215577.0164
     -2248.1354      -1751.7884
  25882784.2004    -572896.48847   -346710.67745  25882783.9894   25882787.6794
      1340.8704       1044.8174
  21846268.0194   -2440298.21349  -1691534.57947  21846267.2464   21846275.5504
     -3498.8324      -2726.3654
  21383251.8294  -11499380.16048  -8576373.52846  21383251.3794   21383261.5194
      -734.0814       -572.0154
  22824915.8864  -10288245.91448  -7852950.04846  22824916.7494   22824922.5144
      1056.4354        823.1934
 02  8  5  1  0  0.0030000  0  9G 3G25G31G20G 2G27G22G 1G13
  21798418.5704  -10169289.69848  -7765344.69746  21798416.6974   21798419.9044
       148.2764        115.5434
  24681979.4474   22528595.02647  18231003.11045  24681979.5754   24681989.5564
     -3417.8594      -2663.2664
  23494980.4924   -6395842.03247  -4968188.82145  23494978.3634   23494984.7754
      2342.4724       1825.2974
  25287187.0214   13008275.63447  10494923.54545  25287184.5484   25287189.1064
     -4065.1084      -3167.6194
  22228428.4184   -1818577.15949  -1251531.53747  22228427.3384   22228433.9104
     -2255.5794      -1757.5984
  25875119.7294    -613132.31347   -378063.21145  25875120.9244   25875133.8704
      1342.0724       1045.7664
  21866277.1624   -2335186.08848  -1609629.01547  21866275.5194   21866277.5324
     -3507.9734      -2733.4824
  21387501.5994  -11477047.45648  -8558971.38046  21387502.1094   21387511.3104
      -754.0644       -587.5844
  22818933.6174  -10319700.13848  -7877459.78246  22818933.7464   22818937.5144
      1041.1964        811.3194
 02  8  5  1  0 30.0030000  0  9G 3G25G31G20G 2G27G22G 1G13
  21797623.6094  -10173443.28248  -7768581.21347  21797622.9614   21797629.8944
       129.6244        101.0034
  24701511.1514   22631240.87847  18310986.82945  24701511.6444   24701523.1024
     -3424.1404      -2668.1554
  23481632.9304   -6465989.75148  -5022849.22446  23481632.0744   23481637.2364
      2335.0274       1819.4974
  25310393.7684   13130255.13947  10589972.44745  25310394.4764   25310400.7954
     -4065.7994      -3168.1554
  22241329.2344   -1750795.88348  -1198714.95747  22241327.1524   22241332.4324
     -2262.1054      -1762.6734
  25867463.2734    -653411.92647   -409449.86045  25867461.6964   25867468.0814
      1344.2714       1047.4844
  21886322.7444   -2229810.41949  -1527518.09047  21886321.9024   21886329.6174
     -3516.0944      -2739.8194
  21391866.4454  -11454123.33448  -8541108.40646  21391866.8074   21391874.0724
      -773.1834       -602.4824
  22813034.1134  -10350703.70048  -7901618.36847  22813034.3934   22813038.1274
      1026.7324        800.0514
 02  8  5  1  1  0.0030000  0  9G 3G25G31G20G 2G27G22G 1G13
  21796927.7204  -10177094.80448  -7771426.46547  21796927.7574   21796934.4024
       111.2234         86.6684
  24721070.7864   22734016.31047  18391071.51245  24721070.4464   24721079.1694
     -3430.1464      -2672.8384
  23468315.7554   -6535972.84948  -5077381.36546  23468315.6874   23468319.3074
      2327.8694       1813.9204
  25333593.9204   13252195.10847  10684990.53445  25333597.5094   25333606.7984
     -4066.0844      -3168.3784
  22254250.1744   -1682878.51949  -1145792.33347  22254249.8854   22254256.3094
     -2268.2614      -1767.4814
  25859773.8434    -693812.59247   -440930.82645  25859773.3944   25859779.6194
      1346.5864       1049.2874
  21906416.8174   -2124250.58748  -1445263.65147  21906415.1344   21906417.6744
     -3523.8164      -2745.8294
  21396329.8014  -11430684.50848  -8522844.37847  21396329.6934   21396334.3564
      -791.9994       -617.1404
  22807205.9494  -10381331.73148  -7925484.33747  22807206.3244   22807208.8354
      1012.5354        788.9884
 02  8  5  1  1 30.0030000  0  9G 3G25G31G20G 2G27G22G 1G13
  21796353.6644  -10180125.63348  -7773788.12446  21796353.7054   21796358.2594
        93.3034         72.7054
  24740677.2184   22837038.40447  18471348.38445  24740676.7314   24740684.1604
     -3435.5594      -2677.0584
  23455049.5784   -6605670.96248  -5131691.45446  23455049.7814   23455055.4584
      2321.0944       1808.6414
  25356818.6924   13374209.62347  10780066.73745  25356815.5374   25356825.0294
     -4065.6964      -3168.0694
  22267226.0694   -1614708.82148  -1092673.11547  22267223.9024   22267229.0324
     -2273.8894      -1771.8574
  25852081.4794    -734216.71947   -472414.53245  25852080.6094   25852091.5894
      1349.4744       1051.5414
  21926554.1194   -2018391.62449  -1362776.15447  21926553.1284   21926561.5204
     -3530.9724      -2751.4104
  21400912.5824  -11406612.55048  -8504087.01847  21400912.0304   21400914.7844
      -810.3494       -631.4404
  22801472.7394  -10411464.82448  -7948964.64047  22801472.3204   22801473.9974
       998.7684        778.2594
 02  8  5  1  2  0.0030000  0  9G 3G25G31G20G 2G27G22G 1G13
  21795874.7094  -10182651.28448  -7775756.21946  21795872.3834   21795877.5354
        75.8624         59.1134
  24760308.4704   22940190.17047  18551726.31345  24760307.9094   24760313.9634
     -3440.4444      -2680.8644
  23441815.0414   -6675198.03847  -5185868.29145  23441815.2494   23441823.9254
      2314.8244       1803.7564
  25380032.4814   13496178.82847  10875107.61345  25380027.7124   25380034.9324
     -4064.6944      -3167.2904
  22280220.7304   -1546405.37149  -1039449.60747  22280220.3184   22280226.4434
     -2278.8464      -1775.7284
  25844372.6114    -774741.02447   -503991.87245  25844371.6014   25844378.0754
      1352.9034       1054.2104
  21946740.3594   -1912352.37848  -1280148.14847  21946738.5424   21946740.2434
     -3537.5234      -2756.5084
  21405591.6664  -11382023.47649  -8484926.71447  21405591.1924   21405593.8654
      -828.1224       -645.2894
  22795810.4334  -10441217.14548  -7972148.23047  22795810.0804   22795812.1244
       985.5314        767.9444
 02  8  5  1  2 30.0030000  0  9G 3G25G31G20G 2G27G22G 1G13
  21795492.6624  -10184638.70148  -7777304.78647  21795492.4254   21795499.3864
        57.0354         44.4394
  24779972.2584   23043503.51247  18632230.16045  24779969.8274   24779974.9644
     -3446.7124      -2685.7504
  23428624.3984   -6744519.66847  -5239885.06645  23428623.9034   23428634.0754
      2307.0304       1797.6874
  25403235.2294   13618131.08847  10970135.25245  25403235.2504   25403241.5324
     -4065.0214      -3167.5474
  22293252.0974   -1477937.55648   -986098.11347  22293250.0624   22293255.8574
     -2285.1994      -1780.6704
  25836647.4504    -815353.90147   -535638.19245  25836645.5604   25836650.7514
      1354.9944       1055.8374
  21966951.2464   -1806103.48449  -1197356.81347  21966950.2224   21966958.4054
     -3545.3374      -2762.6014
  21410375.3744  -11356884.77749  -8465338.12947  21410374.6704   21410377.6324
      -847.3454       -660.2684
  22790227.9014  -10470555.10348  -7995008.95246  22790226.9664   22790229.3464
       970.7564        756.4334
                            4  3
Solaris 2.7|Ultra 2|cc SC5.0|=+-|*Sparc                     COMMENT
teqc 2000Jul20 Neil Weston 20020806 04:09:26UTC             COMMENT
original post-header comments being skipped                 COMMENT
 02  8  5  1  3  0.0000000  0  9G 3G25G31G20G 2G27G22G 1G13
  20895838.8984  -10186090.65248  -7778436.06647  20895839.7444   20895845.4424
        39.4414         30.7294
  23900285.5364   23146973.80747  18712856.31545  23900283.2714   23900286.3634
     -3451.6614      -2689.6074
  22516101.4854   -6813637.11048  -5293742.71646  22516099.2424   22516104.0414
      2300.4464       1792.5524
  24527059.6874   13740059.65747  11065144.50145  24527059.9884   24527066.3704
     -4063.8374      -3166.6224
  21406931.5844   -1409311.49349   -932623.19347  21406931.2284   21406937.3864
     -2290.1894      -1784.5654
  24929517.0234    -856059.21447   -567356.57645  24929517.3524   24929527.4254
      1358.3534       1058.4524
  21087837.9074   -1699651.16448  -1114406.92547  21087836.5174   21087838.4144
     -3551.7864      -2767.6234
  20515885.7464  -11331199.74349  -8445323.82647  20515884.2104   20515888.1594
      -865.2944       -674.2564
  21885344.6244  -10499480.27748  -8017548.01546  21885343.4414   21885348.3644
       957.2644        745.9184
 02  8  5  1  3 30.0000000  0  9G 3G25G31G20G 2G27G22G 1G13
  20895675.6224  -10186970.49648  -7779121.66746  20895674.7334   20895678.3374
        19.2184         14.9814
  23920008.7694   23250636.98847  18793632.73445  23920007.9604   23920012.5304
     -3459.2114      -2695.4844
  22502993.3944   -6882512.11548  -5347411.44146  22502993.3694   22502996.6984
      2291.1854       1785.3354
  24550267.1254   13861996.59147  11160160.27545  24550264.4114   24550270.7144
     -4065.2074      -3167.6894
  21420029.2554   -1340492.77549   -878998.28947  21420027.4544   21420033.3674
     -2297.6714      -1790.3914
  24921764.4244    -896821.25147   -599119.18645  24921763.1284   24921770.3294
      1359.1264       1059.0654
  21108133.3974   -1592962.35149  -1031272.79547  21108132.2654   21108140.7294
     -3560.7554      -2774.6174
  20520882.5924  -11304932.14448  -8424855.56147  20520880.5674   20520886.8574
      -885.8584       -690.2804
  21879923.2574  -10527955.18148  -8039736.21546  21879922.8834   21879930.8184
       941.0814        733.3114
 02  8  5  1  4  0.0000000  0  9G 3G25G31G20G 2G27G22G 1G13
  20895611.2934  -10187292.65848  -7779372.76447  20895610.3394   20895616.5444
         2.8924          2.2524
  23939763.7734   23354477.10147  18874547.00545  23939765.9704   23939772.5734
     -3462.7904      -2698.2734
  22489930.6374   -6951157.48248  -5400901.16946  22489930.7054   22489933.5604
      2285.7644       1781.1074
  24573467.7654   13983923.05647  11255167.86745  24573464.2444   24573471.9214
     -4062.5254      -3165.6024
  21433156.3874   -1271498.85949   -825236.71747  21433156.2494   21433162.0804
     -2301.2414      -1793.1764
  24913997.4414    -937655.52847   -630938.05645  24913994.9844   24914001.0984
      1363.8184       1062.7134
  21128484.3684   -1486054.72048   -947968.11747  21128482.8244   21128484.4074
     -3565.7814      -2778.5274
  20525985.8674  -11278096.96848  -8403945.01447  20525984.4434   20525993.4474
      -902.5234       -703.2664
  21874585.1454  -10555993.03248  -8061583.85646  21874585.9914   21874595.3734
       928.7554        723.7034
 02  8  5  1  4 30.0000000  0  9G 3G25G31G20G 2G27G22G 1G13
  20895646.9974  -10187098.06648  -7779221.02347  20895647.0854   20895653.5824
       -15.7444        -12.2704
  23959546.7974   23458451.86347  18955566.21345  23959549.5974   23959559.0114
     -3468.6614      -2702.8534
  22476900.6964   -7019612.53947  -5454242.63646  22476900.5184   22476906.3644
      2278.0534       1775.1034
  24596654.1634   14105793.70247  11350131.95945  24596654.0754   24596664.7434
     -4061.9514      -3165.1524
  21446312.2034   -1202372.96549   -771372.46447  21446310.2544   21446316.2704
     -2306.9454      -1797.6194
  24906197.7754    -978604.07647   -662845.98645  24906197.7484   24906206.9824
      1366.3154       1064.6654
  21148854.7814   -1378972.60149   -864527.53847  21148853.3584   21148861.3694
     -3572.8994      -2784.0814
  20531189.5074  -11250735.50148  -8382624.35146  20531188.9564   20531199.9614
      -921.4304       -717.9994
  21869326.0824  -10583633.97748  -8083122.21046  21869326.4134   21869334.3874
       914.1084        712.2934
 02  8  5  1  5  0.0000000  0  9G 3G25G31G20G 2G27G22G 1G13
  20895792.6094  -10186338.83148  -7778629.33946  20895792.6914   20895798.4254
       -35.5514        -27.7034
  23979367.2184   23562607.78947  19036726.59645  23979366.0074   23979379.3544
     -3475.7334      -2708.3564
  22463914.2354   -7087827.77647  -5507397.28545  22463914.3384   22463926.4934
      2268.9414       1768.0094
  24619837.5984   14227652.37947  11445086.68245  24619843.0644   24619853.0764
     -4062.5444      -3165.6154
  21459498.8234   -1133070.18249   -717370.20647  21459498.4284   21459504.3324
     -2313.8594      -1803.0064
  24898396.0154   -1019620.17147   -694806.59845  24898394.7464   24898401.6654
      1367.4234       1065.5274
  21169279.7614   -1271671.52448   -780916.26447  21169278.5594   21169280.5124
     -3581.1584      -2790.5104
  20536506.2474  -11222800.44648  -8360856.73146  20536506.5994   20536515.8444
      -941.5584       -733.6824
  21864152.0514  -10610828.82348  -8104312.97446  21864153.0244   21864158.1564
       898.2084        699.9024
 02  8  5  1  5 30.0000000  0  9G 3G25G31G20G 2G27G22G 1G13
  20896048.9054  -10185015.41048  -7777598.20546  20896046.0564   20896050.2894
       -53.1564        -41.4194
  23999223.0884   23666943.34647  19118026.93945  23999222.7014   23999232.4714
     -3480.4634      -2712.0494
  22450986.9744   -7155802.22148  -5560364.32246  22450984.7964   22450991.3034
      2262.1274       1762.6914
  24643036.7544   14349494.13547  11540028.23945  24643031.7944   24643038.9844
     -4060.7414      -3164.2164
  21472720.8874   -1063593.57149   -663232.66547  21472718.7974   21472725.3004
     -2318.3914      -1806.5404
  24890582.0644   -1060705.24147   -726820.87345  24890580.2534   24890583.5904
      1370.9764       1068.2934
  21189732.3434   -1164155.52149   -697137.61547  21189731.1984   21189739.7304
     -3587.1014      -2795.1474
  20541935.2874  -11194292.77548  -8338642.92847  20541935.0764   20541940.4774
      -959.4414       -747.6184
  21859065.7034  -10637577.56448  -8125156.12746  21859065.7894   21859067.8054
       884.5164        689.2334
 02  8  5  1  6  0.0000000  0  9G 3G25G31G20G 2G27G22G 1G13
  20896399.8674  -10183146.40348  -7776141.77347  20896398.7894   20896405.4544
       -72.8064        -56.7364
  24019109.0344   23771438.64747  19199451.75745  24019108.9904   24019117.9144
     -3487.2474      -2717.3314
  22438096.0634   -7223552.67948  -5613156.72946  22438095.1354   22438097.8074
      2253.1844       1755.7254
  24666216.2744   14471296.19247  11634938.84445  24666211.4554   24666216.2874
     -4060.7564      -3164.2214
  21485970.0224    -993964.36648   -608976.05647  21485969.5604   21485975.5024
     -2324.9344      -1811.6354
  24882738.9824   -1101878.54747   -758903.91545  24882738.0254   24882750.1804
      1372.4464       1069.4314
  21210234.4704   -1056446.27548   -613208.29447  21210233.9744   21210236.4284
     -3594.9424      -2801.2524
  20547467.6944  -11165231.38549  -8315997.67547  20547467.4174   20547471.2044
      -979.3474       -763.1284
  21854058.6774  -10663896.98548  -8145664.74247  21854058.4864   21854059.9394
       868.7354        676.9364
 02  8  5  1  6 30.0000000  0  9G 3G25G31G20G 2G27G22G 1G13
  20896862.9874  -10180710.57248  -7774243.61547  20896863.0534   20896869.1094
       -91.4664        -71.2744
  24039031.6074   23876113.48447  19281016.49345  24039031.3054   24039037.9434
     -3493.0144      -2721.8234
  22425248.2644   -7291056.25848  -5665756.75746  22425248.7614   22425252.0844
      2245.1544       1749.4644
  24689386.7854   14593075.70047  11729831.87545  24689384.2904   24689390.6404
     -4059.7134      -3163.4024
  21499251.9184    -924163.75949   -554586.04447  21499250.8014   21499257.8774
     -2330.3434      -1815.8544
  24874893.6144   -1143120.22647   -791040.26845  24874893.0184   24874901.2894
      1375.0364       1071.4524
  21230765.9324    -948525.97449   -529114.60747  21230764.4924   21230772.7484
     -3601.6774      -2806.5044
  20553108.2204  -11135595.57249  -8292904.83947  20553107.8354   20553110.9274
      -998.2384       -777.8484
  21849136.1334  -10689765.20548  -8165821.77847  21849136.2074   21849137.4384
       853.9074        665.3824
 02  8  5  1  7  0.0000000  0  9G 3G25G31G20G 2G27G22G 1G13
  20897439.3894  -10177699.15548  -7771897.05246  20897438.8344   20897442.2924
      -109.0864        -85.0024
  24058989.2354   23980975.23347  19362726.87745  24058987.0784   24058991.6904
     -3497.5854      -2725.3934
  22412450.5224   -7358302.75848  -5718156.47546  22412450.9924   22412456.8764
      2238.1484       1744.0074
  24712552.2604   14714836.72347  11824710.51545  24712552.4104   24712561.4184
     -4057.3324      -3161.5584
  21512569.5844    -854185.95248   -500057.80947  21512569.3314   21512574.2274
     -2334.6054      -1819.1704
  24867038.7834   -1184422.64647   -823223.91845  24867036.9924   24867040.8574
      1378.6344       1074.2634
  21251347.9834    -840389.27248   -444852.19147  21251347.4064   21251351.1064
     -3607.2414      -2810.8344
  20558858.7684  -11105377.52349  -8269358.31147  20558858.1044   20558860.9934
     -1016.0864       -791.7564
  21844301.4894  -10715172.61248  -8185619.72047  21844300.8014   21844303.4014
       840.1214        654.6384
 02  8  5  1  7 30.0000000  0  9G 3G25G31G20G 2G27G22G 1G13
  20898115.1404  -10174142.46848  -7769125.66046  20898112.9894   20898119.0194
      -127.3724        -99.2534
  24078974.0644   24085992.19947  19444558.26745  24078972.2594   24078976.7384
     -3502.9064      -2729.5404
  22399692.5774   -7425320.74648  -5770378.19246  22399693.9094   22399703.6594
      2230.3564       1737.9374
  24735708.1174   14836545.11547  11919548.12745  24735710.5524   24735721.6594
     -4055.8604      -3160.4034
  21525912.2974    -784063.65549   -445417.11047  21525910.8694   21525918.1734
     -2339.5334      -1823.0164
  24859156.5594   -1225816.82047   -855479.05645  24859155.4484   24859163.1054
      1381.5544       1076.5344
  21271956.8724    -732069.70649   -360447.41447  21271955.1184   21271963.6894
     -3613.4134      -2815.6474
  20564714.0744  -11074607.91249  -8245381.99147  20564712.8174   20564716.0334
     -1034.5884       -806.1724
  21839548.1454  -10740148.44448  -8205081.37347  21839547.1014   21839550.4244
       825.5994        643.3224
 02  8  5  1  8  0.0000000  0  9G 3G25G31G20G 2G27G22G 1G13
  20898900.8944  -10169996.37948  -7765894.85047  20898901.0154   20898907.5304
      -148.1784       -115.4664
  24098993.9374   24191207.92047  19526544.43645  24098992.6224   24098998.0334
     -3510.6314      -2735.5524
  22386995.3304   -7492064.20148  -5822386.00446  22386992.9604   22387001.6144
      2220.0264       1729.8854
  24758875.5474   14958240.91147  12014375.97645  24758871.9394   24758881.4774
     -4056.4004      -3160.8244
  21539293.3074    -713755.01948   -390631.11747  21539292.5114   21539297.4244
     -2346.8464      -1828.7054
  24851268.8794   -1267259.21547   -887771.84045  24851269.7214   24851278.2804
      1382.0684       1076.9374
  21292614.5604    -623526.27248   -275868.06947  21292614.3484   21292618.9974
     -3621.9884      -2822.3264
  20570680.4384  -11043242.76249  -8220941.60147  20570679.0294   20570684.6934
     -1055.5604       -822.5154
  21834884.1454  -10764647.54148  -8224171.53946  21834882.7614   21834888.3754
       808.5264        630.0184
 02  8  5  1  8 30.0000000  0  9G 3G25G31G20G 2G27G22G 1G13
  20899803.7744  -10165260.31748  -7762204.34547  20899804.5484   20899809.2564
      -166.6404       -129.8514
  24119048.8294   24296621.61647  19608684.90145  24119049.8054   24119058.6074
     -3515.9774      -2739.7184
  22374350.9754   -7558530.90548  -5874178.12446  22374349.7704   22374352.8544
      2211.9894       1723.6244
  24782029.4374   15079920.49947  12109191.17545  24782027.0334   24782033.7474
     -4054.6134      -3159.4364
  21552705.3294    -643262.18349   -335701.66547  21552704.2224   21552711.4454
     -2351.7264      -1832.5194
  24843380.1544   -1308750.62847   -920102.79945  24843377.6344   24843383.6374
      1384.8914       1079.1354
  21313310.1944    -514761.54249   -191116.40547  21313308.7324   21313316.0224
     -3628.0684      -2827.0664
  20576759.9794  -11011282.30548  -8196037.31347  20576758.2824   20576766.5054
     -1074.1764       -837.0234
  21830308.9604  -10788668.07248  -8242888.76946  21830309.0174   21830317.5534
       793.7684        618.5204
 02  8  5  1  9  0.0000000  0  9G 3G25G31G20G 2G27G22G 1G13
  20900807.0894  -10160004.95648  -7758109.29546  20900805.7414   20900809.3784
      -184.1824       -143.5154
  24139128.4354   24402161.38647  19690923.61445  24139130.6354   24139142.2254
     -3520.4474      -2743.2054
  22361742.9114   -7624789.72448  -5925808.23246  22361742.0064   22361744.5504
      2204.7694       1717.9994
  24805164.6864   15201509.07447  12203935.42645  24805166.4054   24805173.0214
     -4051.7574      -3157.2114
  21566143.9894    -572658.15048   -280685.52247  21566142.4444   21566146.6364
     -2355.6524      -1835.5664
  24835454.2124   -1350362.08147   -952527.26645  24835454.6184   24835463.9634
      1388.7154       1082.1204
  21334035.9524    -405849.44149   -106249.77447  21334035.8144   21334041.0374
     -3633.2334      -2831.0914
  20582937.6024  -10978797.69248  -8170724.57747  20582937.9754   20582948.6194
     -1091.8944       -850.8284
  21825814.5194  -10812279.59648  -8261287.28846  21825815.7604   21825823.4054
       779.8674        607.6864
 02  8  5  1  9 30.0000000  0  9G 3G25G31G20G 2G27G22G 1G13
  20901915.9714  -10154157.15548  -7753552.56647  20901915.1134   20901921.7724
      -203.6704       -158.7044
  24159251.4374   24507899.56147  19773316.94545  24159252.0734   24159262.0504
     -3526.8154      -2748.1644
  22349185.0514   -7690765.54948  -5977217.83546  22349185.3294   22349190.0324
      2195.6014       1710.8554
  24828301.2544   15323076.08847  12298662.87745  24828298.2394   24828305.4084
     -4050.6594      -3156.3534
  21579610.6524    -501872.11249   -225527.55847  21579609.9724   21579617.2004
     -2361.4054      -1840.0594
  24827528.6624   -1392021.12347   -984988.83545  24827527.8534   24827535.7854
      1390.6154       1083.6014
  21354804.3874    -296719.60849    -21213.61347  21354802.1704   21354808.0554
     -3640.1504      -2836.4814
  20589235.0314  -10945716.00348  -8144946.59347  20589235.6754   20589243.5024
     -1111.5254       -866.1254
  21821416.1674  -10835407.59048  -8279309.04146  21821416.2544   21821422.3634
       763.9784        595.3064
 02  8  5  1 10  0.0000000  0  9G 3G25G31G20G 2G27G22G 1G13
  20903141.5234  -10147715.76449  -7748533.20047  20903141.9254   20903147.5774
      -224.0744       -174.6054
  24179412.5174   24613836.16247  19855864.85845  24179412.3124   24179421.9694
     -3533.9814      -2753.7504
  22336680.1854   -7756455.35748  -6028404.61546  22336680.7954   22336689.8664
      2185.3814       1702.8924
  24851436.5114   15444618.46747  12393371.16645  24851424.9364   24851433.6004
     -4050.3884      -3156.1444
  21593119.4504    -430905.19848   -170228.67547  21593117.5464   21593121.4014
     -2367.9914      -1845.1834
  24819597.5194   -1433727.25947  -1017487.11945  24819596.6244   24819600.7414
      1391.5204       1084.2994
  21375608.8524    -187374.32949     63990.55647  21375608.8104   21375615.3514
     -3647.8864      -2842.5104
  20595648.2664  -10912036.71649  -8118702.96547  20595647.8824   20595652.7654
     -1132.0704       -882.1334
  21817109.8364  -10858049.96148  -8296952.38746  21817109.8444   21817113.6424
       747.1924        582.2274
 02  8  5  1 10 30.0000000  0  9G 3G25G31G20G 2G27G22G 1G13
  20904478.4264  -10140704.22248  -7743069.61746  20904478.2124   20904481.8234
      -243.3094       -189.5904
  24199607.6804   24719946.42047  19938548.08845  24199607.3284   24199614.7794
     -3539.9774      -2758.4164
  22324230.8264   -7821880.99548  -6079385.58246  22324229.6204   22324238.9054
      2176.3624       1695.8634
  24874584.852

  21606649.4954    -359783.71549   -114809.29747  21606648.7474   21606655.2774
     -2373.3184      -1849.3414
  24811642.4544   -1475505.16747  -1050041.27745  24811642.1394   24811650.0944
      1393.6624       1085.9684
  21396457.4204     -77839.98548    149341.92547  21396454.8864   21396458.7774
     -3654.3344      -2847.5324
  20602167.6384  -10877784.00449  -8092012.53747  20602167.7364   20602170.5144
     -1151.3724       -897.1724
  21812890.8374  -10880229.17048  -8314234.85347  21812891.4354   21812892.6634
       731.5094        570.0064
 02  8  5  1 11  0.0000000  0  9G 3G25G31G20G 2G27G22G 1G13
  20905916.8704  -10133140.84448  -7737176.16047  20905915.4364   20905921.2254
      -260.7874       -203.2114
  24219832.4794   24826210.76547  20021351.39645  24219830.7454   24219836.0324
     -3544.1544      -2761.6834
  22311833.8314   -7887059.07048  -6130173.62046  22311831.3114   22311836.4314
      2168.9864       1690.1164
  24897717.0304     150473.87944     82688.10543
     -4045.4454      -3152.5394
  21620212.2224    -288527.95648    -59285.35547  21620210.5744   21620214.5994
     -2376.8564      -1852.0924
  24803674.4774   -1517373.52647  -1082665.96645  24803673.0204   24803683.4914
      1397.6564       1089.0874
  21417326.1714      31861.80149    234823.88747  21417326.6504   21417334.6184
     -3658.9774      -2851.1534
  20608791.9964  -10842976.69149  -8064889.95547  20608791.4484   20608793.9674
     -1168.9534       -910.8724
  21808756.6064  -10901962.42548  -8331169.81947  21808756.2944   21808757.6974
       717.5334        559.1154
 02  8  5  1 11 30.0000000  0  9G 3G25G31G20G 2G27G22G 1G13
  20907459.2714  -10125026.02549  -7730852.84347  20907458.9054   20907465.3754
      -280.4264       -218.5174
  24240084.8864   24932628.08447  20104273.92545  24240083.0514   24240087.7434
     -3550.4774      -2766.6124
  22299477.9024   -7951987.71548  -6180767.27146  22299477.3374   22299481.2644
      2159.3884       1682.6344
  24920759.3174      61399.03654     25906.49043
     -4043.9774      -3151.1514
  21633793.2974    -217140.54049     -3658.73347  21633792.9274   21633799.2374
     -2382.4594      -1856.4664
  24795696.6284   -1559333.32147  -1115361.84945  24795694.4764   24795698.8764
      1399.4304       1090.4534
  21438241.4604     141728.19848    320434.01447  21438238.3834   21438241.9154
     -3665.6184      -2856.3234
  20615521.1194  -10807615.31249  -8037335.64247  20615520.2884   20615522.8254
     -1188.6654       -926.2334
  21804706.0454  -10923248.62848  -8347756.43147  21804705.3134   21804707.5404
       701.3674        546.5184
 02  8  5  1 12  0.0000000  0  9G 3G25G31G20G 2G27G22G 1G13
  20909116.9724  -10116318.49048  -7724067.66947  20909116.9154   20909122.3434
      -299.8274       -233.6334
  24260363.1404   25039237.92747  20187346.48545  24260364.4544   24260373.1954
     -3556.5514      -2771.3464
  22287177.1644   -8016624.29448  -6231133.31746  22287177.4674   22287180.5184
      2149.9784       1675.3034
  24943819.4224     182694.96744    120423.35644
     -4042.1644      -3149.6994
  21647413.6604    -145582.86048     52100.44647  21647411.4504   21647416.4304
     -2387.7414      -1860.5764
  24787695.1364   -1601344.26547  -1148097.59145  24787694.7034   24787704.2664
      1401.4594       1092.0434
  21459178.5164     251796.81049    406201.79447  21459178.1394   21459186.8784
     -3671.9814      -2861.2874
  20622362.0454  -10771659.65949  -8009318.25047  20622361.0304   20622364.8524
     -1208.0994       -941.3754
  21800747.3874  -10944045.47348  -8363961.74047  21800746.7634   21800750.1384
       685.4054        534.0804
 02  8  5  1 12 30.0000000  0  9G 3G25G31G20G 2G27G22G 1G13
  20910896.0274  -10106987.73148  -7716797.01046  20910894.5344   20910897.9064
      -321.3154       -250.3704
  24280691.0904   25146070.27147  20270592.35745  24280694.0554   24280703.6634
     -3564.6544      -2777.6534
  22274936.6544   -8080936.16448  -6281246.37446  22274935.8364   22274942.0964
      2138.4034       1666.2904
  24966894.0124     303976.16644    214928.05644
     -4042.1934      -3149.7494
  21661065.0424     -73826.76049    108014.37047  21661064.7764   21661070.9284
     -2395.0074      -1866.2424
  24779696.9904   -1643376.23947  -1180849.78245  24779695.6284   24779705.0624
      1401.5474       1092.1174
  21480176.7724     362095.62448    492148.89247  21480174.0474   21480176.1194
     -3680.3164      -2867.7754
  20629321.4424  -10735079.36649  -7980814.10947  20629319.6874   20629325.7694
     -1229.6124       -958.1394
  21796887.1484  -10964321.78548  -8379761.41447  21796885.3844   21796891.4664
       667.3334        519.9994
 02  8  5  1 13  0.0000000  0  9G 3G25G31G20G 2G27G22G 1G13
  20912772.3364  -10097109.77649  -7709099.89147  20912771.4564   20912777.5574
      -339.1934       -264.3084
  24301046.1214   25253048.64647  20353952.04545  24301046.4974   24301060.3774
     -3569.1684      -2781.1684
  22262742.2304   -8144996.91748  -6331163.81546  22262741.7004   22262751.8614
      2130.3724       1660.0284
  24989972.0264     425163.49446    309359.62245  24989955.4754   24989970.3044
     -4038.7574      -3147.0814
  21674744.8574      -1949.66949    164022.43147  21674743.2644   21674748.7894
     -2398.6714      -1869.0954
  24771687.2614   -1685505.41947  -1213677.65945  24771684.8674   24771687.7934
      1405.1384       1094.9174
  21501185.1044     472545.83648    578214.00347  21501184.3824   21501193.8934
     -3684.9734      -2871.4114
  20636382.9634  -10697950.60948  -7951882.57547  20636382.3534   20636391.1164
     -1247.5344       -972.1064
  21793109.8074  -10984151.51848  -8395213.09146  21793109.7234   21793117.3754
       652.7364        508.6234
 02  8  5  1 13 30.0000000  0  9G 3G25G31G20G 2G27G22G 1G13
  20914758.3654  -10086665.89849  -7700961.71547  20914758.6394   20914764.9024
      -357.0424       -278.2164
  24321438.6254   25360190.20747  20437438.90245  24321438.3994   24321449.4654
     -3573.5934      -2784.6204
  22250609.4824   -8208786.04148  -6380869.59946  22250607.6784   22250614.3264
      2122.2384       1653.6924
  25013013.2874      32286.35854      6998.40643
     -4035.0284      -3144.1394
  21688446.8014      70064.66549    220137.59347  21688446.8624   21688452.9974
     -2402.2554      -1871.8894
  24763647.4244   -1727713.58047  -1246567.06745  24763647.0904   24763657.6094
      1408.6884       1097.6804
  21522244.6734     583163.40848    664409.50246  21522242.2224   21522243.6224
     -3689.5244      -2874.9504
  20643555.3184  -10660255.28948  -7922509.55747  20643556.1014   20643564.1534
     -1265.4464       -986.0624
  21789424.9144  -11003514.77648  -8410301.28546  21789425.3474   21789432.5904
       638.0744        497.1994
 02  8  5  1 14  0.0000000  0  8G 3G25G31G 2G27G22G 1G13
  20916853.4874  -10075664.02548  -7692388.80847  20916854.4034   20916858.6624
      -376.7554       -293.5734
  24341859.7124   25467485.90347  20521045.85945  24341858.3494   24341865.7544
     -3579.7704      -2789.4314
  22238523.8874   -8272309.64048  -6430368.41646  22238522.4134   22238524.5714
      2112.2734       1645.9234
  21702176.9674     142206.15849    276351.66447  21702174.7954   21702181.2934
     -2407.5454      -1876.0094
  24755598.6084   -1770009.52447  -1279524.94245  24755598.0244   24755607.2444
      1410.6144       1099.1774
  21543315.0944     693937.33948    750726.84047  21543314.0734   21543323.4274
     -3695.7704      -2879.8244
  20650838.9304  -10622002.06349  -7892701.82147  20650838.9924   20650843.6204
     -1285.1254      -1001.3964
  21785830.6584  -11022418.65148  -8425031.52546  21785831.1504   21785834.4234
       621.7274        484.4624
 02  8  5  1 14 30.0000000  0  8G 3G25G31G 2G27G22G 1G13
  20919060.3164  -10064077.01948  -7683360.03647  20919058.5494   20919063.5654
      -395.7224       -308.3564
  24362316.8644   25574962.06447  20604793.42745  24362314.9334   24362318.2354
     -3585.2514      -2793.6994
  22226489.9554   -8335538.79948  -6479637.79146  22226489.1204   22226492.7254
      2102.9694       1638.6754
  21715931.8634     214499.31249    332684.08447  21715932.1394   21715938.3264
     -2412.0134      -1879.4924
  24747544.7394   -1812366.47547  -1312530.31045  24747543.1904   24747547.7434
      1413.1974       1101.1934
  21564437.0084     804891.82648    837184.91146  21564435.6354   21564437.3814
     -3701.2054      -2884.0534
  20658231.6764  -10583164.37849  -7862438.68947  20658231.3594   20658233.9354
     -1304.0644      -1016.1534
  21782328.5714  -11040834.93748  -8439381.84347  21782328.7034   21782330.6464
       605.9784        472.1914
 02  8  5  1 15  0.0000000  0  8G 3G25G31G 2G27G22G 1G13
  20921371.5234  -10051913.48749  -7673881.89747  20921371.3204   20921378.1884
      -416.3664       -324.4444
  24382799.9944   25682609.06747  20688674.14445  24382798.9564   24382803.5424
     -3592.3604      -2799.2444
  22214510.4534   -8398479.77048  -6528682.63546  22214510.1344   22214515.4424
      2091.8644       1630.0234
  21729717.1174     286934.06049    389126.66447  21729715.1584   21729721.8774
     -2418.1524      -1884.2764
  24739464.8104   -1854793.44347  -1345590.21745  24739465.1164   24739473.6994
      1414.0564       1101.8584
  21585576.2404     916015.76748    923774.94047  21585574.6964   21585582.9964
     -3708.2894      -2889.5784
  20665732.8344  -10543751.04449  -7831727.01247  20665732.1304   20665734.0914
     -1324.7034      -1032.2364
  21778915.9834  -11058770.57748  -8453357.64347  21778916.0074   21778917.8574
       588.4184        458.5094
 02  8  5  1 15 30.0000000  0  8G 3G25G31G 2G27G22G 1G13
  20923799.4624  -10039157.83948  -7663942.36247  20923799.7824   20923805.4424
      -433.7654       -338.0004
  24403318.3154   25790441.56447  20772699.36645  24403316.4514   24403322.7284
     -3596.1884      -2802.2184
  22202587.8464   -8461115.00448  -6577489.28246  22202587.0094   22202597.5374
      2083.9234       1623.8384
  21743530.8564     359523.45348    445689.91847  21743529.8484   21743535.6584
     -2420.9784      -1886.4744
  24731379.8664   -1897275.09447  -1378692.80145  24731379.3834   24731389.8744
      1418.2184       1105.1004
  21606761.6194    1027321.61548   1010506.82146  21606760.7124   21606764.1934
     -3711.9784      -2892.4464
  20673344.8524  -10503747.01949  -7800555.05247  20673343.9204   20673346.8334
     -1342.0634      -1045.7654
  21775597.6984  -11076208.76648  -8466945.83347  21775597.1144   21775599.0474
       574.2404        447.4604
 02  8  5  1 16  0.0000000  0  8G 3G25G31G 2G27G22G 1G13
  20926337.1374  -10025842.06748  -7653566.45946  20926336.4424   20926339.3214
      -455.9784       -355.3054
  24423859.9574   25898426.65547  20856843.51445  24423861.7474   24423872.6714
     -3604.7784      -2808.9114
  22190724.2994   -8523474.63048  -6626081.19546  22190722.4994   22190729.4244
      2071.2564       1613.9634
  21757365.8204     432233.52249    502347.03747  21757364.1064   21757371.5454
     -2428.4124      -1892.2714
  24723287.3124   -1939843.91647  -1411863.24045  24723285.4264   24723289.2284
      1417.6364       1104.6544
  21627968.0064    1138774.90848   1097353.47247  21627965.7094   21627972.8254
     -3720.3184      -2898.9514
  20681062.8994  -10463184.94349  -7768948.24347  20681061.4014   20681065.5264
     -1364.1274      -1062.9564
  21772367.3844  -11093180.62948  -8480170.64947  21772366.0324   21772369.9304
       555.1644        432.5944
 02  8  5  1 16 30.0000000  0  8G 3G25G31G 2G27G22G 1G13
  20928986.8164  -10011902.56049  -7642704.51247  20928985.3114   20928991.9434
      -472.9574       -368.5404
  24444451.2414   26006627.31747  20941155.57545  24444450.8154   24444462.7864
     -3608.1514      -2811.5434
  22178927.5804   -8585492.88648  -6674407.02846  22178925.5634   22178927.4794
      2063.6374       1608.0264
  21771239.0094     505125.80648    559146.28847  21771238.3034   21771242.6494
     -2430.6814      -1894.0334
  24715174.5744   -1982436.73047  -1445052.36045  24715175.4094   24715184.3934
      1422.2584       1108.2514
  21649216.3254    1250436.43548   1184362.51747  21649216.1184   21649222.0994
     -3723.4264      -2901.3724
  20688897.2194  -10422001.83448  -7736857.49947  20688895.5974   20688902.3194
     -1381.0264      -1076.1244
  21769237.4094  -11109621.16548  -8492981.42146  21769235.1594   21769241.6604
       541.2334        421.7394
 02  8  5  1 17  0.0010000  0  8G 3G25G31G 2G27G22G 1G13
  20931739.7644   -9997426.67249  -7631424.53247  20931739.9014   20931746.6374
      -491.9424       -383.3354
  24465066.1544   26114958.50047  21025569.38445  24465065.9154   24465077.5604
     -3613.5734      -2815.7734
  22167172.0424   -8647257.37248  -6722535.11646  22167171.9484   22167174.2414
      2053.9474       1600.4754
  21785125.6364     578113.30949    616019.61347  21785124.2054   21785131.6414
     -2434.8444      -1897.2844
  24707048.7984   -2025142.55447  -1478329.60945  24707047.8344   24707056.5694
      1424.7934       1110.2334
  21670490.0934    1362219.81648   1271466.37147  21670488.0194   21670493.3784
     -3728.4454      -2905.2814
  20696832.6474  -10380284.41448  -7704350.38847  20696831.8284   20696841.3474
     -1399.9234      -1090.8494
  21766188.5894  -11125617.14348  -8505445.78046  21766188.4594   21766197.4004
       525.2424        409.2784
 02  8  5  1 17 30.0010000  0  8G 3G25G31G 2G27G22G 1G13
  20934612.5964   -9982345.80448  -7619673.17947  20934612.6344   20934616.4314
      -512.5014       -399.3534
  24485723.2864   26223481.83447  21110132.90845  24485722.1554   24485728.1594
     -3620.4484      -2821.1314
  22155477.3194   -8708692.03648  -6770406.22646  22155477.2314   22155484.4344
      2042.6124       1591.6474
  21799047.4514     651258.82948    673016.17647  21799046.9214   21799050.6244
     -2440.5434      -1901.7184
  24698921.3784   -2067889.38247  -1511638.71845  24698919.6554   24698921.9454
      1425.8444       1111.0434
  21691791.5934    1474184.48648   1358711.62647  21691791.7874   21691799.5304
     -3734.9394      -2910.3434
  20704884.9804  -10337966.18648  -7671375.10847  20704885.5544   20704894.3414
     -1420.3914      -1106.7984
  21763243.9864  -11141096.28848  -8517507.39546  21763244.6764   21763251.8024
       507.6494        395.5704
 02  8  5  1 18  0.0010000  0  8G 3G25G31G 2G27G22G 1G13
  20937601.6424   -9966643.37348  -7607437.56247  20937599.7644   20937604.2984
      -535.0874       -416.9524
  24506421.7834   26332215.91047  21194860.69045  24506418.4484   24506420.3284
     -3629.2804      -2828.0134
  22143851.4684   -8769781.01648  -6818008.00546  22143850.1214   22143858.5294
      2029.2234       1581.2124
  21812997.2544     724578.76649    730148.57047  21812995.5404   21813002.8114
     -2448.1864      -1907.6814
  24690775.0614   -2110662.83347  -1544968.58445  24690774.2884   24690782.7694
      1424.9114       1110.3224
  21713143.6194    1586347.78948   1446111.54447  21713140.6534   21713144.3804
     -3743.3674      -2916.9074
  20713059.0644  -10295030.28148  -7637918.53947  20713059.3674   20713064.6704
     -1442.8304      -1124.2854
  21760404.3314  -11156042.17648  -8529153.50146  21760404.1974   21760406.9924
       487.9854        380.2474
 02  8  5  1 18 30.0010000  0  8G 3G25G31G 2G27G22G 1G13
  20940703.9334   -9950318.98349  -7594717.20447  20940703.6404   20940710.8464
      -554.9804       -432.4544
  24527147.4324   26441160.40747  21279752.37545  24527145.5734   24527151.4374
     -3635.4454      -2832.8184
  22132295.0784   -8830521.60148  -6865338.28746  22132293.1284   22132300.5674
      2018.3874       1572.7674
  21826985.0884     798071.87648    787415.96947  21826984.4614   21826987.8674
     -2453.0934      -1911.4974
  24682628.8784   -2153462.59547  -1578319.00545  24682628.6624   24682639.0014
      1426.5794       1111.6124
  21734515.7494    1698707.35849   1533664.47447  21734515.4064   21734525.1904
     -3749.0494      -2921.3394
  20721349.3304  -10251476.61549  -7603980.61947  20721349.0584   20721352.6644
     -1462.5494      -1139.6484
  21757664.2764  -11170453.04548  -8540382.73347  21757663.8024   21757664.3034
       470.9734        366.9944
 02  8  5  1 19  0.0010000  0  8G 3G25G31G 2G27G22G 1G13
  20943923.6654   -9933404.52649  -7581537.04147  20943923.8814   20943929.6264
      -575.0904       -448.1234
  24547907.6304   26550282.66647  21364782.60145  24547907.5684   24547916.7244
     -3641.7914      -2837.7594
  22120800.5344   -8890943.50548  -6912420.22546  22120799.2764   22120802.7944
      2007.2784       1564.1104
  21840993.1374     871704.18949    844791.78947  21840992.1774   21840999.7994
     -2458.1384      -1915.4364
  24674481.4244   -2196320.61947  -1611714.76945  24674479.1354   24674482.6054
      1428.0764       1112.7834
  21755937.7154    1811229.10248   1621343.72547  21755935.6024   21755937.5514
     -3754.8494      -2925.8534
  20729749.3594  -10207337.77349  -7569586.73047  20729748.7724   20729751.9294
     -1482.4914      -1155.1874
  21755017.4284  -11184359.25848  -8551218.73547  21755017.4844   21755018.1114
       453.6614        353.5034
 02  8  5  1 19 30.0010000  0  8G 3G25G31G 2G27G22G 1G13
  20947265.0574   -9915868.24648  -7567872.42947  20947264.2614   20947266.6344
      -593.7934       -462.6914
  24568707.9494   26659613.32847  21449975.19745  24568708.8284   24568722.9354
     -3646.6864      -2841.5714
  22109370.1834   -8951013.01048  -6959227.56146  22109369.0694   22109371.8124
      1997.5484       1556.5284
  21855041.7524     945505.51448    902299.34047  21855040.3464   21855043.5964
     -2461.6644      -1918.1754
  24666313.6294   -2239205.67747  -1645131.60145  24666313.8674   24666322.5814
      1431.0964       1115.1374
  21777377.5184    1923941.73149   1709171.73447  21777376.4084   21777385.9344
     -3759.0984      -2929.1704
  20738266.1524  -10162582.85149  -7534712.77747  20738265.0384   20738268.2534
     -1500.9624      -1169.5794
  21752473.8044  -11197728.13348  -8561636.03147  21752472.7864   21752474.3604
       437.8014        341.1434
 02  8  5  1 20  0.0010000  0  8G 3G25G31G 2G27G22G 1G13
  20950706.2954   -9897762.86749  -7553764.34247  20950705.2904   20950711.5544
      -612.6824       -477.4174
  24589541.7514   26769099.12947  21535288.67445  24589542.9344   24589556.8054
     -3651.7734      -2845.5324
  22097992.8334   -9010780.67948  -7005799.69446  22097992.1164   22097997.6554
      1987.5204       1548.7154
  21869102.9054    1019421.28749    959896.05647  21869102.0534   21869109.0054
     -2465.4184      -1921.1094
  24658135.7784   -2282170.34047  -1678610.49145  24658135.8604   24658145.4194
      1433.8234       1117.2634
  21798859.4284    2036790.24148   1797105.66647  21798858.1564   21798860.2504
     -3763.5294      -2932.6194
  20746889.2844  -10117264.97749  -7499400.15847  20746887.5314   20746891.8104
     -1519.6504      -1184.1444
  21750019.7074  -11210610.96848  -8571674.58447  21750018.3824   21750022.9054
       421.6154        328.5314
 02  8  5  1 20 30.0010000  0  8G 3G25G31G 2G27G22G 1G13
  20954261.4024   -9879072.67249  -7539200.45847  20954261.7384   20954268.3524
      -633.0384       -493.2794
  24610416.8694   26878754.92747  21620734.66045  24610416.1484   24610425.1364
     -3658.3264      -2850.6344
  22086676.3264   -9070228.15948  -7052122.40046  22086676.2714   22086685.2534
      1975.9544       1539.7054
  21883197.6154    1093465.74948   1017593.04847  21883196.1994   21883199.3604
     -2470.5444      -1925.0944
  24649955.7954   -2325198.86047  -1712139.09445  24649953.9984   24649957.4484
      1435.0714       1118.2374
  21820355.9664    2149788.05948   1885155.87147  21820354.5844   21820363.0264
     -3769.3384      -2937.1494
  20755620.1714  -10071368.79048  -7463636.88747  20755618.2614   20755625.6614
     -1539.7814      -1199.8294
  21747660.2614  -11222990.58348  -8581320.98946  21747659.9684   21747667.6874
       403.9684        314.7794
 02  8  5  1 21  0.0010000  0  8G 3G25G31G 2G27G22G 1G13
  20957935.5264   -9859781.05448  -7524167.99147  20957935.7144   20957939.7874
      -651.8624       -507.9434
  24631324.1394   26988596.99047  21706325.83345  24631321.7654   24631324.6024
     -3663.4064      -2854.5994
  22075433.7374   -9129336.46048  -7098180.79346  22075431.7784   22075438.0134
      1965.8034       1531.7924
  21897310.5094    1167653.72249   1075401.87847  21897309.5844   21897316.7934
     -2474.0874      -1927.8644
  24641751.8494   -2368274.60447  -1745704.50345  24641751.6224   24641761.3654
      1437.8534       1120.3994
  21841891.4784    2262949.78748   1973333.89147  21841891.5814   21841896.9574
     -3773.5714      -2940.4454
  20764463.5024  -10024877.84448  -7427410.14247  20764462.8444   20764472.4144
     -1558.3824      -1214.3264
  21745403.2894  -11234848.69648  -8590561.02346  21745403.6654   21745411.7464
       387.7914        302.1734
 02  8  5  1 21 30.0010000  0  8G 3G25G31G 2G27G22G 1G13
  20961716.6954   -9839917.13948  -7508689.68347  20961714.6504   20961719.7364
      -671.7044       -523.4054
  24652253.0454   27098595.65247  21792038.94345  24652253.4984   24652257.9054
     -3669.2384      -2859.1464
  22064245.1824   -9188132.77548  -7143996.04046  22064244.4104   22064248.7114
      1954.6414       1523.0944
  21911453.4254    1241954.45048   1133298.53847  21911452.0534   21911455.6184
     -2478.5274      -1931.3154
  24633540.2164   -2411426.63147  -1779329.40645  24633539.5554   24633549.7904
      1439.7194       1121.8514
  21863451.7684    2376243.68748   2061614.77147  21863450.0344   21863455.8744
     -3778.6774      -2944.4234
  20773418.7384   -9977822.07448  -7390743.27947  20773418.9454   20773427.2554
     -1577.9424      -1229.5674
  21743243.9204  -11246213.34948  -8599416.54147  21743243.9394   21743248.8884
       370.5634        288.7494
 02  8  5  1 22  0.0010000  0  8G 3G25G31G 2G27G22G 1G13
  20965607.1204   -9819451.71149  -7492742.53447  20965606.7284   20965613.9104
      -691.4994       -538.8334
  24673214.9594   27208778.81647  21877895.85645  24673216.0034   24673224.4454
     -3675.1514      -2863.7394
  22053122.9654   -9246585.48248  -7189543.51746  22053122.8544   22053125.2544
      1943.3874       1514.3264
  21925614.2574    1316395.22949   1191304.38947  21925613.9314   21925621.1514
     -2482.9314      -1934.7554
  24625326.1074   -2454625.72147  -1812990.91945  24625325.0694   24625327.0214
      1441.4814       1123.2304
  21885036.7884    2489696.49848   2150019.61647  21885036.9994   21885045.5944
     -3783.6594      -2948.3074
  20782490.7834   -9930172.54748  -7353613.76247  20782490.2654   20782494.2874
     -1597.4654      -1244.7774
  21741183.7024  -11257053.70648  -8607863.54047  21741184.0404   21741185.4114
       353.3404        275.3294
 02  8  5  1 22 30.0010000  0  8G 3G25G31G 2G27G22G 1G13
  20969608.4014   -9798428.26549  -7476360.55047  20969608.9554   20969614.5684
      -710.4384       -553.5904
  24694206.8644   27319102.83947  21963862.49645  24694208.1034   24694219.6424
     -3680.1194      -2867.6204
  22042056.1354   -9304735.69648  -7234855.28246  22042055.3704   22042060.4974
      1932.9144       1506.1654
  21939802.9754    1390931.31648   1249384.42547  21939800.8204   21939805.3694
     -2486.4214      -1937.4674
  24617083.2034   -2497915.27347  -1846722.91645  24617082.1414   24617091.0624
      1444.0994       1125.2644
  21906656.7584    2603262.78448   2238512.76846  21906653.6404   21906655.7484
     -3787.7334      -2951.4774
  20791664.2784   -9881973.33549  -7316055.94447  20791663.6904   20791666.5484
     -1616.1474      -1259.3344
  21739213.6734  -11267411.80448  -8615934.75947  21739213.1544   21739214.1984
       336.8664        262.4924
 02  8  5  1 23  0.0010000  0  8G 3G25G31G 2G27G22G 1G13
  20973731.2054   -9776790.78548  -7459500.20346  20973729.8444   20973731.8884
      -731.6974       -570.1514
  24715239.1864   27429622.88947  22049981.89745  24715239.6274   24715250.5234
     -3687.4574      -2873.3454
  22031050.3424   -9362524.96648  -7279885.86046  22031050.9784   22031063.3624
      1920.0484       1496.1414
  21954009.7424    1465616.78249   1307580.95847  21954009.8024   21954017.6354
     -2492.2134      -1941.9874
  24608836.2884   -2541239.11247  -1880481.70445  24608836.6574   24608847.1474
      1444.4704       1125.5574
  21928288.9814    2716996.04548   2327136.10847  21928288.5424   21928298.8384
     -3794.1054      -2956.4484
  20800951.7414   -9833168.91749  -7278026.54247  20800950.9914   20800953.8584
     -1637.1014      -1275.6634
  21737343.3994  -11277230.42848  -8623585.61447  21737342.8664   21737344.8824
       318.0524        247.8334
 02  8  5  1 23 30.0010000  0  8G 3G25G31G 2G27G22G 1G13
  20977962.2334   -9754530.67549  -7442154.65747  20977961.2484   20977967.7854
      -752.9974       -586.7524
  24736317.1414   27540346.81847  22136260.16545  24736314.7664   24736321.2204
     -3694.7974      -2879.0654
  22020134.4224   -9419942.54048  -7324626.77546  22020131.4514   22020136.2794
      1907.0704       1486.0224
  21968256.1774    1540459.21748   1365899.67347  21968254.2284   21968259.6084
     -2497.9234      -1946.4314
  24600595.2844   -2584588.57247  -1914260.39345  24600592.6904   24600596.7374
      1444.8124       1125.8184
  21949976.4924    2830902.81848   2415894.61746  21949973.6404   21949974.6984
     -3800.3414      -2961.3014
  20810355.4934   -9783751.20449  -7239519.24547  20810354.1554   20810357.5084
     -1658.0924      -1292.0194
  21735578.3384  -11286499.43448  -8630808.18347  21735576.5284   21735581.3674
       299.2024        233.1424
 02  8  5  1 24  0.0010000  0  8G 3G25G31G 2G27G22G 1G13
  20982312.6894   -9731659.66549  -7424333.01147  20982313.2284   20982319.7584
      -771.9304       -601.5064
  24757425.9974   27651262.53747  22222687.93545  24757424.6554   24757428.2374
     -3699.8414      -2882.9874
  22009277.4564   -9476997.63848  -7369085.17146  22009276.2094   22009279.5984
      1896.3724       1477.6874
  21982522.1514    1615444.76849   1424330.04847  21982521.7054   21982529.0894
     -2501.2554      -1949.0324
  24592334.0624   -2627974.80947  -1948067.73545  24592333.0894   24592340.4894
      1447.4464       1127.8774
  21971671.3934    2944969.21248   2504777.48847  21971670.9044   21971680.4274
     -3804.2434      -2964.3494
  20819872.5794   -9733732.34649  -7200543.51347  20819870.3694   20819875.8194
     -1676.6934      -1306.5164
  21733912.2724  -11295229.22848  -8637610.55846  21733912.2954   21733919.9674
       282.5764        220.1884
 02  8  5  1 24 30.0010000  0  8G 3G25G31G 2G27G22G 1G13
  20986775.8624   -9708220.66448  -7406068.83047  20986776.6974   20986780.1674
      -792.3274       -617.3954
  24778553.3124   27762326.62447  22309231.27445  24778555.5994   24778562.3944
     -3706.1314      -2887.8914
  21998479.3384   -9533730.75248  -7413292.68546  21998479.2464   21998483.9214
      1884.1264       1468.1494
  21996813.4004    1690529.19549   1482837.33247  21996811.4774   21996817.0874
     -2505.9674      -1952.7014
  24584060.5454   -2671440.83447  -1981937.33545  24584060.4384   24584068.3044
      1448.6374       1128.8114
  21993406.3384    3059150.18648   2593749.71546  21993405.9334   21993408.4684
     -3809.4914      -2968.4314
  20829492.3364   -9683155.76748  -7161133.16647  20829490.9794   20829500.2794
     -1696.7114      -1322.1144
  21732344.8674  -11303461.25448  -8644025.05446  21732346.5754   21732353.7534
       264.5444        206.1364
 02  8  5  1 25  0.0010000  0  8G 3G25G31G 2G27G22G 1G13
  20991349.1974   -9684196.13548  -7387348.48947  20991347.1784   20991351.7194
      -811.2864       -632.1744
  24799716.8794   27873555.66547  22395903.12345  24799716.3724   24799729.5354
     -3711.0154      -2891.6994
  21987746.9784   -9590122.06548  -7457233.89646  21987746.4054   21987752.7474
      1873.2584       1459.6814
  22011120.2374    1765728.33049   1541434.13447  22011120.1764   22011127.3574
     -2509.2184      -1955.2364
  24575784.7854   -2714968.71447  -2015855.08045  24575782.3974   24575785.5664
      1451.2534       1130.8454
  22015155.1274    3173461.11848   2682823.08646  22015153.6494   22015161.5614
     -3813.1864      -2971.3134
  20839224.8584   -9632004.61448  -7121275.08447  20839224.8994   20839233.8294
     -1715.3024      -1336.6014
  21730882.8044  -11311176.35648  -8650036.76747  21730882.7994   21730885.4794
       247.8664        193.1404
 02  8  5  1 25 30.0010000  0  8G 3G25G31G 2G27G22G 1G13
  20996029.9184   -9659578.50949  -7368165.83747  20996029.7214   20996036.6424
      -829.4964       -646.3644
  24820916.9134   27984957.04547  22482709.25345  24820915.9444   24820927.7164
     -3715.2944      -2895.0314
  21977079.9994   -9646161.10248  -7500900.62146  21977078.7014   21977088.0274
      1863.0334       1451.7174
  22025456.7484    1841048.99749   1600125.49847  22025454.6124   22025460.4584
     -2511.7254      -1957.1884
  24567482.4034   -2758550.45147  -2049814.79545  24567483.4404   24567494.3634
      1454.5754       1133.4364
  22036932.4624    3287907.80548   2772002.38346  22036933.2374   22036939.8624
     -3816.2074      -2973.6674
  20849072.7004   -9580271.22248  -7080963.32247  20849072.7204   20849078.1944
     -1733.1894      -1350.5374
  21729517.0354  -11318365.47848  -8655638.64647  21729517.1794   21729517.4164
       231.8204        180.6384
 02  8  5  1 26  0.0010000  0  8G 3G25G31G 2G27G22G 1G13
  21000819.3454   -9634414.66549  -7348557.57947  21000819.5884   21000825.0824
      -847.2844       -660.2234
  24842139.9254   28096483.86547  22569613.08445  24842139.7784   24842150.4564
     -3719.1054      -2898.0064
  21966481.2054   -9701892.38748  -7544327.56946  21966478.5964   21966483.0884
      1853.1774       1444.0284
  22039800.6104    1916442.43349   1658873.70147  22039800.7784   22039806.9834
     -2513.6884      -1958.7194
  24559176.5384   -2802232.39047  -2083852.67945  24559173.9744   24559179.9874
      1458.3974       1136.4094
  22058734.2414    3402441.46248   2861249.31746  22058731.0804   22058734.6454
     -3818.5814      -2975.5164
  20859022.3044   -9528003.02549  -7040234.85047  20859021.9394   20859024.5364
     -1750.5594      -1364.0714
  21728241.3444  -11325073.92149  -8660865.98847  21728240.8134   21728241.1134
       216.2254        168.4864
 02  8  5  1 26 30.0010000  0  8G 3G25G31G 2G27G22G 1G13
  21005717.8644   -9608700.31648  -7328520.47746  21005715.7674   21005718.3474
      -867.4484       -675.9304
  24863395.2484   28208139.00846  22656616.99944  24863392.5364   24863399.0294
     -3725.1484      -2902.7114
  21955935.9784   -9757309.66948  -7587509.77546  21955935.1214   21955937.6724
      1840.8444       1434.4204
  22054164.6394    1991911.32549   1717680.56847  22054162.3914   22054168.4754
     -2517.9744      -1962.0584
  24550846.7154   -2846010.31147  -2117965.28645  24550845.6104   24550849.4114
      1459.7254       1137.4404
  22080537.5494    3517063.68648   2950565.37347  22080537.6174   22080546.9234
     -3823.3584      -2979.2424
  20869071.8244   -9475196.98549  -6999087.30047  20869071.2584   20869073.0754
     -1770.2794      -1379.4384
  21727054.8644  -11331296.53748  -8665714.74947  21727054.1684   21727056.4214
       198.1784        154.4244
 02  8  5  1 27  0.0010000  0  8G 3G25G31G 2G27G22G 1G13
  21010720.7604   -9582382.40349  -7308013.02947  21010719.4214   21010726.3204
      -886.9764       -691.1514
  24884676.7364   28319975.58246  22743762.24344  24884673.2634   24884680.1144
     -3730.5304      -2906.9114
  21945457.6794   -9812356.95148  -7630403.64846  21945457.4404   21945461.3664
      1829.0474       1425.2294
  22068547.2934    2067507.43749   1776586.70547  22068547.6334   22068553.7694
     -2521.6184      -1964.8984
  24542499.3564   -2889830.49047  -2152110.82445  24542499.9724   24542510.6724
      1461.7554       1139.0294
  22102387.1564    3631826.29948   3039990.77046  22102384.0414   22102384.9234
     -3827.3944      -2982.3824
  20879232.8924   -9421799.99249  -6957479.26747  20879231.8994   20879233.9474
     -1789.4084      -1394.3444
  21725969.6264  -11336978.06148  -8670141.86147  21725968.9954   21725975.7094
       180.7154        140.8164
 02  8  5  1 27 30.0010000  0  8G 3G25G31G 2G27G22G 1G13
  21015841.7764   -9555466.57149  -7287039.57347  21015841.9294   21015848.2384
      -907.0594       -706.8024
  24905981.2144   28431987.48547  22831044.22545  24905983.8184   24905995.9754
     -3736.5364      -2911.5804
  21935051.0734   -9867037.24948  -7673011.59046  21935049.9634   21935056.9274
      1816.6184       1415.5474
  22082958.4024    2143224.43849   1835586.90347  22082956.2104   22082962.1534
     -2525.7954      -1968.1534
  24534158.4074   -2933698.00047  -2186293.29845  24534155.5744   24534162.3064
      1463.1384       1140.1094
  22124241.0934    3746721.46848   3129519.45147  22124240.2674   22124249.5864
     -3831.9514      -2985.9384
  20889502.9524   -9367818.07249  -6915415.43447  20889501.7844   20889505.9314
     -1809.0554      -1409.6544
  21724987.5944  -11342122.77948  -8674150.66546  21724988.6074   21724996.5024
       162.6054        126.7034
 02  8  5  1 28  0.0010000  0  8G 3G25G31G 2G27G22G 1G13
  21021083.5644   -9527942.98648  -7265592.59147  21021083.1454   21021086.0404
      -928.0984       -723.1914
  24927334.1594   28544184.02947  22918469.92945  24927333.5714   24927346.3364
     -3743.4824      -2916.9924
  21924714.8544   -9921338.27648  -7715324.04446  21924714.2894   21924724.1904
      1803.1354       1405.0404
  22097389.7694    2219070.81049   1894688.04547  22097389.5134   22097394.6564
     -2530.8774      -1972.1124
  24525804.8554   -2977602.62847  -2220504.63745  24525804.5124   24525808.8134
      1463.5664       1140.4404
  22146136.3814    3861757.22048   3219157.74146  22146136.0034   22146139.7104
     -3837.4084      -2990.1864
  20899885.6654   -9313241.88248  -6872888.50247  20899883.9064   20899891.8784
     -1829.6194      -1425.6794
  21724116.0014  -11346719.42748  -8677732.41247  21724117.0524   21724121.6204
       143.5494        111.8564
 02  8  5  1 28 30.0010000  0  8G 3G25G31G 2G27G22G 1G13
  21026437.7444   -9499803.67548  -7243665.91947  21026435.5074   21026440.4264
      -946.0694       -737.1984
  24948723.7084   28656572.51347  23006045.24645  24948722.4254   24948732.7124
     -3747.2534      -2919.9374
  21914462.3394   -9975249.73448  -7757332.91646  21914460.5614   21914464.2994
      1792.6944       1396.9004
  22111849.5534    2295053.11849   1953894.97647  22111847.8564   22111853.3384
     -2532.8144      -1973.6214
  24517438.6194   -3021536.03547  -2254738.43945  24517437.8634   24517448.9624
      1467.1044       1143.1994
  22168053.6804    3976939.56348   3308910.15146  22168052.0344   22168058.4384
     -3839.6774      -2991.9554
  20910383.3964   -9258064.09548  -6829892.77847  20910383.6084   20910391.6564
     -1847.0914      -1439.2944
  21723351.2284  -11350758.73448  -8680879.89347  21723351.4084   21723352.9664
       127.5074         99.3564
 02  8  5  1 29  0.0010000  0  8G 3G25G31G 2G27G22G 1G13
  21031904.3034   -9471055.82849  -7221264.94047  21031903.9934   21031911.0164
      -968.9274       -755.0104
  24970153.0434   28769145.40847  23093764.25045  24970150.5234   24970154.6034
     -3755.9944      -2926.7364
  21904277.9514  -10028776.31948  -7799041.79146  21904276.8624   21904278.2554
      1777.2414       1384.8574
  22126331.3734    2371162.81648   2013201.31747  22126331.5674   22126336.8284
     -2539.5924      -1978.9044
  24509072.7384   -3065504.50947  -2288999.63145  24509073.0314   24509080.7954
      1465.7104       1142.1134
  22189994.3524    4092259.27948   3398769.72247  22189994.3614   22190002.6434
     -3846.8094      -2997.5144
  20921000.3164   -9202292.29449  -6786434.20947  20921000.4174   20921004.7944
     -1869.4694      -1456.7294
  21722688.7864  -11354246.39349  -8683597.53747  21722688.5024   21722689.0224
       106.4994         82.9874
 02  8  5  1 29 30.0010000  0  8G 3G25G31G 2G27G22G 1G13
  21037490.2564   -9441707.31048  -7198395.91147  21037490.6024   21037495.8424
      -988.7974       -770.4924
  24991609.6254   28881894.46146  23181620.54445  24991604.1334   24991611.3984
     -3761.7134      -2931.2004
  21894159.5834  -10081923.06448  -7840454.71846  21894158.9234   21894165.9574
      1764.7074       1375.0924
  22140838.0484    2447390.97649   2072599.81147  22140836.2114   22140842.2654
     -2543.3714      -1981.8474
  24500705.6034   -3109515.72547  -2323294.03445  24500703.7874   24500705.9774
      1467.2684       1143.3244
  22211972.8004    4207707.14248   3488729.05446  22211969.6434   22211971.9894
     -3850.8724      -3000.6774
  20931726.9424   -9145934.73549  -6742519.23647  20931726.8044   20931729.0494
     -1888.8074      -1471.7974
  21722128.3154  -11357188.59148  -8685890.14547  21722127.2934   21722128.8574
        88.4664         68.9334
 02  8  5  1 30  0.0010000  0  8G 3G25G31G 2G27G22G 1G13
  21043191.1984   -9411773.30148  -7175070.76346  21043189.4174   21043192.1784
     -1007.8654       -785.3454
  25013086.0124   28994804.21446  23269602.09945  25013086.2344   25013097.4754
     -3766.6144      -2935.0224
  21884112.5244  -10134702.41048  -7881581.45946  21884112.4544   21884121.4094
      1752.8724       1365.8734
  22155362.6194    2523721.25548   2132078.02947  22155362.7514   22155367.8304
     -2546.3064      -1984.1334
  24492310.1374   -3153583.91847  -2357632.84945  24492309.6314   24492319.9594
      1469.5634       1145.1164
  22233952.3144    4323266.11448   3578775.01747  22233951.7124   22233961.6934
     -3854.0654      -3003.1704
  20942560.6574   -9089006.99049  -6698159.96947  20942560.0704   20942561.9674
     -1907.3624      -1486.2554
  21721666.5334  -11359598.70248  -8687768.12047  21721665.1464   21721670.6944
        71.1364         55.4284
 02  8  5  1 30 30.0010000  0  8G 3G25G31G 2G27G22G 1G13
  21048998.7914   -9381230.53249  -7151271.19247  21048997.5904   21049004.0304
     -1027.9004       -800.9654
  25034603.8624   29107897.84147  23357726.85845  25034603.1434   25034617.7034
     -3772.4444      -2939.5544
  21874148.0434  -10187088.53948  -7922401.75046  21874145.9394   21874151.9364
      1739.9674       1355.8164
  22169911.7494    2600175.79249   2191652.93147  22169909.9964   22169916.5674
     -2550.1924      -1987.1634
  24483922.1414   -3197684.93447  -2391997.27545  24483920.4794   24483928.5814
      1470.9064       1146.1634
  22255976.8624    4438957.77248   3668924.37646  22255975.6454   22255977.6144
     -3858.2194      -3006.4044
  20953505.6304   -9031486.44849  -6653338.77847  20953504.9334   20953508.0694
     -1926.8724      -1501.4594
  21721310.5844  -11361452.03448  -8689212.21147  21721311.0304   21721318.0854
        52.7944         41.1364
 02  8  5  1 31  0.0010000  0  8G 3G25G31G 2G27G22G 1G13
  21054924.3644   -9350085.01749  -7127001.86947  21054924.4774   21054930.9044
     -1048.3864       -816.9264
  25056161.2844   29221168.49947  23445989.54145  25056159.3484   25056173.3524
     -3778.7474      -2944.4614
  21864256.1384  -10239085.14548  -7962918.49746  21864255.1854   21864258.7094
      1726.5304       1345.3444
  22184482.8054    2676747.31348   2251319.13247  22184482.6754   22184487.4864
     -2554.4774      -1990.5034
  24475526.3164   -3241824.66447  -2426391.80945  24475524.9584   24475528.3924
      1471.7714       1146.8314
  22278009.5384    4554774.26848   3759170.92946  22278008.1164   22278016.3514
     -3862.7714      -3009.9524
  20964562.0554   -8973379.92649  -6608060.96847  20964560.7254   20964565.6404
     -1946.8094      -1516.9934
  21721066.1124  -11362753.39748  -8690226.20747  21721066.6844   21721070.2324
        33.9994         26.4934
 02  8  5  1 31 30.0010000  0  8G 3G25G31G 2G27G22G 1G13
  21060967.5194   -9318349.67448  -7102273.01046  21060967.4384   21060970.2114
     -1067.6014       -831.8964
  25077755.7784   29334602.97047  23534379.90745  25077754.0084   25077758.1434
     -3783.8394      -2948.4504
  21854433.6334  -10290702.49848  -8003139.69846  21854432.9884   21854435.5564
      1714.2594       1335.7814
  22199073.2914    2753421.96449   2311065.56647  22199071.7504   22199078.4664
     -2557.4594      -1992.8274
  24467106.8344   -3286014.94747  -2460825.75145  24467108.4774   24467118.3364
      1473.8494       1148.4584
  22300068.7484    4670701.03048   3849503.52946  22300069.7934   22300076.8464
     -3866.0044      -3012.4714
  20975725.9574   -8914700.67648  -6562336.85747  20975724.6154   20975731.6664
     -1965.4684      -1531.5344
  21720924.7294  -11363513.94149  -8690818.81147  21720924.9644   21720925.5364
        16.3684         12.7534
 02  8  5  1 32  0.0010000  0  8G 3G25G31G 2G27G22G 1G13
  21067117.2054   -9286028.27548  -7077087.57747  21067115.0694   21067120.2624
     -1087.7314       -847.5824
  25099373.6004   29448197.47947  23622894.96145  25099370.8824   25099374.5164
     -3789.7734      -2953.0664
  21844677.2274  -10341941.39648  -8043066.03046  21844677.4104   21844683.5244
      1701.0434       1325.4864
  22213683.8094    2830194.93849   2370888.73047  22213683.5714   22213688.0064
     -2561.3034      -1995.8194
  24458694.2004   -3330258.91647  -2495301.56245  24458691.8884   24458700.3834
      1475.0454       1149.3794
  22322156.1884    4786732.85348   3939917.87646  22322152.8884   22322156.7414
     -3870.0324      -3015.6074
  20986998.0254   -8855452.81448  -6516169.65847  20986997.8764   20987006.0944
     -1984.9814      -1546.7394
  21720882.9554  -11363735.95949  -8690991.80647  21720882.5574   21720883.7594
        -2.1484         -1.6744
 02  8  5  1 32 30.0010000  0  8G 3G25G31G 2G27G22G 1G13
  21073377.2224   -9253109.45149  -7051436.48447  21073377.4584   21073384.7934
     -1106.8414       -862.4764
  25121012.9214   29561963.11647  23711543.35645  25121014.4684   25121023.6654
     -3794.6134      -2956.8424
  21835002.6534  -10392787.61148  -8082686.46546  21835001.0314   21835009.2804
      1688.7164       1315.8854
  22228313.2304    2907076.88249   2430796.68347  22228311.8344   22228318.3064
     -2564.0674      -1997.9764
  24450269.7024   -3374543.94747  -2529809.29645  24450268.3004   24450272.5804
      1477.2834       1151.1314
  22344249.4494    4902879.61248   4030421.87647  22344248.9164   22344259.0214
     -3873.0024      -3017.9254
  20998385.8924   -8795625.13748  -6469550.66147  20998385.8414   20998390.6004
     -2003.4604      -1561.1384
  21720944.0664  -11363406.23948  -8690734.87547  21720943.1414   21720946.1094
       -19.7524        -15.3924
 02  8  5  1 33  0.0010000  0  8G 3G25G31G 2G27G22G 1G13
  21079751.1334   -9219623.53149  -7025343.50147  21079751.5914   21079756.9074
     -1128.4674       -879.3264
  25142683.3404   29675868.85347  23800300.87945  25142686.7244   25142699.6294
     -3801.9554      -2962.5514
  21825399.4094  -10443269.06148  -8122022.62946  21825397.5974   21825402.4844
      1673.7844       1304.2444
  22242958.3534    2984036.32949   2490765.14747  22242958.4054   22242963.2824
     -2569.3994      -2002.1294
  24441821.5384   -3418899.82947  -2564372.28245  24441821.5604   24441831.0904
      1476.8094       1150.7594
  22366376.9404    5019109.49648   4120990.61346  22366375.3444   22366376.8184
     -3878.4874      -3022.1934
  21009878.1224   -8735248.66649  -6422504.06347  21009878.1014   21009880.3204
     -2024.4924      -1577.5254
  21721101.5284  -11362553.74648  -8690070.56447  21721101.3314   21721108.4404
       -39.9924        -31.1654
 02  8  5  1 33 30.0010000  0  7G 3G31G 2G27G22G 1G13
  21086247.1434   -9185517.24048  -6998767.23146  21086245.0134   21086247.3034
     -1145.3274       -892.4604
  21815874.3794  -10493330.08348  -8161031.15446  21815873.5454   21815875.1244
      1663.5444       1296.2664
  22257627.8134    3061125.37449   2550834.47447  22257626.1434   22257632.8864
     -2569.9094      -2002.5274
  24433384.1774   -3463272.69747  -2598948.52945  24433381.8144   24433388.1844
      1481.2724       1154.2374
  22388513.0664    5135473.79848   4211664.05846  22388511.6824   22388519.8404
     -3879.1834      -3022.7424
  21021482.8964   -8674270.93649  -6374988.96547  21021482.2324   21021483.9534
     -2040.7374      -1590.1844
  21721371.4634  -11361123.96648  -8688956.40747  21721372.6214   21721380.3704
       -55.4484        -43.2074
 02  8  5  1 34  0.0010000  0  7G 3G31G 2G27G22G 1G13
  21092840.2314   -9150837.23449  -6971743.83647  21092839.3004   21092846.3954
     -1166.3534       -908.8494
  21806418.7614  -10543013.88648  -8199745.73746  21806418.5484   21806421.8314
      1649.0444       1284.9684
  22272313.2644    3138297.09349   2610968.34447  22272313.2004   22272318.3374
     -2574.5204      -2006.1194
  24424928.9414   -3507707.75447  -2633573.11745  24424927.7004   24424931.6564
      1481.3574       1154.3004
  22410673.2534    5251925.06348   4302405.36046  22410674.0464   22410679.6864
     -3883.9234      -3026.4364
  21033191.8314   -8612738.40949  -6327041.55647  21033190.5274   21033192.9294
     -2061.1104      -1606.0594
  21721749.1904  -11359160.99248  -8687426.77647  21721749.8164   21721754.2544
       -75.0964        -58.5164
 02  8  5  1 34 30.0010000  0  7G 3G31G 2G27G22G 1G13
  21099550.9864   -9115565.76149  -6944259.48247  21099551.7624   21099558.2814
     -1185.5254       -923.7884
  21797032.7874  -10592300.04348  -8238150.57046  21797032.5074   21797043.1884
      1636.2784       1275.0284
  22287017.8274    3215568.33349   2671179.63947  22287015.8074   22287022.0464
     -2577.2894      -2008.2784
  24416457.0734   -3552186.22847  -2668231.58845  24416456.9144   24416468.3104
      1483.3584       1155.8664
  22432858.5934    5368479.51248   4393226.96146  22432856.0524   22432859.7084
     -3886.8174      -3028.6874
  21045007.6934   -8550634.05049  -6278648.54747  21045005.9404   21045011.1364
     -2079.5964      -1620.4654
  21722231.4604  -11356646.26749  -8685467.24047  21722231.2324   21722232.5844
       -92.9984        -72.4664
 02  8  5  1 35  0.0010000  0  7G 3G31G 2G27G22G 1G13
  21106385.4704   -9079680.98748  -6916297.31947  21106385.1264   21106387.0774
     -1207.0924       -940.5894
  21787740.8734  -10641164.39948  -8276226.75046  21787739.3074   21787743.7034
      1621.0304       1263.1404
  22301744.3444    3292959.68149   2731484.64847  22301744.1974   22301749.1394
     -2582.4224      -2012.2764
  24407995.9294   -3596685.84447  -2702906.58945  24407994.0674   24408000.7144
      1482.9444       1155.5404
  22455053.4124    5485156.99348   4484144.50646  22455053.4364   22455062.0714
     -3891.9974      -3032.7274
  21056934.9714   -8487936.76848  -6229793.49947  21056934.3354   21056942.2244
     -2100.4934      -1636.7484
  21722820.7114  -11353556.35349  -8683059.51847  21722819.9634   21722820.0814
      -113.3254        -88.3054
 02  8  5  1 35 30.0010000  0  7G 3G31G 2G27G22G 1G13
  21113331.6044   -9043166.57249  -6887844.56947  21113329.7414   21113335.5644
     -1226.6314       -955.8174
  21778528.0794  -10689587.61648  -8313959.06046  21778526.8814   21778529.9164
      1607.7164       1252.7654
  22316497.1524    3370487.03849   2791895.50747  22316495.4614   22316501.9324
     -2585.4814      -2014.6614
  24399527.0114   -3641188.92147  -2737584.22345  24399527.0854   24399530.2154
      1484.4874       1156.7354
  22477292.5904    5601973.05248   4575170.00946  22477290.6344   22477291.8224
     -3895.1444      -3035.1724
  21068981.7574   -8424630.27748  -6180463.74247  21068981.6194   21068989.6474
     -2119.3514      -1651.4424
  21723519.6454  -11349873.10148  -8680189.44247  21723518.3594   21723521.3084
      -131.6694       -102.6014
 02  8  5  1 36  0.0010000  0  7G 3G31G 2G27G22G 1G13
  21120381.2044   -9006103.48549  -6858964.16847  21120381.1734   21120388.4474
     -1244.8604       -970.0244
  21769380.3344  -10737647.74848  -8351408.48447  21769380.5124   21769385.1334
      1595.6194       1243.3404
  22331259.7934    3448068.62948   2852348.75547  22331259.9994   22331265.1504
     -2587.2084      -2016.0064
  24391037.4844   -3685775.36347  -2772326.84145  24391036.7694   24391047.5834
      1487.2964       1158.9334
  22499524.5794    5718845.37948   4666239.31646  22499524.1154   22499531.7754
     -3896.9724      -3036.6034
  21081131.1024   -8360796.03249  -6130722.75347  21081131.0234   21081136.7754
     -2136.8814      -1665.1024
  21724314.5094  -11345675.53948  -8676918.57847  21724313.6614   21724320.2174
      -148.7894       -115.9424
 02  8  5  1 36 30.0010000  0  7G 3G31G 2G27G22G 1G13
  21127548.7054   -8968448.24948  -6829622.38247  21127549.4204   21127553.8284
     -1265.2304       -985.8944
  21760309.5704  -10785298.49648  -8388538.91946  21760309.7894   21760315.5024
      1581.3124       1232.1914
  22346041.2584    3525747.19149   2912877.44347  22346040.0384   22346046.7054
     -2591.0504      -2019.0014
  24382550.2244   -3730400.53347  -2807099.64645  24382549.0634   24382554.1714
      1487.9564       1159.4434
  22521783.8854    5835815.88148   4757385.21746  22521783.7974   22521790.4694
     -3900.8394      -3039.6154
  21093389.6334   -8296391.24149  -6080537.19847  21093389.3704   21093392.5944
     -2156.5234      -1680.4064
  21725218.7494  -11340919.05448  -8673212.17347  21725219.5804   21725225.1004
      -168.0264       -130.9324
 02  8  5  1 37  0.0010000  0  7G 3G31G 2G27G22G 1G13
  21134838.9494   -8930162.32248  -6799789.29347  21134836.3134   21134839.4174
     -1285.5054      -1001.6904
  21751329.1084  -10832498.60148  -8425318.25846  21751326.7804   21751334.6984
      1566.9874       1221.0314
  22360849.5354    3603560.42748   2973511.19647  22360849.4674   22360853.8224
     -2594.8144      -2021.9344
  24374059.1404   -3775024.94847  -2841871.79045  24374058.5984   24374062.9664
      1488.6854       1160.0084
  22544075.9504    5952922.05648   4848636.72346  22544072.9694   22544075.6864
     -3904.6084      -3042.5494
  21105762.6064   -8231377.76149  -6029877.36247  21105761.8074   21105763.8374
     -2176.0554      -1695.6274
  21726242.4014  -11335563.40649  -8669038.91747  21726242.4564   21726244.5734
      -187.3214       -145.9644
 02  8  5  1 37 30.0010000  0  7G 3G31G 2G27G22G 1G13
  21142237.7104   -8891244.26049  -6769463.47947  21142237.7654   21142245.0874
     -1305.8884      -1017.5804
  21742438.5134  -10879243.61348  -8461742.93947  21742436.8694   21742440.0164
      1552.4344       1209.6884
  22375683.0414    3681509.57849   3034250.74547  22375681.2634   22375687.1954
     -2598.6384      -2024.9144
  24365559.7034   -3819645.77447  -2876641.21045  24365560.5274   24365572.6174
      1489.1654       1160.3864
  22566375.7574    6070164.28548   4939994.30646  22566375.8214   22566385.7614
     -3908.4434      -3045.5404
  21118250.1834   -8165754.37649  -5978742.27847  21118249.0324   21118251.5434
     -2195.7134      -1710.9444
  21727378.6524  -11329605.10849  -8664396.08247  21727378.4704   21727377.8864
      -206.7694       -161.1194
 02  8  5  1 38  0.0020000  0  7G 3G31G 2G27G22G 1G13
  21149744.8154   -8851799.50049  -6738727.22647  21149745.5884   21149751.1954
     -1324.0914      -1031.7604
  21733608.3234  -10925639.18748  -8497895.28747  21733607.4624   21733610.4874
      1540.0414       1200.0324
  22390521.2064    3759489.42648   3095014.33747  22390521.4684   22390526.5314
     -2600.2344      -2026.1574
  24357058.5004   -3864370.09247  -2911491.29045  24357056.5024   24357059.0294
      1491.9144       1162.5224
  22588699.3614    6187438.32748   5031376.68446  22588699.0014   22588702.6694
     -3909.9894      -3046.7434
  21130832.3364   -8099626.30749  -5927213.91547  21130830.4794   21130835.4894
     -2213.1174      -1724.5084
  21728606.0284  -11323149.59049  -8659365.80847  21728605.0604   21728606.6524
      -224.0344       -174.5734
 02  8  5  1 38 30.0020000  0  7G 3G31G 2G27G22G 1G13
  21157365.4384   -8811788.32248  -6707549.70147  21157364.0604   21157365.0764
     -1343.5854      -1046.9464
  21724851.8724  -10971636.81048  -8533737.56846  21724852.1714   21724857.5224
      1526.2284       1189.2684
  22405374.0854    3837536.62849   3155830.28247  22405372.4414   22405378.0964
     -2603.1124      -2028.4014
  24348534.6094   -3909151.60247  -2946385.86445  24348534.6084   24348538.8714
      1493.2724       1163.5884
  22611026.2264    6304777.54248   5122809.76746  22611024.7654   22611031.0384
     -3912.8714      -3048.9894
  21143515.6864   -8032956.01848  -5875263.02447  21143514.0344   21143522.3714
     -2231.7834      -1739.0514
  21729935.3704  -11316153.04648  -8653913.93647  21729933.9874   21729938.0544
      -242.6584       -189.0844
 02  8  5  1 39  0.0020000  0  7G 3G31G 2G27G22G 1G13
  21165083.5814   -8771197.56349  -6675920.54647  21165082.7974   21165089.2164
     -1362.8824      -1061.9894
  21716174.3584  -11017223.33848  -8569259.57546  21716173.2134   21716183.3384
      1512.4664       1178.5464
  22420240.2304    3915664.93949   3216709.56747  22420240.5324   22420245.6794
     -2605.8024      -2030.4964
  24339997.3444   -3953978.19747  -2981315.65445  24339998.3474   24340007.5654
      1494.7384       1164.7354
  22633365.5954    6422196.59048   5214305.16346  22633365.9824   22633374.9124
     -3915.4814      -3051.0264
  21156306.5304   -7965729.97348  -5822879.06147  21156306.5664   21156314.9384
     -2250.3474      -1753.5184
  21731366.5654  -11308602.03148  -8648029.97347  21731367.2094   21731374.7854
      -261.1284       -203.4784
 02  8  5  1 39 30.0020000  0  7G 3G31G 2G27G22G 1G13
  21172924.3204   -8729984.18349  -6643806.13547  21172924.7784   21172931.8004
     -1383.3024      -1077.9004
  21707592.1914  -11062352.96848  -8604425.53646  21707590.7914   21707593.7734
      1497.5474       1166.9184
  22435132.9094    3993917.06149   3277685.20347  22435131.2214   22435136.4084
     -2609.5834      -2033.4424
  24331476.9374   -3998805.81947  -3016246.25845  24331474.5054   24331478.0244
      1495.0344       1164.9704
  22655744.4164    6539737.72448   5305895.59246  22655741.4334   22655743.3734
     -3919.1854      -3053.9074
  21169216.4544   -7897905.58249  -5770028.87147  21169216.5694   21169221.6714
     -2269.9004      -1768.7534
  21732920.7674  -11300451.73248  -8641679.04547  21732920.9384   21732926.0394
      -280.8374       -218.8354
 02  8  5  1 40  0.0020000  0  7G 3G31G 2G27G22G 1G13
  21180880.8484   -8688195.04848  -6611243.14347  21180881.2424   21180884.1084
     -1402.5024      -1092.8564
  21699083.3644  -11107069.71148  -8639269.66847  21699083.0124   21699085.4694
      1483.7164       1156.1404
  22450036.0614    4072245.47949   3338720.40447  22450036.5544   22450042.0844
     -2612.1244      -2035.4214
  24322933.6754   -4043680.27147  -3051213.28345  24322934.1104   24322937.7374
      1496.6914       1166.2514
  22678114.4314    6657352.55348   5397543.45946  22678113.5024   22678123.9064
     -3921.6584      -3055.8384
  21182230.8864   -7829530.32749  -5716749.46447  21182230.3284   21182233.0054
     -2288.2754      -1783.0714
  21734580.8594  -11291747.36849  -8634896.39847  21734580.6194   21734582.0654
      -299.3014       -233.2234
 02  8  5  1 40 30.0020000  0  7G 3G31G 2G27G22G 1G13
  21188956.6744   -8645762.48548  -6578178.89847  21188954.1204   21188958.5124
     -1424.8164      -1110.2464
  21690661.8944  -11151303.01948  -8673737.14746  21690662.5124   21690669.1744
      1466.6614       1142.8544
  22464970.9594    4150717.37249   3399867.29147  22464969.5414   22464974.9114
     -2617.7634      -2039.8164
  24314393.7334   -4088532.20847  -3086162.83145  24314393.9964   24314403.2924
      1494.9734       1164.9154
  22700527.0324    6775107.81148   5489300.83346  22700527.3834   22700532.4784
     -3927.1934      -3060.1514
  21195360.0134   -7760537.22949  -5662988.63047  21195359.3604   21195362.1814
     -2309.7204      -1799.7814
  21736356.5574  -11282419.90949  -8627628.24547  21736355.8094   21736357.1974
      -320.9904       -250.1244
 02  8  5  1 41  0.0020000  0  7G 3G31G 2G27G22G 1G13
  21197146.3494   -8602697.76249  -6544621.92247  21197146.5024   21197153.5834
     -1444.9634      -1125.9494
  21682333.8544  -11195060.84748  -8707834.17846  21682333.1844   21682341.1404
      1451.6874       1131.1864
  22479926.5564    4229321.32149   3461117.18947  22479926.4944   22479932.6974
     -2621.2404      -2042.5264
  24305868.7244   -4133371.32547  -3121102.37846  24305867.3114   24305872.3004
      1495.4674       1165.2964
  22722962.7754    6892991.61548   5581158.24446  22722960.2114   22722964.8904
     -3930.5214      -3062.7414
  21208604.7594   -7690937.48349  -5608755.07847  21208603.1664   21208605.9854
     -2328.9844      -1814.7924
  21738245.4844  -11272478.77348  -8619881.88947  21738244.5254   21738248.6624
      -340.5644       -265.3774
 02  8  5  1 41 30.0020000  0  7G 3G31G 2G27G22G 1G13
  21205445.6654   -8559095.42949  -6510646.02547  21205446.2934   21205450.8664
     -1462.8554      -1139.8884
  21674083.7674  -11238434.80348  -8741632.02846  21674082.2294   21674087.4604
      1438.8994       1121.2214
  22494895.2514    4307962.55049   3522396.02647  22494892.8784   22494897.3974
     -2622.4504      -2043.4674
  24297318.6014   -4178290.73247  -3156104.42745  24297318.2904   24297323.1454
      1498.1484       1167.3864
  22745393.4514    7010908.42448   5673041.49646  22745393.7984   22745403.3164
     -3931.5924      -3063.5804
  21221944.3804   -7620826.12549  -5554122.86647  21221942.5724   21221947.7124
     -2346.0274      -1828.0724
  21740232.1914  -11262016.68148  -8611729.56747  21740231.8764   21740239.7774
      -357.9504       -278.9244
 02  8  5  1 42  0.0020000  0  7G 3G31G 2G27G22G 1G13
  21213852.5294   -8514945.24248  -6476243.33347  21213850.6954   21213852.2224
     -1480.5454      -1153.6714
  21665907.1054  -11281412.14649  -8775120.81047  21665906.8864   21665909.7084
      1426.1864       1111.3124
  22509864.0244    4386650.28549   3583711.20947  22509864.4544   22509871.2984
     -2623.4564      -2044.2524
  24288750.5164   -4223278.87847  -3191160.10045  24288751.1934   24288762.0844
      1500.9894       1169.6044
  22767849.6844    7128867.47648   5764957.61046  22767848.3584   22767850.3614
     -3932.4194      -3064.2194
  21235380.9084   -7550193.70448  -5499084.60047  21235379.8764   21235388.6934
     -2362.8704      -1841.1984
  21742321.7604  -11251022.04248  -8603162.25247  21742323.6474   21742331.6044
      -375.1444       -292.3224
 02  8  5  1 42 30.0020000  0  7G 3G31G 2G27G22G 1G13
  21222357.6604   -8470217.71149  -6441390.69647  21222356.9674   21222363.6954
     -1501.9024      -1170.3174
  21657808.1084  -11323959.96248  -8808274.87147  21657807.9804   21657811.4974
      1409.7064       1098.4704
  22524856.4294    4465414.21248   3645085.64447  22524854.7364   22524859.5264
     -2628.1064      -2047.8714
  24280192.9114   -4268304.72047  -3226245.15845  24280190.8604   24280193.2844
      1500.0234       1168.8494
  22790305.2484    7246897.48648   5856928.99746  22790303.8084   22790310.2104
     -3936.8764      -3067.6984
  21248925.8904   -7479010.81648  -5443617.38347  21248926.1904   21248934.1474
     -2383.3244      -1857.1364
  21744527.8504  -11239463.29148  -8594155.39447  21744527.6864   21744531.4304
      -396.0934       -308.6444
 02  8  5  1 43  0.0020000  0  7G 3G31G 2G27G22G 1G13
  21230993.3984   -8424835.59549  -6406027.93147  21230993.6574   21230999.7454
     -1522.1594      -1186.1014
  21649804.2264  -11365997.96148  -8841031.73346  21649804.2494   21649813.2584
      1394.2014       1086.3904
  22539869.7764    4544331.15049   3706579.42547  22539869.8514   22539877.2454
     -2631.6334      -2050.6254
  24271629.4484   -4313289.04147  -3261297.78146  24271628.6474   24271634.1714
      1500.2134       1168.9984
  22812791.1694    7365074.83748   5949015.27746  22812791.3744   22812799.7884
     -3940.2174      -3070.3014
  21262595.2274   -7407200.69548  -5387661.43947  21262594.7384   21262598.8234
     -2402.6654      -1872.2064
  21746852.6714  -11227261.64349  -8584647.60347  21746852.2134   21746852.7204
      -415.9864       -324.1444
 02  8  5  1 43 30.0020000  0  7G 3G31G 2G27G22G 1G13
  21239751.5754   -8378839.01948  -6370186.43247  21239750.8754   21239752.6064
     -1544.0384      -1203.1434
  21641899.8424  -11407563.56548  -8873420.52447  21641898.2064   21641903.9254
      1377.0214       1073.0024
  22554914.1754    4623360.82349   3768160.94147  22554911.7124   22554915.9474
     -2636.7844      -2054.6354
  24263063.9904   -4358270.81547  -3296348.50245  24263063.4724   24263074.7474
      1498.7004       1167.8194
  22835309.1574    7483358.56148   6041184.36946  22835306.2894   22835307.8774
     -3945.1234      -3074.1204
  21276373.5344   -7334804.06749  -5331248.50047  21276372.8984   21276376.0454
     -2423.5854      -1888.5074
  21749288.2664  -11214455.64048  -8574668.89447  21749287.5574   21749289.7954
      -437.5394       -340.9394
 02  8  5  1 44  0.0020000  0  7G 3G31G 2G27G22G 1G13
  21248616.5214   -8332236.01249  -6333872.45147  21248615.5074   21248620.4414
     -1563.3684      -1218.2094
  21634079.5954  -11448661.89848  -8905445.12947  21634079.0124   21634081.0374
      1362.3134       1061.5404
  22569967.3914    4702494.61949   3829823.70547  22569967.3114   22569974.6254
     -2639.3444      -2056.6364
  24254511.3564   -4403256.52248  -3331402.25046  24254510.3334   24254512.5774
      1499.7384       1168.6254
  22857826.7344    7601739.67348   6133429.36246  22857825.9504   22857834.5264
     -3947.4684      -3075.9484
  21290260.9764   -7261829.54349  -5274385.24747  21290260.2214   21290262.6754
     -2441.9284      -1902.8014
  21751835.6154  -11201051.79448  -8564224.30347  21751833.7044   21751839.8314
      -456.5894       -355.7854
 02  8  5  1 44 30.0020000  0  7G 3G31G 2G27G22G 1G13
  21257595.8294   -8285035.58349  -6297092.82647  21257595.7124   21257602.6464
     -1583.3884      -1233.8114
  21626346.0404  -11489298.68148  -8937110.07447  21626345.9024   21626349.8744
      1346.7774       1049.4354
  22585049.9384    4781723.90748   3891560.78347  22585048.0884   22585051.2174
     -2642.6204      -2059.1814
  24245946.6754   -4448253.20147  -3366464.49646  24245946.6924   24245950.6794
      1499.9784       1168.8084
  22880371.9924    7720208.86648   6225743.07646  22880372.3354   22880379.6304
     -3950.5254      -3078.3314
  21304255.8374   -7188286.26749  -5217078.81947  21304254.4424   21304257.4334
     -2460.9984      -1917.6604
  21754493.2754  -11187057.21148  -8553319.37246  21754495.0184   21754502.7584
      -476.4394       -371.2534
 02  8  5  1 45  0.0020000  0  7G 3G31G 2G27G22G 1G13
  21266691.5454   -8237250.86048  -6259857.93847  21266692.4404   21266695.9704
     -1602.9134      -1249.0234
  21618693.7334  -11529484.18948  -8968423.45546  21618693.3044   21618701.8724
      1331.5974       1037.6104
  22600136.8174    4861034.65649   3953361.42147  22600136.2984   22600143.4434
     -2645.3854      -2061.3434
  24237374.2174   -4493272.51747  -3401544.46445  24237374.4654   24237383.5734
      1500.5794       1169.2844
  22902937.8374    7838751.97748   6318114.27546  22902934.8074   22902936.6954
     -3953.0084      -3080.2644
  21318354.1794   -7114188.22049  -5159340.09347  21318352.2004   21318357.7334
     -2479.5254      -1932.0984
  21757272.4194  -11172483.91948  -8541963.51647  21757272.6624   21757276.4954
      -495.7884       -386.3274
 02  8  5  1 45 30.0020000  0  7G 3G31G 2G27G22G 1G13
  21275907.4624   -8188840.17048  -6222135.39547  21275905.4054   21275908.0054
     -1624.3834      -1265.7524
  21611146.2634  -11569173.45548  -8999350.14947  21611145.1574   21611148.6974
      1314.4054       1024.2094
  22615258.0394    4940468.94348   4015258.27347  22615256.5494   22615259.4644
     -2650.1014      -2065.0134
  24228819.7844   -4538270.89948  -3436608.10446  24228817.6514   24228821.6764
      1499.3154       1168.2934
  22925507.6244    7957410.29848   6410575.30346  22925507.2014   22925517.1554
     -3957.4614      -3083.7364
  21332563.7994   -7039493.79248  -5101136.62147  21332562.8854   21332571.7254
     -2500.0034      -1948.0544
  21760168.1644  -11157288.29349  -8530122.76247  21760168.0304   21760167.7204
      -517.1604       -402.9814
 02  8  5  1 46  0.0020000  0  7G 3G31G 2G27G22G 1G13
  21285228.7504   -8139824.99549  -6183941.72347  21285228.2554   21285235.4404
     -1642.2894      -1279.7084
  21603685.5344  -11608385.02049  -9029904.54247  21603684.7994   21603688.6254
      1300.6894       1013.5224
  22630387.7384    5020005.10749   4077234.53847  22630387.1164   22630394.5834
     -2651.2664      -2065.9254
  24220252.5204   -4583268.02047  -3471670.68045  24220252.0604   24220256.9704
      1501.4664       1169.9674
  22948110.3344    8076161.56948   6503108.77646  22948110.2024   22948114.4384
     -3958.3114      -3084.3944
  21346887.0154   -6964225.03948  -5042485.61547  21346887.1674   21346894.8284
     -2516.9034      -1961.2264
  21763173.9724  -11141489.59749  -8517812.08647  21763173.4674   21763174.5274
      -535.0704       -416.9374
 02  8  5  1 46 30.0020000  0  7G 3G31G 2G27G22G 1G13
  21294662.2304   -8090253.51149  -6145314.53647  21294662.9844   21294668.5404
     -1663.1104      -1295.9314
  21596304.8674  -11647164.00448  -9060121.88047  21596304.7724   21596308.4984
      1283.9234       1000.4584
  22645539.4814    5099595.07348   4139252.70547  22645538.0604   22645540.2824
     -2655.3624      -2069.1104
  24211677.2704   -4628310.17947  -3506768.42945  24211678.1114   24211687.2624
      1500.6084       1169.3044
  22970719.7764    8194957.17448   6595676.70946  22970716.7294   22970721.0314
     -3962.0404      -3087.3044
  21361313.0994   -6888430.51149  -4983424.93247  21361312.9794   21361318.1554
     -2536.6954      -1976.6454
  21766283.7394  -11125134.77948  -8505068.04747  21766282.1664   21766286.5304
      -555.9254       -433.1914
 02  8  5  1 47  0.0020000  0  7G 3G31G 2G27G22G 1G13
  21304216.3104   -8040077.17449  -6106216.12547  21304215.2084   21304216.8644
     -1680.5664      -1309.5294
  21589013.8744  -11685458.67748  -9089961.84046  21589013.0594   21589020.0904
      1270.4404        989.9544
  22660697.8734    5179287.03949   4201350.35547  22660696.9564   22660705.0034
     -2656.0374      -2069.6424
  24203114.9274   -4673347.00747  -3541861.98746  24203112.9694   24203116.4924
      1503.1874       1171.3114
  22993331.6524    8313844.94248   6688316.56046  22993332.6524   22993344.2004
     -3962.4004      -3087.5894
  21375848.7404   -6812062.09449  -4923917.08247  21375848.0634   21375850.4634
     -2553.1124      -1989.4384
  21769505.4614  -11108173.66848  -8491851.54447  21769506.4724   21769513.9964
      -573.4344       -446.8344
 02  8  5  1 47 30.0020000  0  7G 3G31G 2G27G22G 1G13
  21313855.4674   -7989397.23249  -6066725.27047  21313854.4434   21313860.5904
     -1699.5794      -1324.3494
  21581803.7114  -11723367.53848  -9119501.22747  21581802.4154   21581808.3184
      1255.3134        978.1654
  22675868.8114    5258979.89748   4263448.71347  22675868.0594   22675869.8484
     -2658.2604      -2071.3684
  24194522.8874   -4718478.43947  -3577029.23045  24194522.5014   24194528.0564
      1504.0754       1172.0044
  23015964.8074    8432723.03348   6780948.86446  23015963.5464   23015965.8414
     -3964.3064      -3089.0674
  21390471.2944   -6735221.61849  -4864041.41247  21390470.5784   21390473.1494
     -2571.0424      -2003.4094
  21772833.9254  -11090705.94848  -8478240.28647  21772834.2584   21772837.7354
      -592.5704       -461.7434
 02  8  5  1 48  0.0020000  0  7G 3G31G 2G27G22G 1G13
  21323613.7064   -7938111.75449  -6026762.48747  21323613.5664   21323619.7864
     -1718.9264      -1339.4254
  21574684.6834  -11760785.29049  -9148657.84547  21574684.1494   21574686.2944
      1239.7204        966.0124
  22691047.3134    5338775.78549   4325627.31147  22691046.3684   22691054.7484
     -2660.8824      -2073.4174
  24185933.1714   -4763599.96447  -3612188.82245  24185932.8014   24185941.1254
      1504.5074       1172.3424
  23038601.5694    8551693.18848   6873652.78646  23038599.1004   23038606.3054
     -3966.5214      -3090.7954
  21405201.9984   -6657807.41949  -4803718.67147  21405200.7644   21405203.9784
     -2589.3414      -2017.6684
  21776278.4104  -11072627.71749  -8464153.34547  21776278.4194   21776277.9554
      -612.1214       -476.9774
 02  8  5  1 48 30.0020000  0  7G 3G31G 2G27G22G 1G13
  21333490.9264   -7886225.48649  -5986331.60047  21333490.8174   21333493.4504
     -1740.0394      -1355.8744
  21567654.8134  -11797713.77248  -9177433.19247  21567654.8914   21567659.1504
      1222.2904        952.4324
  22706255.6994    5418669.73448   4387882.37647  22706255.5384   22706257.8824
     -2665.2054      -2076.7794
  24177354.3304   -4808714.78948  -3647343.15746  24177353.6104   24177356.0594
      1503.2184       1171.3344
  23061250.7254    8670749.79048   6966424.19246  23061251.1284   23061260.7664
     -3970.4554      -3093.8634
  21420040.0934   -6579824.96849  -4742953.12847  21420038.4774   21420043.5444
     -2609.3364      -2033.2484
  21779834.7164  -11053942.37149  -8449593.34447  21779833.8514   21779833.7654
      -633.4354       -493.5874
 02  8  5  1 49  0.0020000  0  7G 3G31G 2G27G22G 1G13
  21343474.0034   -7833770.30949  -5945457.47847  21343471.7174   21343475.5944
     -1756.4244      -1368.6424
  21560713.3474  -11834181.72748  -9205849.77847  21560712.2954   21560720.5534
      1209.4584        942.4374
  22721467.6884    5498629.87449   4450188.93747  22721465.8084   22721474.1084
     -2664.8684      -2076.5234
  24168763.1214   -4853852.72948  -3682515.45446  24168762.0574   24168767.1954
      1506.5094       1173.8974
  23083928.3784    8789860.70548   7059237.85446  23083925.7494   23083927.1674
     -3969.7114      -3093.2784
  21434977.6034   -6501306.55648  -4681769.93747  21434977.0434   21434985.1864
     -2624.6704      -2045.1964
  21783497.1434  -11034680.28048  -8434583.90147  21783495.6004   21783499.3554
      -650.1124       -506.5814
 02  8  5  1 49 30.0020000  0  7G 3G31G 2G27G22G 1G13
  21353562.0814   -7780728.32849  -5904126.01447  21353561.7774   21353569.1634
     -1778.1334      -1385.5604
  21553868.9734  -11870167.94248  -9233890.99547  21553867.3784   21553870.9784
      1191.2044        928.2084
  22736702.1234    5578674.71248   4512561.58747  22736702.1604   22736706.1154
     -2669.8644      -2080.4124
  24160167.5854   -4898993.75247  -3717690.24545  24160167.9284   24160176.3604
      1504.4704       1172.3164
  23106601.3454    8909043.48248   7152107.50646  23106599.5994   23106606.3984
     -3974.2394      -3096.8104
  21450023.9384   -6422234.53748  -4620155.33947  21450024.3424   21450032.4774
     -2645.2244      -2061.2134
  21787270.6804  -11014821.54748  -8419109.50847  21787270.9304   21787278.6034
      -672.2054       -523.7984
 02  8  5  1 50  0.0020000  0  7G 3G31G 2G27G22G 1G13
  21363768.9494   -7727097.47249  -5862335.67247  21363769.1854   21363774.5504
     -1797.1474      -1400.3764
  21547114.9154  -11905667.52249  -9261552.90047  21547114.2444   21547116.4514
      1175.5064        915.9754
  22751949.2574    5658806.27949   4575001.70547  22751947.1064   22751954.6214
     -2672.1484      -2082.1954
  24151584.8184   -4944133.64848  -3752864.11246  24151583.6884   24151587.1464
      1504.9564       1172.6904
  23129291.0774    9028299.87148   7245034.60346  23129291.0114   23129301.6504
     -3976.0984      -3098.2584
  21465180.3674   -6342607.37549  -4558108.19947  21465179.9684   21465184.1754
     -2663.1344      -2075.1694
  21791167.4304  -10994362.29448  -8403167.18247  21791168.3004   21791171.5174
      -691.6434       -538.9454
 02  8  5  1 50 30.0020000  0  7G 3G31G 2G27G22G 1G13
  21374097.0134   -7672855.24448  -5820069.03347  21374095.1654   21374096.2424
     -1818.0814      -1416.6844
  21540452.7894  -11940654.63548  -9288815.52647  21540453.2574   21540459.1784
      1157.8584        902.2264
  22767218.9624    5739047.06748   4637527.05147  22767218.9924   22767224.1064
     -2676.3244      -2085.4474
  24142996.2664   -4989248.26848  -3788018.24946  24142996.7244   24143001.6694
      1503.5704       1171.6114
  23152014.4144    9147652.09448   7338036.31346  23152011.6244   23152012.3704
     -3979.8264      -3101.1584
  21480443.7874   -6262402.95249  -4495611.25447  21480443.6134   21480446.9414
     -2682.9164      -2090.5824
  21795183.5494  -10973278.61149  -8386738.33247  21795183.6344   21795183.8894
      -713.0524       -555.6244
 02  8  5  1 51  0.0020000  0  7G 3G31G 2G27G22G 1G13
  21384521.5194   -7618036.81249  -5777353.37147  21384520.6924   21384527.6084
     -1835.9504      -1430.6124
  21533885.8464  -11975160.96348  -9315703.56146  21533884.6964   21533891.6254
      1143.1114        890.7344
  22782503.3224    5819362.41449   4700110.38047  22782501.2204   22782507.1704
     -2677.4694      -2086.3404
  24134407.9684   -5034370.02147  -3823178.01745  24134406.7934   24134415.5814
      1505.0854       1172.7964
  23174730.2184    9267064.98248   7431085.26746  23174729.2254   23174736.5674
     -3980.4864      -3101.6764
  21495810.7524   -6181656.71149  -4432692.11047  21495810.1834   21495812.9364
     -2699.6324      -2103.6094
  21799308.1974  -10951603.57349  -8369848.68847  21799307.6404   21799308.2254
      -731.4294       -569.9454
 02  8  5  1 51 30.0020000  0  7G 3G31G 2G27G22G 1G13
  21395052.4274   -7562691.24349  -5734226.86447  21395052.6784   21395059.5844
     -1855.0134      -1445.4674
  21527405.6884  -12009232.72548  -9342252.97547  21527404.2554   21527409.9994
      1127.0584        878.2264
  22797789.6304    5899703.22549   4762713.67347  22797789.7344   22797795.4424
     -2679.8094      -2088.1634
  24125816.5064   -5079546.19448  -3858380.16546  24125815.9024   24125818.2674
      1505.3674       1173.0094
  23197452.4344    9386488.79348   7524142.80046  23197452.6224   23197460.9814
     -3982.3274      -3103.1124
  21511269.6924   -6100418.25749  -4369389.43547  21511268.7624   21511271.8854
     -2717.5134      -2117.5424
  21803533.5994  -10929385.33948  -8352535.76147  21803532.1974   21803536.3654
      -751.0354       -585.2244
 02  8  5  1 52  0.0020000  0  7G 3G31G 2G27G22G 1G13
  21405706.9414   -7506738.45848  -5690627.28146  21405706.3534   21405707.2634
     -1875.6804      -1461.5664
  21521022.0604  -12042787.03549  -9368399.12747  21521021.1884   21521023.4304
      1109.4094        864.4714
  22813101.7164    5980149.78349   4825399.24647  22813099.5044   22813104.4624
     -2683.7184      -2091.2094
  24117222.5794   -5124694.69948  -3893560.68446  24117221.9964   24117226.0414
      1503.9984       1171.9384
  23220205.9224    9506003.33248   7617270.97346  23220203.2424   23220205.2314
     -3985.7014      -3105.7394
  21526835.3674   -6018608.21849  -4305641.35847  21526833.8174   21526839.6274
     -2736.9464      -2132.6864
  21807874.5864  -10906542.32348  -8334735.95447  21807875.7754   21807883.1764
      -772.3204       -601.8104
 02  8  5  1 52 30.0020000  0  7G 3G31G 2G27G22G 1G13
  21416459.8894   -7450213.64348  -5646582.03347  21416457.9354   21416463.5214
     -1892.7974      -1474.9084
  21514724.1444  -12075855.82848  -9394166.93847  21514724.4794   21514730.0124
      1095.0464        853.2814
  22828419.1464    6060667.13049   4888140.09647  22828418.8044   22828426.1284
     -2684.1684      -2091.5604
  24108626.3864   -5169848.42047  -3928745.37246  24108625.1454   24108635.4814
      1506.0774       1173.5674
  23242950.4554    9625573.12548   7710442.16646  23242949.4594   23242957.9924
     -3985.6894      -3105.7314
  21542502.6474   -5936262.22549  -4241475.62647  21542501.9734   21542510.0944
     -2752.8904      -2145.1094
  21812337.7654  -10883107.21348  -8316474.78447  21812338.6524   21812342.7814
      -790.1434       -615.6974
 02  8  5  1 53  0.0020000  0  7G 3G31G 2G27G22G 1G13
  21427323.4474   -7393104.20649  -5602081.09347  21427323.5174   21427331.1014
     -1912.7014      -1490.4194
  21508527.0934  -12108423.00348  -9419544.00547  21508526.0344   21508533.5804
      1077.8234        839.8624
  22843762.5864    6141268.56848   4950946.36847  22843760.7094   22843763.7554
     -2687.4304      -2094.0994
  24100043.1454   -5214992.47948  -3963922.47646  24100042.2494   24100043.4294
      1505.2804       1172.9404
  23265714.1464    9745210.85848   7803666.39146  23265714.2594   23265723.8594
     -3988.3724      -3107.8234
  21558276.1194   -5853367.82648  -4176882.56547  21558275.9624   21558284.1544
     -2771.5944      -2159.6844
  21816917.0484  -10859066.06249  -8297741.40747  21816916.8954   21816917.7744
      -810.7964       -631.7904
 02  8  5  1 53 30.0020000  0  7G 3G31G 2G27G22G 1G13
  21438303.6584   -7335418.49748  -5557131.13046  21438304.7414   21438308.4214
     -1932.3054      -1505.6924
  21502428.9614  -12140494.09348  -9444534.43147  21502427.3834   21502429.4264
      1060.8814        826.6584
  22859108.9114    6221945.73549   5013811.73147  22859108.1744   22859116.0964
     -2690.3494      -2096.3784
  24091448.3204   -5260133.20048  -3999096.93446  24091448.0064   24091454.3984
      1504.7454       1172.5244
  23288503.8304    9864907.97748   7896936.82446  23288500.7064   23288502.5034
     -3990.7384      -3109.6614
  21574154.8044   -5769934.05149  -4111869.21947  21574154.9074   21574160.6064
     -2789.9854      -2174.0134
  21821605.5254  -10834426.24049  -8278541.54447  21821604.9644   21821606.3534
      -831.1864       -647.6774
 02  8  5  1 54  0.0020000  0  7G 3G31G 2G27G22G 1G13
  21449391.9514   -7277176.93348  -5511748.17946  21449388.4784   21449391.4734
     -1950.2934      -1519.7084
  21496416.3884  -12172086.24949  -9469151.59847  21496415.8824   21496418.3144
      1045.4254        814.6144
  22874479.9054    6302678.81548   5076720.60847  22874477.5564   22874479.2084
     -2691.6534      -2097.3914
  24082851.4474   -5305288.40147  -4034282.77945  24082851.4024   24082860.3954
      1505.7674       1173.3224
  23311281.7944    9984643.79848   7990237.38846  23311279.6644   23311286.6214
     -3991.4574      -3110.2274
  21590133.7704   -5685981.54049  -4046451.68747  21590133.4044   21590136.3424
     -2806.7024      -2187.0404
  21826401.2074  -10809205.72448  -8258889.17347  21826400.0934   21826405.6954
      -849.9974       -662.3354
 02  8  5  1 54 30.0020000  0  7G 3G31G 2G27G22G 1G13
  21460571.8264   -7218380.41249  -5465932.65047  21460571.3774   21460579.9604
     -1969.9424      -1535.0244
  21490490.4394  -12203196.91548  -9493393.64747  21490490.1524   21490498.9484
      1028.1734        801.1774
  22889844.7534    6383467.40649   5139672.76047  22889844.1264   22889852.4144
     -2694.6584      -2099.7374
  24074264.8874   -5350456.66848  -4069478.74146  24074263.6104   24074264.5884
      1504.9974       1172.7184
  23334068.8654   10104417.72748   8083567.74946  23334069.1764   23334079.3924
     -3993.9224      -3112.1484
  21606208.3184   -5601511.49849  -3980630.88747  21606207.8724   21606211.0644
     -2825.0854      -2201.3664
  21831306.6614  -10783403.67248  -8238783.63047  21831308.0834   21831315.2584
      -870.5954       -678.3874
 02  8  5  1 55  0.0020000  0  7G 3G31G 2G27G22G 1G13
  21471869.6744   -7159017.93648  -5419676.08447  21471869.9794   21471876.4084
     -1988.6854      -1549.6274
  21484669.3204  -12233812.01848  -9517249.61147  21484667.3064   21484671.3544
      1011.7024        788.3364
  22905238.6624    6464323.02148   5202677.15446  22905237.5464   22905238.8364
     -2696.8194      -2101.4144
  24065665.6174   -5395624.52848  -4104674.36146  24065664.6094   24065670.7984
      1505.0224       1172.7404
  23356881.9564   10224240.60048   8176936.19446  23356879.4214   23356880.5484
     -3995.4694      -3113.3524
  21622383.1574   -5516513.56549  -3914398.73947  21622381.9314   21622385.3104
     -2842.5574      -2214.9804
  21836333.8214  -10757007.77148  -8218215.35547  21836334.4824   21836338.6864
      -890.3064       -693.7464
 02  8  5  1 55 30.0020000  0  7G 3G31G 2G27G22G 1G13
  21483285.1944   -7099068.13748  -5372962.01246  21483283.5264   21483284.5754
     -2008.2344      -1564.8524
  21478943.8764  -12263907.44249  -9540700.49447  21478942.6294   21478946.0784
       994.3964        774.8514
  22920635.3114    6545266.87948   5265750.26747  22920633.5854   22920641.9014
     -2699.6864      -2103.6564
  24057071.8814   -5440768.64247  -4139851.56246  24057071.2794   24057079.9294
      1504.2884       1172.1724
  23379691.1624   10344133.38848   8270359.07346  23379688.9294   23379695.8224
     -3997.6504      -3115.0494
  21638661.1554   -5430967.28749  -3847739.32047  21638659.7354   21638663.7494
     -2860.7854      -2229.1834
  21841478.8964  -10729995.47449  -8197166.80647  21841478.3934   21841478.5614
      -910.7964       -709.7114
 02  8  5  1 56  0.0020000  0  7G 3G31G 2G27G22G 1G13
  21494802.4714   -7038503.83548  -5325769.06247  21494801.3604   21494808.8944
     -2031.5334      -1583.0154
  21473319.2004  -12293452.33048  -9563722.42347  21473318.7754   21473322.7944
       973.1304        758.2814
  22936064.4754    6626327.48748   5328914.42246  22936064.4484   22936067.3934
     -2706.4454      -2108.9174
  24048496.5564   -5485859.04148  -4174986.86846  24048495.9334   24048499.8424
      1499.6014       1168.5174
  23402518.5454   10464123.96248   8363858.23146  23402518.7734   23402527.9704
     -4003.8154      -3119.8574
  21655046.0634   -5344845.28249  -3780631.25847  21655045.0254   21655052.6844
     -2882.7904      -2246.3304
  21846740.9514  -10702337.30049  -8175614.98947  21846740.1434   21846741.8694
      -935.1784       -728.7104
 02  8  5  1 56 30.0020000  0  7G 3G31G 2G27G22G 1G13
  21506439.8734   -6977347.53749  -5278114.71647  21506440.0414   21506447.2064
     -2046.6724      -1594.8094
  21467793.3504  -12322465.75048  -9586330.25046  21467792.8854   21467802.1974
       960.0114        748.0634
  22951505.7294    6707482.91349   5392152.37047  22951503.3094   22951510.9384
     -2704.9914      -2107.7874
  24039920.1894   -5530915.25748  -4210095.49246  24039919.7794   24039925.1584
      1503.0224       1171.1814
  23425376.7544   10584189.92347   8457416.11846  23425375.0974   23425375.7654
     -4001.6464      -3118.1654
  21671538.5294   -5258170.31249  -3713092.28847  21671538.6254   21671546.3934
     -2896.6204      -2257.1074
  21852119.0544  -10674054.32748  -8153576.29347  21852118.1944   21852124.1294
      -951.4224       -741.3694
 02  8  5  1 57  0.0020000  0  7G 3G31G 2G27G22G 1G13
  21518182.4914   -6915678.98148  -5230061.29446  21518181.8014   21518181.9594
     -2067.2314      -1610.8274
  21462366.4674  -12351024.89449  -9608584.16647  21462364.2114   21462367.7284
       941.3704        733.5324
  22966951.4644    6788653.39148   5455402.16547  22966951.7504   22966957.7444
     -2708.9534      -2110.8724
  24031334.4794   -5576015.56848  -4245238.57946  24031334.7274   24031342.2844
      1501.0384       1169.6404
  23448219.4684   10704250.98947   8550970.11946  23448217.3454   23448223.1214
     -4005.0194      -3120.7924
  21688123.9354   -5171023.05549  -3645185.32347  21688123.4814   21688129.6734
     -2915.7914      -2272.0454
  21857601.6514  -10645225.56848  -8131112.28047  21857603.1034   21857610.0054
      -973.1184       -758.2754
 02  8  5  1 57 30.0020000  0  7G 3G31G 2G27G22G 1G13
  21530029.4034   -6853398.87548  -5181531.40347  21530027.4724   21530032.8394
     -2085.7834      -1625.2864
  21457036.7244  -12379026.94949  -9630403.85147  21457036.0004   21457037.5434
       924.4984        720.3854
  22982421.5944    6869939.20348   5518741.69147  22982419.5964   22982425.3534
     -2711.0254      -2112.4874
  24022770.5474   -5621057.49048  -4280336.14346  24022769.1634   24022770.6574
      1500.8104       1169.4564
  23471077.7844   10824406.90348   8644598.13246  23471078.1254   23471088.3584
     -4006.4084      -3121.8784
  21704817.6894   -5083304.56749  -3576833.25247  21704817.7784   21704821.3774
     -2933.0514      -2285.4954
  21863217.2204  -10615748.44649  -8108143.06147  21863217.0684   21863219.5974
      -992.9764       -773.7474
 02  8  5  1 58  0.0020000  0  7G 3G31G 2G27G22G 1G13
  21541982.5084   -6790564.32749  -5132569.32947  21541982.5584   21541990.1304
     -2103.3204      -1638.9534
  21451800.3424  -12406525.64648  -9651831.34247  21451799.9604   21451805.5564
       908.6074        708.0074
  22997897.6654    6951283.84649   5582127.19247  22997897.6424   22997905.0114
     -2712.0214      -2113.2644
  24014194.8534   -5666095.40448  -4315430.48946  24014195.0554   24014201.4974
      1501.5894       1170.0644
  23493958.5824   10944600.94448   8738255.84046  23493957.6184   23493961.5194
     -4006.7184      -3122.1184
  21721611.1754   -4995072.19349  -3508080.75547  21721610.2524   21721612.1944
     -2949.2184      -2298.0914
  21868942.2624  -10585678.68849  -8084712.08647  21868941.6864   21868941.5494
     -1011.8034       -788.4194
 02  8  5  1 58 30.0030000  0  7G 3G31G 2G27G22G 1G13
  21554046.1324   -6727189.40848  -5083186.22546  21554046.9414   21554050.3954
     -2122.1534      -1653.6264
  21446659.7324  -12433534.90948  -9672877.54746  21446658.2284   21446666.1054
       891.2864        694.5094
  23013391.0474    7032674.61648   5645548.51947  23013389.3664   23013393.1134
     -2714.4174      -2115.1274
  24005620.2554   -5711144.84947  -4350533.94946  24005619.3614   24005628.8854
      1501.0014       1169.6124
  23516836.3864   11064820.89748   8831933.64646  23516834.3344   23516837.8754
     -4008.2994      -3123.3504
  21738495.3284   -4906339.66249  -3438938.54547  21738494.4614   21738497.0644
     -2966.6934      -2311.7094
  21874773.1874  -10555030.54449  -8060830.43047  21874772.0774   21874773.5414
     -1031.9624       -804.1264
 02  8  5  1 59  0.0030000  0  7G 3G31G 2G27G22G 1G13
  21566213.7764   -6663275.11448  -5033382.96446  21566210.5294   21566212.8844
     -2139.5864      -1667.2064
  21441620.0324  -12460046.89349  -9693536.18947  21441618.7914   21441620.5794
       875.3064        682.0534
  23028880.9334    7114109.45249   5709004.27447  23028880.7994   23028889.5304
     -2715.3614      -2115.8694
  23997053.4514   -5756197.15548  -4385639.58346  23997052.1574   23997054.7554
      1501.6644       1170.1304
  23539709.3784   11185061.86348   8925627.91046  23539709.0294   23539718.8624
     -4008.5534      -3123.5484
  21755474.0144   -4817110.33949  -3369409.21747  21755472.4374   21755476.2374
     -2982.7204      -2324.1974
  21880711.1824  -10523802.07748  -8036496.53947  21880710.4024   21880716.0944
     -1050.7914       -818.7994
 02  8  5  1 59 30.0030000  0  7G 3G31G 2G27G22G 1G13
  21578471.7854   -6598813.16649  -4983152.83147  21578471.6184   21578479.3774
     -2156.2364      -1680.1884
  21436668.9304  -12486052.72949  -9713800.38147  21436668.7094   21436672.7964
       860.0264        670.1484
  23044396.7044    7195598.56748   5772502.27247  23044394.8174   23044396.2794
     -2715.5574      -2116.0164
  23988479.9374   -5801244.53748  -4420741.31846  23988479.3434   23988482.2554
      1503.0874       1171.2324
  23562599.8374   11305334.69448   9019347.01046  23562600.6744   23562606.8614
     -4008.0144      -3123.1264
  21772548.5464   -4727375.18149  -3299485.72547  21772547.0004   21772553.5534
     -2997.9584      -2336.0714
  21886764.4024  -10491982.99148  -8011702.39747  21886765.2024   21886770.9034
     -1068.8744       -832.8914
 02  8  5  2  0  0.0030000  0  7G 3G31G 2G27G22G 1G13
  21590837.5914   -6533836.53648  -4932521.61147  21590838.2184   21590843.6724
     -2175.3574      -1695.0854
  21431807.1584  -12511582.23048  -9733693.48846  21431806.4474   21431813.4794
       842.1024        656.1834
  23059898.9314    7277109.50149   5836017.27947  23059897.9414   23059907.1604
     -2718.2974      -2118.1564
  23979894.7054   -5846317.20347  -4455862.84546  23979895.1144   23979906.6354
      1501.8804       1170.2984
  23585494.3734   11425606.69748   9113065.39946  23585491.3794   23585492.9864
     -4009.9394      -3124.6264
  21789710.1664   -4637167.80648  -3229194.24847  21789710.0184   21789719.2264
     -3015.6614      -2349.8674
  21892930.4914  -10459605.06749  -7986472.82047  21892930.7454   21892932.6444
     -1089.4674       -848.9354
 02  8  5  2  0 30.0030000  0  7G 3G31G 2G27G22G 1G13
  21603317.2564   -6468297.74848  -4881452.46846  21603316.0464   21603315.7434
     -2193.7884      -1709.4404
  21427053.5084  -12536584.84148  -9753176.02647  21427051.1704   21427056.0554
       824.7984        642.6984
  23075430.5494    7358690.65748   5899587.03446  23075430.2434   23075431.1944
     -2720.3034      -2119.7144
  23971332.2884   -5891365.19448  -4490965.14946  23971330.7424   23971332.3154
      1501.3634       1169.8924
  23608381.2154   11545925.41248   9206820.21746  23608380.3554   23608388.9554
     -4011.2194      -3125.6244
  21806975.4984   -4546441.15348  -3158498.13347  21806975.9534   21806983.6014
     -3032.6554      -2363.1094
  21899209.9284  -10426619.78249  -7960770.00647  21899209.6514   21899209.2114
     -1109.4664       -864.5194
 02  8  5  2  1  0.0030000  0  7G 3G31G 2G27G22G 1G13
  21615888.5384   -6402194.23848  -4829943.26047  21615887.3594   21615894.9334
     -2212.0904      -1723.7094
  21422398.1334  -12561054.51749  -9772243.25247  21422397.2894   21422400.2314
       807.4934        629.2134
  23090963.8584    7440345.49948   5963214.14047  23090961.7364   23090969.8604
     -2722.2724      -2121.2544
  23962764.2934   -5936383.12548  -4526043.96246  23962763.9614   23962767.0344
      1500.8304       1169.4764
  23631285.8794   11666293.99148   9300613.92946  23631286.2874   23631294.3184
     -4012.3684      -3126.5224
  21824342.6464   -4455192.96448  -3087395.65247  21824342.6234   21824347.7074
     -3049.5364      -2376.2604
  21905601.9194  -10393022.17849  -7934590.05747  21905600.5794   21905602.0784
     -1129.3564       -880.0204
 02  8  5  2  1 30.0030000  0  7G 3G31G 2G27G22G 1G13
  21628561.8224   -6335588.02048  -4778042.22147  21628562.2874   21628569.2014
     -2229.1764      -1737.0224
  21417827.8944  -12585049.97748  -9790940.92047  21417827.8634   21417832.6064
       791.3244        616.6154
  23106505.5234    7522012.81548   6026851.07047  23106506.1964   23106510.6544
     -2723.0254      -2121.8374
  23954183.4604   -5981429.77747  -4561145.20546  23954184.1414   23954193.5194
      1501.3614       1169.8914
  23654199.2544   11786651.03948   9394398.61946  23654196.4174   23654197.7394
     -4012.2994      -3126.4664
  21841796.5964   -4363485.47949  -3015935.27347  21841796.0234   21841799.4244
     -3065.1594      -2388.4344
  21912094.5714  -10358872.88248  -7907980.17847  21912093.8854   21912100.4214
     -1148.0984       -894.6244
 02  8  5  2  2  0.0030000  0  7G 3G31G 2G27G22G 1G13
  21641358.4294   -6268372.57648  -4725666.53446  21641358.5924   21641360.2804
     -2250.4944      -1753.6284
  21413372.1804  -12608461.85248  -9809183.98146  21413370.9564   21413379.2104
       770.8024        600.6274
  23122070.4394    7603799.57248   6090580.95147  23122068.5904   23122073.7544
     -2728.0194      -2125.7304
  23945637.1234   -6026396.61548  -4596184.28646  23945634.4434   23945637.3924
      1497.6924       1167.0294
  23677113.3324   11907102.79948   9488257.07646  23677111.9574   23677118.9004
     -4016.4744      -3129.7194
  21859356.8194   -4271213.12549  -2944034.75047  21859356.1534   21859357.9734
     -3084.9734      -2403.8744
  21918717.3464  -10324064.59848  -7880856.78847  21918718.4274   21918724.4734
     -1171.1224       -912.5654
 02  8  5  2  2 30.0030000  0  7G 3G31G 2G27G22G 1G13
  21654254.2814   -6200605.14248  -4672860.82146  21654251.9824   21654255.6334
     -2268.2934      -1767.5004
  21409021.8174  -12631343.99448  -9827014.17747  21409020.5084   21409023.7414
       753.6714        587.2724
  23137642.3354    7685649.59748   6154360.26747  23137642.6874   23137649.7054
     -2729.5974      -2126.9604
  23937083.3134   -6071337.55848  -4631203.08846  23937082.9614   23937085.7834
      1497.3854       1166.7904
  23700036.8474   12027592.85548   9582145.43946  23700037.2534   23700047.6054
     -4017.2104      -3130.2954
  21877011.6144   -4178433.36749  -2871738.86947  21877010.4924   21877012.9504
     -3101.3074      -2416.6024
  21925461.6294  -10288652.16949  -7853262.65947  21925461.6854   21925463.5834
     -1190.6974       -927.8154
                            4  1
original post-header comments being skipped                 COMMENT
 02  8  5  2  3  0.0000000  0  7G 3G31G 2G27G22G 1G13
  20767875.5204   -6132264.46749  -4619608.28447  20767875.5804   20767883.4824
     -2287.6424      -1782.5814
  20505394.6594  -12653671.94849  -9844412.48947  20505394.6974   20505397.9384
       734.9214        572.6644
  22253863.0954    7767585.37648   6218206.27647  22253861.1084   22253864.1754
     -2732.7064      -2129.3784
  23029152.4254   -6116228.58947  -4666183.07646  23029153.8964   23029164.8194
      1495.4154       1165.2594
  22823606.2754   12148142.91448   9676080.53846  22823606.6434   22823609.8364
     -4019.3804      -3131.9874
  20995388.7674   -4085125.32249  -2799031.30947  20995387.1134   20995392.0074
     -3119.1174      -2430.4824
  21032944.5514  -10252613.54849  -7825180.61747  21032943.5204   21032944.0154
     -1211.7904       -944.2534
 02  8  5  2  3 30.0000000  0  7G 3G31G 2G27G22G 1G13
  20780984.3304   -6063388.34648  -4565938.52747  20780985.1394   20780990.5504
     -2304.9374      -1796.0554
  20501239.8594  -12675480.35548  -9861406.03447  20501239.4944   20501247.8584
       718.0824        559.5474
  22269457.1914    7849569.57949   6282090.12047  22269456.9024   22269465.0134
     -2733.7684      -2130.2124
  23020625.4164   -6161104.57948  -4701151.34646  23020623.3734   23020625.6084
      1495.4074       1165.2484
  22846553.1354   12268715.45048   9770033.07946  22846550.4324   22846554.5314
     -4019.6104      -3132.1604
  21013236.0924   -3991327.36248  -2725941.98447  21013234.4734   21013241.6004
     -3134.9254      -2442.7994
  21039912.1044  -10215983.94549  -7796638.06247  21039910.5754   21039914.4424
     -1231.0044       -959.2244
 02  8  5  2  4  0.0000000  0  7G 3G31G 2G27G22G 1G13
  20794203.5894   -5993955.51248  -4511835.07746  20794201.7364   20794202.8154
     -2322.6644      -1809.8664
  20497199.8064  -12696744.73748  -9877975.68847  20497197.4194   20497200.6894
       700.7424        546.0314
  22285079.5744    7931624.80648   6346029.26247  22285078.0894   22285079.7304
     -2735.3204      -2131.4164
  23012092.1334   -6205941.70848  -4736089.23446  23012092.1134   23012094.8144
      1494.9104       1164.8634
  22869496.9644   12389332.30348   9864020.23446  22869496.7214   22869507.1724
     -4020.2814      -3132.6864
  21031179.0854   -3897018.54748  -2652454.58247  21031178.5234   21031187.2544
     -3151.1044      -2455.4074
  21046994.0124  -10178740.86748  -7767617.43847  21046994.4064   21047001.5124
     -1250.6194       -974.5104
 02  8  5  2  4 30.0000000  0  7G 3G31G 2G27G22G 1G13
  20807507.9284   -5924002.79149  -4457326.45947  20807507.0584   20807514.3334
     -2341.4474      -1824.5064
  20493249.0074  -12717498.46949  -9894147.34647  20493248.5964   20493252.5694
       682.2394        531.6134
  22300693.7424    8013715.41349   6409995.95947  22300692.7934   22300701.2054
     -2737.9544      -2133.4754
  23003549.7254   -6250773.12648  -4771022.76746  23003551.3024   23003562.7764
      1493.2324       1163.5584
  22892451.7964   12509957.44548   9958013.87846  22892453.2004   22892461.3154
     -4022.0244      -3134.0464
  21049216.4174   -3802235.95048  -2578597.99547  21049216.6384   21049224.0824
     -3168.3284      -2468.8284
  21054194.3524  -10140920.32449  -7738146.83947  21054194.6884   21054198.6794
     -1271.3894       -990.6934
 02  8  5  2  5  0.0000000  0  7G 3G31G 2G27G22G 1G13
  20820925.8174   -5853488.46249  -4402380.15847  20820926.3314   20820932.3534
     -2360.5684      -1839.4074
  20489403.3544  -12737696.69148  -9909886.16947  20489403.2934   20489407.6654
       663.2554        516.8204
  22316333.5504    8095883.92748   6474023.43247  22316333.8104   22316337.3404
     -2740.9914      -2135.8374
  22995039.4854   -6295554.35848  -4805917.21846  22995037.3324   22995039.9674
      1491.0854       1161.8834
  22915427.0914   12630633.09448  10052046.81846  22915423.9374   22915424.8434
     -4024.1034      -3135.6644
  21067355.6464   -3706938.32149  -2504340.10647  21067354.8104   21067359.3084
     -3185.8994      -2482.5184
  21061514.2244  -10102478.71349  -7708192.32347  21061513.8694   21061513.9894
     -1292.4574      -1007.1094
 02  8  5  2  5 30.0000000  0  7G 3G31G 2G27G22G 1G13
  20834463.0584   -5782380.82748  -4346971.61247  20834462.7934   20834463.5214
     -2379.1524      -1853.8824
  20485671.8274  -12757304.56248  -9925165.04947  20485669.8524   20485677.2994
       644.7324        502.3914
  22331990.0354    8178163.03048   6538136.96447  22331988.2674   22331994.6514
     -2743.4814      -2137.7784
  22986534.9114   -6340251.17448  -4840745.77746  22986534.1634   22986535.1844
      1489.4394       1160.5984
  22938398.2514   12751391.34548  10146144.10446  22938397.7684   22938404.3364
     -4025.6504      -3136.8714
  21085594.2384   -3611094.49049  -2429656.61847  21085593.8684   21085597.3664
     -3202.8984      -2495.7634
  21068954.1014  -10063383.29849  -7677728.37747  21068953.4104   21068953.3054
     -1313.0904      -1023.1864
 02  8  5  2  6  0.0000000  0  7G 3G31G 2G27G22G 1G13
  20848092.3604   -5710744.22949  -4291150.91847  20848090.7704   20848095.5164
     -2396.6034      -1867.4844
  20482045.7534  -12776383.06049  -9940031.36447  20482044.3684   20482046.5204
       627.2124        488.7344
  22347653.1964    8260489.47748   6602287.50747  22347653.5164   22347660.7724
     -2744.8774      -2138.8664
  22978019.8434   -6384924.10048  -4875555.78246  22978022.5204   22978034.7294
      1488.7614       1160.0714
  22961377.8254   12872168.85848  10240256.46946  22961377.8914   22961387.0824
     -4026.1144      -3137.2374
  21103925.8114   -3514768.88049  -2354597.72547  21103924.8624   21103926.7434
     -3218.7454      -2508.1114
  21076502.9904  -10023695.67549  -7646802.94947  21076501.8434   21076505.7054
     -1332.7134      -1038.4794
 02  8  5  2  6 30.0000000  0  7G 3G31G 2G27G22G 1G13
  20861834.6084   -5638505.42949  -4234860.88847  20861835.0164   20861842.4804
     -2417.8494      -1884.0394
  20478526.5684  -12794855.76748  -9954425.58347  20478526.2774   20478531.1344
       605.7674        472.0254
  22363349.2294    8342937.86348   6666532.93046  22363346.4614   22363350.0704
     -2750.1254      -2142.9534
  22969550.4224   -6429497.15048  -4910288.03346  22969547.7054   22969551.7854
      1484.2114       1156.5264
  22984384.7204   12993039.33248  10334441.24546  22984384.8644   22984387.2904
     -4030.4554      -3140.6124
  21122361.0294   -3417888.95149  -2279106.90247  21122359.7114   21122363.1294
     -3238.3964      -2523.4244
  21084176.5894   -9983341.30548  -7615357.94447  21084177.4004   21084185.1304
     -1356.1434      -1056.7364
 02  8  5  2  7  0.0000000  0  7G 3G31G 2G27G22G 1G13
  20875690.2984   -5565714.04149  -4178140.29847  20875690.8094   20875694.3834
     -2434.3614      -1896.9034
  20475116.2804  -12812769.31948  -9968384.21047  20475114.6904   20475122.9544
       588.9584        458.9304
  22379044.2974    8425459.07248   6730835.21047  22379044.2134   22379052.9944
     -2750.7154      -2143.4184
  22961079.7454   -6474017.06948  -4944978.75446  22961079.1714   22961079.2334
      1484.2754       1156.5754
  23007398.3164   13113953.62647  10428660.12246  23007395.1164   23007397.8514
     -4029.9964      -3140.2564
  21140890.5954   -3320505.06748  -2203223.36347  21140889.2594   21140894.3034
     -3253.3134      -2535.0504
  21091976.8014   -9942368.96649  -7583431.41247  21091977.4924   21091981.3914
     -1374.8544      -1071.3164
 02  8  5  2  7 30.0000000  0  7G 3G31G 2G27G22G 1G13
  20889638.3344   -5492427.83949  -4121034.22247  20889636.6794   20889639.9064
     -2450.5804      -1909.5414
  20471808.1524  -12830178.18749  -9981949.54847  20471806.3444   20471809.0784
       572.4044        446.0274
  22394760.1844    8507997.06548   6795150.50646  22394758.4424   22394759.9284
     -2750.9814      -2143.6184
  22952596.7024   -6518538.33648  -4979670.55946  22952597.9884   22952609.4004
      1484.5624       1156.8044
  23030395.7664   13234854.72348  10522868.73546  23030396.0244   23030404.5704
     -4029.2924      -3139.7054
  21159505.2154   -3222675.10648  -2126992.22447  21159504.1044   21159510.4054
     -3267.8804      -2546.3984
  21099884.9394   -9900834.67049  -7551067.02847  21099884.5344   21099885.1144
     -1393.2694      -1085.6654
 02  8  5  2  8  0.0000000  0  7G 3G31G 2G27G22G 1G13
  20903677.9384   -5418621.92549  -4063523.08547  20903677.6094   20903684.9044
     -2469.0114      -1923.9064
  20468595.2404  -12847054.20249  -9995099.57347  20468595.0304   20468597.9284
       553.4714        431.2734
  22410467.2644    8590577.78248   6859499.10147  22410465.7364   22410474.5024
     -2753.5654      -2145.6384
  22944138.9194   -6563032.75248  -5014341.56946  22944136.4944   22944142.1614
      1482.5284       1155.2134
  23053404.7924   13355768.41948  10617087.20246  23053405.2844   23053414.1674
     -4030.8254      -3140.9044
  21178209.0774   -3124374.67848  -2050394.48546  21178208.2774   21178216.2644
     -3284.6524      -2559.4714
  21107899.9654   -9858712.83349  -7518244.82347  21107899.0664   21107900.8634
     -1414.0314      -1101.8424
 02  8  5  2  8 30.0000000  0  7G 3G31G 2G27G22G 1G13
  20917828.7894   -5344265.48649  -4005582.95447  20917829.4634   20917834.1414
     -2487.2124      -1938.0874
  20465486.2744  -12863363.20048 -10007807.86246  20465485.7274   20465494.1354
       534.6744        416.6314
  22426199.9354    8673233.13948   6923905.92047  22426199.7944   22426203.0234
     -2755.9024      -2147.4554
  22935685.1794   -6607466.17848  -5048964.86446  22935684.4514   22935684.9234
      1480.5674       1153.6834
  23076430.5644   13476726.32448  10711340.08946  23076428.5634   23076431.7254
     -4032.2104      -3141.9784
  21197010.2974   -3025573.41648  -1973406.47147  21197010.4094   21197018.1314
     -3301.1784      -2572.3474
  21116030.3204   -9815969.18549  -7484938.06947  21116029.5304   21116034.6474
     -1434.6484      -1117.9104
 02  8  5  2  9  0.0000000  0  7G 3G31G 2G27G22G 1G13
  20932078.2974   -5269411.12349  -3947254.91547  20932076.8614   20932078.8064
     -2503.8834      -1951.0754
  20462486.4494  -12879154.68248 -10020112.93447  20462484.7774   20462488.7064
       517.2944        403.0844
  22441932.5634    8755911.83548   6988330.81847  22441930.4554   22441936.4194
     -2756.7884      -2148.1484
  22927221.5484   -6651888.26948  -5083579.39546  22927222.1404   22927232.3884
      1480.0534       1153.2914
  23099445.8534   13597676.61848  10805586.99146  23099443.5904   23099447.7294
     -4032.0034      -3141.8224
  21215900.7694   -2926324.19948  -1896069.41947  21215900.0294   21215904.5734
     -3316.2194      -2584.0654
  21124269.8834   -9772657.04549  -7451188.31947  21124270.8094   21124276.4644
     -1453.6584      -1132.7234
 02  8  5  2  9 30.0000000  0  7G 3G31G 2G27G22G 1G13
  20946412.6464   -5194053.46649  -3888534.66447  20946412.0144   20946418.5544
     -2520.5774      -1964.0874
  20459582.1874  -12894420.12349 -10032007.99747  20459582.0774   20459584.3314
       499.7364        389.4024
  22457667.9824    8838620.62948   7052779.29647  22457668.3224   22457675.7454
     -2757.7694      -2148.9114
  22918780.3314   -6696290.20948  -5118178.31046  22918778.2124   22918783.9654
      1479.3834       1152.7644
  23122452.8634   13718625.60148  10899832.95646  23122453.3814   23122462.3884
     -4031.8924      -3141.7364
  21234874.0564   -2826621.89748  -1818379.32447  21234873.5604   21234876.7924
     -3331.2434      -2595.7744
  21132625.7834   -9728769.43549  -7416990.16047  21132625.7344   21132628.1114
     -1472.8674      -1147.6884
 02  8  5  2 10  0.0000000  0  7G 3G31G 2G27G22G 1G13
  20960862.0394   -5118119.46449  -3829365.25847  20960862.5444   20960868.7974
     -2540.7694      -1979.8214
  20456788.4504  -12909083.16548 -10043433.66347  20456788.6774   20456793.7624
       478.6414        372.9674
  22473434.3184    8921433.93048   7117309.10247  22473431.9414   22473434.2494
     -2762.1874      -2152.3514
  22910349.9914   -6740595.73248  -5152701.98446  22910349.5384   22910351.8614
      1475.2034       1149.5074
  23145484.9764   13839646.97447  10994135.32446  23145485.1014   23145492.6824
     -4035.2644      -3144.3614
  21253947.2724   -2726394.09549  -1740279.75447  21253946.9794   21253950.2554
     -3349.6904      -2610.1484
  21141103.7414   -9684229.21349  -7382283.49347  21141103.7164   21141103.5914
     -1495.5584      -1165.3714
 02  8  5  2 10 30.0000000  0  7G 3G31G 2G27G22G 1G13
  20975415.0814   -5041673.89549  -3769797.29547  20975414.4244   20975415.9284
     -2554.3664      -1990.4134
  20454102.5124  -12923205.58148 -10054438.20447  20454100.5244   20454106.5974
       464.0794        361.6214
  22489192.6134    9004288.06548   7181870.78847  22489192.1104   22489200.6824
     -2760.1264      -2150.7504
  22901918.2174   -6784866.49648  -5187198.57946  22901918.8424   22901926.3514
      1477.4124       1151.2254
  23168524.3024   13960676.77447  11088444.20945  23168521.9704   23168523.2464
     -4032.1074      -3141.9034
  21273108.6584   -2625706.16849  -1661821.65247  21273107.7394   21273109.9414
     -3361.5554      -2619.3924
  21149689.7284   -9639102.31249  -7347119.67647  21149688.7984   21149691.3354
     -1511.6014      -1177.8724
 02  8  5  2 11  0.0000000  0  7G 3G31G 2G27G22G 1G13
  20990046.4474   -4964765.52649  -3709868.72847  20990045.1384   20990051.0754
     -2572.7634      -2004.7514
  20451511.7284  -12936833.05349 -10065056.95047  20451510.9744   20451513.3444
       444.4914        346.3534
  22504965.3034    9087135.69648   7246427.40147  22504964.2784   22504966.6704
     -2762.9554      -2152.9494
  22893495.9054   -6829147.70548  -5221703.40846  22893494.1544   22893501.3864
      1474.7254       1149.1364
  23191544.2254   14081667.27547  11182722.45445  23191542.5764   23191547.8714
     -4033.7844      -3143.2084
  21292345.8124   -2524607.32949  -1583043.35747  21292344.8284   21292348.3744
     -3378.2884      -2632.4304
  21158375.5114   -9593435.71349  -7311535.28547  21158375.0944   21158381.0274
     -1532.7174      -1194.3264
 02  8  5  2 11 30.0000000  0  7G 3G31G 2G27G22G 1G13
  21004787.9924   -4887280.05349  -3649490.37847  21004788.3874   21004795.8824
     -2592.3914      -2020.0474
  20449032.4544  -12949847.84548 -10075198.26847  20449032.4744   20449036.5004
       423.6974        330.1534
  22520746.9324    9170092.50948   7311069.03547  22520745.2724   22520752.7474
     -2766.9584      -2156.0734
  22885093.3324   -6873321.83848  -5256124.72146  22885092.0324   22885095.3164
      1470.6934       1145.9884
  23214576.8344   14202733.57748  11277059.85246  23214577.5034   23214585.8604
     -4036.7134      -3145.4934
  21311682.2134   -2422983.50948  -1503855.97347  21311680.9114   21311686.9084
     -3396.1264      -2646.3304
  21167189.7044   -9547113.09149  -7275439.68747  21167190.5454   21167195.8924
     -1554.9504      -1211.6514
 02  8  5  2 12  0.0000000  0  7G 3G31G 2G27G22G 1G13
  21019641.6814   -4809251.00149  -3588688.49547  21019641.9604   21019644.4884
     -2608.9274      -2032.9274
  20446665.7494  -12962280.31748 -10084885.95147  20446664.1424   20446670.7194
       405.7814        316.1964
  22536546.5074    9253126.26248   7375770.71647  22536546.8134   22536553.3504
     -2767.9474      -2156.8404
  22876695.8704   -6917418.89848  -5290485.99046  22876696.6864   22876702.1284
      1469.7034       1145.2234
  23237624.8224   14323843.21848  11371430.98646  23237625.3104   23237633.3494
     -4036.6264      -3145.4244
  21331112.6224   -2320868.79648  -1424286.06947  21331111.8444   21331119.1494
     -3410.9144      -2657.8564
  21176128.5554   -9500167.05649  -7238858.34747  21176128.3744   21176129.5264
     -1574.1734      -1226.6284
 02  8  5  2 12 30.0000000  0  7G 3G31G 2G27G22G 1G13
  21034579.6624   -4730754.14849  -3527522.17547  21034578.1064   21034581.6924
     -2626.0894      -2046.3034
  20444400.3644  -12974203.18149 -10094176.45947  20444399.5734   20444401.4674
       387.1824        301.6984
  22552353.4744    9336162.77748   7440474.43147  22552351.3454   22552355.1104
     -2769.6454      -2158.1624
  22868306.7474   -6961511.09748  -5324843.51546  22868305.6094   22868311.7284
      1467.8744       1143.8004
  23260674.1444   14444921.54748  11465777.70146  23260670.8474   23260673.1984
     -4037.1684      -3145.8414
  21350621.4664   -2218339.22648  -1344392.89047  21350621.2744   21350629.7724
     -3426.2734      -2669.8224
  21185168.2874   -9452671.27249  -7201848.65447  21185167.5784   21185167.3944
     -1594.1144      -1242.1664
 02  8  5  2 13  0.0000000  0  7G 3G31G 2G27G22G 1G13
  21049613.0894   -4651721.22249  -3465938.02847  21049613.1744   21049621.3214
     -2642.3304      -2058.9624
  20442239.7454  -12985544.95749 -10103014.11347  20442239.8504   20442243.3944
       369.3384        287.7944
  22568160.1744    9419271.69948   7505234.65647  22568160.4324   22568169.9384
     -2770.4904      -2158.8254
  22859933.4144   -7005527.04348  -5359141.59046  22859932.7054   22859937.3484
      1466.8814       1143.0224
  23283716.6884   14566037.64048  11560153.82346  23283715.6204   23283720.9194
     -4036.8494      -3145.5954
  21370225.5734   -2115326.96348  -1264123.59147  21370225.5164   21370232.4234
     -3440.7754      -2681.1224
  21194321.8264   -9404557.06349  -7164357.06347  21194320.6854   21194323.5614
     -1613.1154      -1256.9724
 02  8  5  2 13 30.0000000  0  7G 3G31G 2G27G22G 1G13
  21064752.4834   -4572173.13049  -3403952.43547  21064753.4284   21064758.3684
     -2660.8074      -2073.3574
  20440186.6034  -12996323.01548 -10111412.63247  20440185.3554   20440192.8644
       349.2314        272.1314
  22583995.5954    9502433.79948   7570036.29247  22583993.7284   22583995.2674
     -2773.5554      -2161.2084
  22851567.8174   -7049483.84348  -5393393.57546  22851567.3214   22851572.8534
      1463.5664       1140.4384
  23306761.4374   14687171.88348  11654544.13646  23306761.2724   23306770.9864
     -4038.7384      -3147.0694
  21389918.3854   -2011853.10548  -1183494.62547  21389918.0504   21389922.6704
     -3457.4324      -2694.1024
  21203586.0734   -9355842.93449  -7126397.96947  21203586.7434   21203593.6354
     -1634.4394      -1273.5904
 02  8  5  2 14  0.0000000  0  7G 3G31G 2G27G22G 1G13
  21079999.7914   -4492093.95248  -3341553.12847  21079997.5164   21079996.9744
     -2678.2064      -2086.9104
  20438251.1864  -13006518.93749 -10119357.48247  20438250.0554   20438252.5774
       330.0974        257.2164
  22599826.4394    9585665.93348   7634892.45247  22599825.0834   22599833.6064
     -2775.6164      -2162.8204
  22843214.5924   -7093362.40248  -5427584.61946  22843213.8654   22843221.0224
      1461.2064       1138.6004
  23329819.9394   14808340.78248  11748961.47646  23329821.9474   23329829.5274
     -4039.6334      -3147.7664
  21409700.8874   -1907902.47349  -1102494.14747  21409700.5034   21409704.0624
     -3473.0124      -2706.2424
  21212974.3624   -9306511.79849  -7087958.08047  21212975.5524   21212981.1414
     -1654.7204      -1289.3934
 02  8  5  2 14 30.0000000  0  7G 3G31G 2G27G22G 1G13
  21095322.7254   -4411525.14949  -3278772.24847  21095321.8654   21095328.6504
     -2694.5914      -2099.6824
  20436411.9834  -13016170.84749 -10126878.35747  20436412.3894   20436415.9824
       311.8804        243.0214
  22615671.4914    9668928.41148   7699772.35647  22615672.2744   22615677.9794
     -2776.6914      -2163.6554
  22834876.6884   -7137200.42648  -5461744.08546  22834875.2834   22834879.4104
      1459.7734       1137.4824
  23352887.2714   14929504.25847  11843374.54645  23352884.4184   23352886.2704
     -4039.4554      -3147.6264
  21429566.1154   -1803517.02449  -1021154.84947  21429565.4734   21429567.6214
     -3487.5134      -2717.5414
  21222476.9834   -9256605.07249  -7049069.70747  21222476.6824   21222477.9964
     -1673.9254      -1304.3564
 02  8  5  2 15  0.0000000  0  7G 3G31G 2G27G22G 1G13
  21110751.8984   -4330438.92549  -3215588.11847  21110752.1874   21110759.1044
     -2712.1894      -2113.3974
  20434681.4604  -13025247.34348 -10133950.97746  20434680.8464   20434688.2894
       292.2464        227.7274
  22631532.3014    9752250.99748   7764698.97647  22631529.5684   22631533.6004
     -2779.0724      -2165.5104
  22826548.8214   -7180966.47948  -5495847.41146  22826548.3344   22826551.7574
      1456.9434       1135.2794
  23375944.7034   15050691.42347  11937806.03645  23375943.1144   23375947.4934
     -4040.6594      -3148.5624
  21449518.3324   -1698668.95949   -939455.08947  21449517.0394   21449519.6044
     -3503.3054      -2729.8474
  21232090.3844   -9206091.95749  -7009708.85147  21232089.6714   21232089.9554
     -1694.5364      -1320.4174
 02  8  5  2 15 30.0000000  0  7G 3G31G 2G27G22G 1G13
  21126279.1984   -4248876.39048  -3152032.91347  21126278.6444   21126279.2764
     -2726.3944      -2124.4614
  20433061.8894  -13033786.94349 -10140605.20747  20433060.6664   20433063.1374
       276.0404        215.0934
  22647384.5204    9835593.64448   7829641.33947  22647384.5794   22647393.2014
     -2778.0824      -2164.7414
  22818221.6074   -7224698.51148  -5529924.25346  22818221.0714   22818229.4654
      1457.4524       1135.6764
  23398995.0664   15171861.91548  12032224.59146  23398994.4024   23399005.7274
     -4038.4064      -3146.8094
  21469549.4694   -1593400.11149   -857427.43847  21469547.7974   21469551.3444
     -3515.6224      -2739.4444
  21241808.0704   -9155013.09449  -6969907.14347  21241806.6604   21241809.9704
     -1711.7304      -1333.8164
 02  8  5  2 16  0.0000000  0  7G 3G31G 2G27G22G 1G13
  21141892.7094   -4166812.98249  -3088087.46147  21141891.2424   21141895.7074
     -2743.3074      -2137.6424
  20431542.4214  -13041761.93349 -10146819.38847  20431542.3624   20431545.9774
       256.8824        200.1644
  22663261.5954    9918982.79048   7894619.89047  22663259.9694   22663261.8314
     -2779.9434      -2166.1874
  22809914.2084   -7268367.99548  -5563952.39446  22809913.1694   22809919.1604
      1455.0744       1133.8214
  23422054.5994   15293041.55548  12126650.29946  23422055.5664   23422065.1594
     -4039.0174      -3147.2844
  21489664.3404   -1487686.39748   -775053.12647  21489663.0214   21489669.0504
     -3530.7294      -2751.2164
  21251634.8254   -9103342.39649  -6929644.22847  21251635.8174   21251642.7474
     -1731.7444      -1349.4134
 02  8  5  2 16 30.0000000  0  7G 3G31G 2G27G22G 1G13
  21157601.1244   -4084242.50649  -3023746.79247  21157601.2964   21157608.1234
     -2761.7544      -2152.0174
  20430130.5654  -13049162.54248 -10152586.10347  20430129.6024   20430137.6754
       236.1234        183.9964
  22679133.7454   10002426.12148   7959640.63147  22679132.6074   22679140.2034
     -2783.3004      -2168.8074
  22801621.5214   -7311965.02648  -5597924.04946  22801620.1854   22801623.3584
      1451.0374       1130.6764
  23445127.0344   15414237.94147  12221088.98946  23445125.1744   23445128.5344
     -4041.0904      -3148.8984
  21509864.9834   -1381521.84648   -692327.50847  21509863.5824   21509871.0584
     -3547.2614      -2764.0994
  21261584.0674   -9051072.30149  -6888914.24847  21261584.9264   21261589.7004
     -1753.2704      -1366.1864
 02  8  5  2 17  0.0000000  0  7G 3G31G 2G27G22G 1G13
  21173410.6684   -4001184.38949  -2959026.15647  21173410.7304   21173414.2444
     -2776.3854      -2163.4164
  20428833.4174  -13056005.47249 -10157918.26447  20428831.9124   20428835.4894
       219.1674        170.7764
  22695019.4274   10085905.78148   8024689.77347  22695020.4044   22695026.1834
     -2782.9094      -2168.5004
  22793330.9814   -7355505.61348  -5631851.70746  22793330.7894   22793337.8944
      1450.7304       1130.4384
  23468188.8064   15535432.64348  12315526.35946  23468186.7754   23468191.0254
     -4039.4304      -3147.6084
  21530146.9934   -1274926.36948   -609266.09247  21530146.7304   21530155.1764
     -3559.9704      -2774.0044
  21271645.9064   -8998220.83349  -6847731.28747  21271645.7004   21271646.9764
     -1771.0474      -1380.0364
 02  8  5  2 17 30.0000000  0  7G 3G31G 2G27G22G 1G13
  21189310.2164   -3917642.51949  -2893928.66847  21189308.5674   21189311.3354
     -2794.3014      -2177.3764
  20427636.5574  -13062291.71849 -10162816.54447  20427636.0464   20427639.2804
       198.6714        154.8054
  22710917.0644   10169419.45148   8089765.31246  22710914.9144   22710918.3784
     -2785.8414      -2170.7834
  22785056.0144   -7398990.09048  -5665735.68946  22785055.0524   22785061.3024
      1446.9254       1127.4744
  23491243.2894   15656622.85148  12409960.27346  23491243.5734   23491252.5994
     -4041.1614      -3148.9614
  21550512.5674   -1167904.43448   -525872.37847  21550513.0134   21550521.4314
     -3576.0184      -2786.5084
  21281814.3334   -8944790.57649  -6806097.33347  21281813.1664   21281814.2014
     -1792.2094      -1396.5274
 02  8  5  2 18  0.0000000  0  7G 3G31G 2G27G22G 1G13
  21205312.0084   -3833519.67349  -2828378.38247  21205311.7774   21205319.1144
     -2811.1294      -2190.4924
  20426561.0414  -13067920.46148 -10167202.57347  20426560.0734   20426568.6104
       179.2634        139.6894
  22726826.3424   10253066.10148   8154944.54747  22726826.3424   22726835.6924
     -2787.8104      -2172.3214
  22776816.1154   -7442317.10048  -5699496.94346  22776814.4744   22776816.9354
      1444.1924       1125.3434
  23514322.4434   15777907.32648  12504467.66246  23514322.8344   23514332.3704
     -4041.7424      -3149.4074
  21570980.9854   -1060359.10148   -442070.82447  21570980.7464   21570986.3504
     -3590.9224      -2798.1224
  21292106.8904   -8890683.27249  -6763935.79947  21292105.7384   21292110.2254
     -1812.2294      -1412.1284
 02  8  5  2 18 30.0000000  0  7G 3G31G 2G27G22G 1G13
  21221397.2354   -3749001.96049  -2762520.38747  21221397.5684   21221402.8824
     -2823.2254      -2199.9164
  20425585.3234  -13073074.90849 -10171219.05347  20425583.5624   20425587.4534
       164.4954        128.1764
  22742742.0984   10336661.56148   8220083.88646  22742741.3074   22742743.6494
     -2785.0414      -2170.1614
  22768562.6834   -7485669.26248  -5733277.76846  22768562.4974   22768569.4794
      1446.0474       1126.7894
  23537390.3914   15899101.06447  12598904.30746  23537390.2934   23537394.2484
     -4037.6924      -3146.2514
  21591512.0494    -952476.74148   -358006.65947  21591511.7974   21591515.8594
     -3601.0804      -2806.0364
  21302492.7144   -8836083.86348  -6721390.78247  21302493.6434   21302499.9184
     -1827.5874      -1424.0964
 02  8  5  2 19  0.0000000  0  7G 3G31G 2G27G22G 1G13
  21237565.3604   -3664073.28248  -2696342.24547  21237562.9074   21237564.0664
     -2839.9524      -2212.9474
  20424696.4444  -13077736.16449 -10174851.09347  20424696.5654   20424700.3384
       144.9104        112.9144
  22758638.6374   10420223.31148   8285196.90846  22758637.2464   22758644.7674
     -2787.0104      -2171.6964
  22760311.0094   -7529026.81048  -5767062.84446  22760310.5594   22760317.0474
      1443.0854       1124.4804
  23560445.9914   16020221.51647  12693283.83545  23560441.0364   23560443.3594
     -4038.2904      -3146.7154
  21612110.2334    -844241.79549   -273667.77247  21612109.4234   21612111.4324
     -3615.8614      -2817.5534
  21312983.1254   -8780975.10449  -6678448.87547  21312983.5864   21312987.2224
     -1847.6234      -1439.7074
 02  8  5  2 19 30.0010000  0  7G 3G31G 2G27G22G 1G13
  21253823.9074   -3578595.69549  -2629736.34747  21253823.2494   21253829.9064
     -2857.7814      -2226.8454
  20423925.6434  -13081765.72948 -10177990.99947  20423925.3354   20423933.7794
       124.2124         96.7914
  22774557.6934   10503891.21448   8350392.73746  22774558.4474   22774565.9424
     -2790.1024      -2174.1064
  22752089.3684   -7572252.10648  -5800744.83946  22752087.8064   22752090.2504
      1439.0194       1121.3114
  23583498.6584   16141409.30347  12787715.85345  23583497.2624   23583503.8054
     -4040.0614      -3148.0954
  21632799.8964    -735515.82749   -188946.26947  21632799.2644   21632801.4624
     -3631.6924      -2829.8894
  21323596.7934   -8725217.89649  -6635001.70547  21323596.5154   21323597.4554
     -1868.7664      -1456.1804
 02  8  5  2 20  0.0010000  0  7G 3G31G 2G27G22G 1G13
  21270183.0804   -3492622.96649  -2562744.54747  21270183.2424   21270189.9384
     -2873.8854      -2239.3934
  20423275.6794  -13085208.59549 -10180673.77947  20423274.1634   20423278.3174
       105.1574         81.9394
  22790499.6824   10587613.47848   8415630.82546  22790495.8544   22790497.8564
     -2791.4914      -2175.1854
  22743879.3514   -7615386.65748  -5834356.09846  22743878.6294   22743884.0254
      1436.4514       1119.3124
  23606556.8254   16262609.46847  12882157.53746  23606557.3244   23606567.8694
     -4040.1444      -3148.1634
  21653572.4224    -626354.78048   -103885.73747  21653571.3944   21653574.6874
     -3645.8354      -2840.9094
  21334320.2674   -8668863.37449  -6591089.11247  21334319.2204   21334321.1144
     -1888.3314      -1471.4274
 02  8  5  2 20 30.0010000  0  7G 3G31G 2G27G22G 1G13
  21286647.4684   -3406139.83248  -2495355.08847  21286646.6404   21286647.5824
     -2890.6974      -2252.4904
  20422733.7944  -13088049.66849 -10182887.50647  20422733.7684   20422737.4014
        85.2494         66.4264
  22806433.8124   10671406.82248   8480924.34047  22806433.6174   22806443.0904
     -2793.6944      -2176.9064
  22735690.0524   -7658415.72548  -5867885.20246  22735689.0264   22735695.8704
      1433.0964       1116.6974
  23629628.7304   16383839.69347  12976622.64246  23629628.8494   23629637.3614
     -4040.9504      -3148.7934
  21674429.9544    -516743.01348    -18473.98547  21674428.5314   21674432.8474
     -3660.6384      -2852.4444
  21345157.4204   -8611896.12949  -6546699.04447  21345156.5624   21345161.5074
     -1908.5704      -1487.1984
 02  8  5  2 21  0.0010000  0  7G 3G31G 2G27G22G 1G13
  21303189.3734   -3319196.67349  -2427607.21547  21303187.4654   21303192.1094
     -2905.3834      -2263.9354
  20422295.6014  -13090336.05148 -10184669.09247  20422294.7424   20422302.6174
        67.3054         52.4484
  22822389.7684   10755222.79348   8546235.51646  22822389.8584   22822393.2974
     -2793.8514      -2177.0244
  22727512.9224   -7701385.89148  -5901368.40646  22727512.2174   22727516.8824
      1431.6574       1115.5764
  23652702.8114   16505050.89247  13071072.90245  23652700.3134   23652703.4454
     -4039.7124      -3147.8234
  21695363.2774    -406731.46848     67249.27447  21695361.3074   21695367.0494
     -3673.3034      -2862.3144
  21356103.4254   -8554365.31248  -6501869.81447  21356103.6874   21356109.2054
     -1926.7224      -1501.3434
 02  8  5  2 21 30.0010000  0  7G 3G31G 2G27G22G 1G13
  21319819.5124   -3231778.57449  -2359489.15447  21319819.2144   21319826.9574
     -2921.5984      -2276.5724
  20421973.9874  -13092049.81949 -10186004.52047  20421972.5594   20421976.0714
        47.8184         37.2594
  22838346.0174   10839078.26648   8611577.38546  22838344.2024   22838350.0644
     -2795.5694      -2178.3654
  22719352.1484   -7744278.27448  -5934790.97446  22719351.3464   22719355.2654
      1428.6694       1113.2474
  23675767.2184   16626259.66247  13165521.24945  23675764.2294   23675769.1174
     -4040.0224      -3148.0694
  21716373.4434    -296305.40948    153295.54346  21716372.5724   21716380.8664
     -3687.4734      -2873.3554
  21367164.2314   -8496254.86149  -6456588.92947  21367164.4794   21367167.3194
     -1946.3864      -1516.6654
 02  8  5  2 22  0.0010000  0  7G 3G31G 2G27G22G 1G13
  21336544.8664   -3143902.63149  -2291014.35847  21336545.1044   21336549.3954
     -2935.9934      -2287.7854
  20421753.0594  -13093205.19649 -10186904.72147  20421753.1104   20421756.2524
        30.0084         23.3804
  22854303.1054   10922957.88148   8676938.18447  22854303.1224   22854312.0114
     -2795.5534      -2178.3554
  22711202.0544   -7787105.95948  -5968163.13246  22711200.7964   22711207.5024
      1427.2974       1112.1794
  23698822.0674   16747450.31247  13259955.46845  23698821.2904   23698829.7984
     -4038.5544      -3146.9244
  21737461.0474    -185482.25948    239651.24646  21737460.8644   21737470.2404
     -3699.8754      -2883.0194
  21378332.3714   -8437580.57949  -6410868.71547  21378331.7014   21378333.0994
     -1964.3784      -1530.6844
 02  8  5  2 22 30.0010000  0  7G 3G31G 2G27G22G 1G13
  21353358.7414   -3055572.02748  -2222185.37147  21353356.2574   21353357.8924
     -2951.2634      -2299.6844
  20421634.5954  -13093802.19048 -10187369.91346  20421634.3954   20421642.3314
        11.2654          8.7824
  22870279.2784   11006860.32448   8742316.69946  22870276.9944   22870278.3104
     -2796.4524      -2179.0514
  22703062.1864   -7829868.34448  -6001484.45146  22703061.7444   22703068.5904
      1424.9354       1110.3374
  23721876.7384   16868620.90247  13354374.09645  23721877.6984   23721888.4394
     -4038.0074      -3146.4954
  21758625.6914     -74265.91948    326313.32846  21758625.9084   21758633.8774
     -3713.0864      -2893.3144
  21389603.3084   -8378344.60149  -6364710.82047  21389602.7014   21389604.9284
     -1983.2204      -1545.3654
 02  8  5  2 23  0.0010000  0  7G 3G31G 2G27G22G 1G13
  21370236.6234   -2966837.33649  -2153041.45747  21370236.2934   21370243.7534
     -2965.4244      -2310.7224
  20421624.2844  -13093888.64449 -10187437.30447  20421622.8744   20421625.5764
        -6.5794         -5.1294
  22886231.1194   11090736.67048   8807674.87447  22886230.4494   22886239.3024
     -2796.3214      -2178.9534
  22694931.4704   -7872612.22848  -6034791.32046  22694930.6424   22694932.9194
      1423.5424       1109.2494
  23744926.3484   16989722.36847  13448738.87645  23744927.0394   23744932.5284
     -4036.4444      -3145.2794
  21779855.8554      37292.68048    413242.08046  21779856.1094   21779861.6884
     -3725.1834      -2902.7394
  21400970.3274   -8318596.31049  -6318153.70647  21400969.6734   21400974.4554
     -2000.9804      -1559.2074
 02  8  5  2 23 30.0010000  0  7G 3G31G 2G27G22G 1G13
  21387206.4774   -2877664.77749  -2083556.30747  21387206.6924   21387212.6174
     -2979.7574      -2321.8894
  20421711.2924  -13093427.51849 -10187077.88647  20421710.8434   20421713.5744
       -24.5604        -19.1414
  22902195.1684   11174622.96848   8873040.87247  22902195.4504   22902201.8394
     -2796.4534      -2179.0554
  22686807.6714   -7915299.54848  -6068054.07146  22686806.6824   22686812.0894
      1421.8684       1107.9474
  23767973.5844   17110790.23647  13543077.40645  23767970.1034   23767972.2994
     -4035.1494      -3144.2654
  21801158.5734     149227.23348    500463.79946  21801158.3694   21801162.7804
     -3737.4364      -2912.2864
  21412442.6534   -8258300.75948  -6271170.13947  21412443.4104   21412448.5514
     -2018.9944      -1573.2424
 02  8  5  2 24  0.0010000  0  7G 3G31G 2G27G22G 1G13
  21404274.0964   -2788009.93548  -2013695.42047  21404272.7614   21404273.4984
     -2996.2004      -2334.7004
  20421909.8264  -13092371.41148 -10186254.97146  20421907.6974   20421914.1594
       -44.8104        -34.9144
  22918175.6734   11258565.46748   8938450.57246  22918172.8704   22918175.5314
     -2798.6744      -2180.7844
  22678699.8304   -7957881.90348  -6101235.10546  22678699.9264   22678708.9464
      1417.9544       1104.8974
  23791012.4234   17231870.36247  13637425.47445  23791009.1934   23791011.6504
     -4035.8254      -3144.8014
  21822540.9104     261581.37648    588012.45247  21822540.8014   21822543.2834
     -3751.7494      -2923.4404
  21424032.6624   -8197412.44249  -6223724.69447  21424032.5954   21424034.8634
     -2039.1554      -1588.9514
 02  8  5  2 24 30.0010000  0  7G 3G31G 2G27G22G 1G13
  21421412.1144   -2697922.29549  -1943497.29947  21421410.9934   21421416.6314
     -3009.4954      -2345.0624
  20422218.9714  -13090767.29649 -10185005.02747  20422217.3614   20422219.1384
       -62.0294        -48.3374
  22934141.6164   11342516.18348   9003866.72647  22934141.5374   22934151.2484
     -2797.8474      -2180.1414
  22670613.9784   -8000405.20548  -6134370.13246  22670612.8234   22670615.9354
      1417.0584       1104.1984
  23814036.4894   17352914.46747  13731745.50545  23814037.9484   23814046.9044
     -4033.5864      -3143.0564
  21843992.0284     374305.18648    675849.16047  21843991.3014   21843993.5794
     -3762.9554      -2932.1704
  21435724.8364   -8135979.54449  -6175854.91147  21435724.3304   21435725.6314
     -2056.1944      -1602.2284
 02  8  5  2 25  0.0010000  0  7G 3G31G 2G27G22G 1G13
  21438632.6354   -2607414.20649  -1872971.48247  21438632.5904   21438639.9394
     -3025.3024      -2357.3794
  20422624.5874  -13088624.28348 -10183335.05247  20422624.5164   20422626.7754
       -81.7934        -63.7364
  22950122.1284   11426464.96848   9069281.40346  22950121.8634   22950125.7604
     -2799.5824      -2181.4894
  22662531.3224   -8042877.38948  -6167465.25346  22662530.9004   22662534.0374
      1413.4984       1101.4274
  23837060.0594   17473911.92247  13826029.22345  23837060.8204   23837071.7704
     -4033.8454      -3143.2514
  21865511.4914     487386.05848    763964.09147  21865510.2174   21865511.7794
     -3776.6544      -2942.8464
  21447515.7794   -8074013.38949  -6127569.60547  21447514.7934   21447517.2014
     -2075.7744      -1617.4854
 02  8  5  2 25 30.0010000  0  7G 3G31G 2G27G22G 1G13
  21455952.9224   -2516421.35048  -1802067.96147  21455952.8024   21455955.1104
     -3040.8094      -2369.4614
  20423146.1714  -13085875.05148 -10181192.83646  20423144.4624   20423150.1914
      -101.4294        -79.0324
  22966110.0584   11510478.33548   9134746.29646  22966107.9024   22966113.4124
     -2801.1644      -2182.7244
  22654467.1614   -8085230.44248  -6200467.60146  22654467.0454   22654475.3124
      1410.0874       1098.7684
  23860091.9634   17594928.71747  13920328.01345  23860093.0184   23860100.0224
     -4033.9014      -3143.2904
  21887110.0424     600887.74048    852406.93447  21887108.7744   21887110.7004
     -3790.0554      -2953.2874
  21459418.8574   -8011448.75149  -6078817.92447  21459418.1124   21459422.9644
     -2095.1454      -1632.5804
 02  8  5  2 26  0.0010000  0  8G 3G31G 8G 2G27G22G 1G13
  21473353.5014   -2424984.23248  -1730818.31347  21473351.6284   21473355.1074
     -3054.1374      -2379.8444
  20423780.7414  -13082557.49749 -10178607.72047  20423779.7484   20423781.1304
      -118.9434        -92.6874
  24780663.8094    -291814.83457   -217181.39645  24780661.7404   24780663.2204
      1993.7174       1553.5394
  22982095.0564   11594517.74748   9200231.58546  22982095.3534   22982105.9264
     -2800.5124      -2182.2214
  22646426.0364   -8127500.48148  -6233405.28346  22646425.1504   22646430.1214
      1408.7634       1097.7364
  23883125.9794   17715925.85747  14014611.41145  23883122.9564   23883126.0424
     -4031.7244      -3141.5954
  21908779.3774     714769.35748    941145.82647  21908778.1354   21908781.8844
     -3801.2324      -2961.9984
  21471430.1844   -7948324.96149  -6029630.54347  21471430.4724   21471434.6244
     -2112.2354      -1645.8984
 02  8  5  2 26 30.0010000  0  8G 3G31G 8G 2G27G22G 1G13
  21490828.9214   -2333115.24849  -1659232.06047  21490828.7734   21490837.2684
     -3070.2384      -2392.3964
  20424516.4844  -13078680.81048 -10175586.84147  20424516.6084   20424519.5394
      -139.3504       -108.5874
  24769268.4314    -351631.07246   -263791.40245  24769270.0864   24769280.4444
      1994.2744       1553.9844
  22998101.7514   11678572.96948   9265729.15746  22998099.7784   22998100.6774
     -2802.8784      -2184.0574
  22638398.9394   -8169695.70848  -6266284.59046  22638398.2954   22638400.6034
      1404.4644       1094.3844
  23906143.8314   17836892.78047  14108871.24845  23906140.3184   23906145.6454
     -4032.4394      -3142.1554
  21930518.8224     829018.31348   1030170.97846  21930516.6834   21930522.8334
     -3815.1634      -2972.8534
  21483548.1294   -7884653.26549  -5980016.23047  21483548.2354   21483551.5534
     -2132.2604      -1661.5034
 02  8  5  2 27  0.0010000  0  8G 3G31G 8G 2G27G22G 1G13
  21508397.7894   -2240800.57249  -1587298.49447  21508398.2544   21508404.2974
     -3083.1674      -2402.4664
  20425363.4364  -13074228.24848 -10172117.38046  20425361.3704   20425366.5634
      -156.6864       -122.0904
  24757880.5764    -411504.89447   -310446.31145  24757879.2504   24757886.9834
      1998.1514       1557.0034
  23014096.0104   11762659.76348   9331251.27346  23014093.8394   23014101.5674
     -2802.0144      -2183.3884
  22630384.4404   -8211798.47548  -6299091.87246  22630383.9734   22630391.1274
      1403.2394       1093.4324
  23929152.0814   17957844.72647  14203119.46445  23929152.0294   23929161.8304
     -4030.1004      -3140.3384
  21952328.8254     943647.88548   1119492.70746  21952327.9164   21952335.7424
     -3825.9134      -2981.2314
  21495774.0654   -7820418.76749  -5929963.38047  21495773.3434   21495774.9174
     -2149.1014      -1674.6254
 02  8  5  2 27 30.0010000  0  8G 3G31G 8G 2G27G22G 1G13
  21526051.6184   -2148072.27248  -1515042.71647  21526048.8584   21526049.5974
     -3099.4994      -2415.1884
  20426316.3904  -13069229.44249 -10168222.15647  20426315.7784   20426317.3884
      -177.4344       -138.2644
  24746473.5544    -471465.08247   -357168.44645  24746473.4094   24746477.2594
      1998.4494       1557.2314
  23030093.2694   11846747.82148   9396774.47046  23030094.1094   23030102.5884
     -2804.6394      -2185.4344
  22622382.9914   -8253836.71048  -6331848.92246  22622382.5184   22622390.7184
      1398.4744       1089.7194
  23952159.3814   18078751.17847  14297332.25845  23952157.9364   23952168.7824
     -4031.1904      -3141.1874
  21974207.7974    1058625.43648   1209085.58746  21974207.4154   21974215.0524
     -3840.0324      -2992.2324
  21508097.6194   -7755652.84549  -5879496.43647  21508096.7774   21508099.3524
     -2169.4224      -1690.4594
 02  8  5  2 28  0.0010000  0  8G 3G31G 8G 2G27G22G 1G13
  21543776.5714   -2054878.03849  -1442423.84947  21543775.8894   21543783.7534
     -3112.9624      -2425.6864
  20427379.0504  -13063628.78148 -10163857.91647  20427379.3554   20427383.2884
      -195.4634       -152.3084
  24735054.7794    -531455.59847   -403914.19545  24735054.3824   24735062.3994
      2001.4194       1559.5424
  23046117.9434   11930892.00548   9462341.32546  23046114.2474   23046115.4584
     -2804.4934      -2185.3164
  22614409.5354   -8295753.76048  -6364511.52546  22614408.6154   22614412.1564
      1396.4264       1088.1224
  23975169.7384   18199666.38447  14391551.85445  23975171.0654   23975179.0094
     -4029.3964      -3139.7864
  21996162.0554    1174003.06948   1298990.23046  21996162.3984   21996171.4654
     -3851.3624      -3001.0634
  21520531.0064   -7690301.72849  -5828573.48247  21520530.3704   21520534.7074
     -2186.8654      -1704.0514
 02  8  5  2 28 30.0010000  0  8G 3G31G 8G 2G27G22G 1G13
  21561591.5414   -1961254.15849  -1369470.10347  21561592.0624   21561599.9164
     -3129.0444      -2438.2184
  20428556.0504  -13057459.58448 -10159050.84647  20428553.9074   20428557.8654
      -216.2304       -168.4914
  24723624.4844    -591509.02847   -450709.03245  24723622.7984   24723633.6194
      2001.7744       1559.8214
  23062123.5904   12015057.78648   9527925.02546  23062122.6154   23062130.9174
     -2806.9894      -2187.2684
  22606451.0184   -8337581.72048  -6397104.64746  22606450.4554   22606453.0304
      1391.6454       1084.3944
  23998182.2514   18320555.73547  14485751.29245  23998179.6434   23998183.4494
     -4030.2934      -3140.4874
  22018189.0954    1289744.03448   1389177.99246  22018188.5814   22018196.1794
     -3865.1614      -3011.8144
  21533069.2164   -7624401.02448  -5777222.27147  21533070.0034   21533074.9434
     -2206.9554      -1719.7054
 02  8  5  2 29  0.0010000  0  8G 3G31G 8G 2G27G22G 1G13
  21579501.0774   -1867178.72048  -1296164.56447  21579500.2534   21579502.0174
     -3142.4364      -2448.6484
  20429842.6064  -13050697.76049 -10153781.80247  20429842.2454   20429844.1774
      -234.3684       -182.6294
  24712193.7564    -651600.45847   -497533.43845  24712192.9574   24712197.8434
      2004.5884       1562.0044
  23078148.9044   12099269.10248   9593544.27246  23078149.7574   23078156.2734
     -2806.8984      -2187.1924
  22598507.8704   -8379294.72448  -6429608.22446  22598508.1394   22598516.6344
      1389.3604       1082.6174
  24021186.9424   18441442.52547  14579948.72445  24021183.5084   24021186.2694
     -4028.6014      -3139.1614
  22040289.8614    1405869.71948   1479665.51846  22040288.9894   22040294.1974
     -3876.3374      -3020.5224
  21545722.0324   -7557927.41949  -5725424.64247  21545722.0894   21545725.0924
     -2224.4294      -1733.3204
 02  8  5  2 29 30.0010000  0  8G 3G31G 8G 2G27G22G 1G13
  21597473.0994   -1772724.48949  -1222563.91747  21597471.1974   21597475.9744
     -3155.3644      -2458.7254
  20431224.2534  -13043412.88548 -10148105.21346  20431224.0684   20431230.7774
      -252.1824       -196.5044
  24700740.1764    -711798.88147   -544441.17045  24700738.6474   24700743.1594
      2007.8324       1564.5354
  23094178.4484   12183455.65048   9659144.11946  23094174.7404   23094176.6384
     -2806.3784      -2186.7874
  22590582.3364   -8420961.31248  -6462075.69246  22590580.6814   22590586.1954
      1387.4484       1081.1244
  24044170.5004   18562256.01947  14674089.04645  24044170.3584   24044176.6804
     -4026.4804      -3137.5114
  22062447.5854    1522306.97348   1570395.80846  22062447.0494   22062451.0454
     -3887.0254      -3028.8534
  21558470.2664   -7490953.03649  -5673236.81247  21558469.5414   21558470.1964
     -2241.3984      -1746.5434
 02  8  5  2 30  0.0010000  0  8G 3G31G 8G 2G27G22G 1G13
  21615523.5564   -1677844.75149  -1148631.61347  21615523.4124   21615531.1634
     -3169.8014      -2469.9764
  20432724.6394  -13035555.09848 -10141982.35547  20432722.5914   20432726.1304
      -271.5824       -211.6254
  24689266.5234    -772054.00347   -591393.12045  24689265.8744   24689276.0284
      2009.4104       1565.7714
  23110192.3704   12267666.31948   9724762.81146  23110191.8834   23110201.1924
     -2807.4924      -2187.6564
  22582674.9114   -8462530.20848  -6494466.93946  22582674.0484   22582675.8254
      1383.9024       1078.3604
  24067148.6384   18683044.60847  14768209.98345  24067149.9884   24067162.6734
     -4025.9484      -3137.1024
  22084673.5664    1639102.23648   1661405.08646  22084673.0464   22084677.0854
     -3899.1884      -3038.3254
  21571318.7304   -7423430.20149  -5620621.62747  21571317.6844   21571319.1584
     -2259.9674      -1761.0144
 02  8  5  2 30 30.0010000  0  8G 3G31G 8G 2G27G22G 1G13
  21633662.8594   -1582544.28449  -1074371.49047  21633662.8714   21633666.2224
     -3184.8804      -2481.7244
  20434327.3414  -13027127.19949 -10135415.03347  20434326.8844   20434329.7394
      -291.6104       -227.2334
  24677792.5434    -832367.34647   -638390.49645  24677790.8914   24677799.2464
      2010.2244       1566.4094
  23126225.0204   12351898.28848   9790398.12946  23126225.4244   23126230.3674
     -2809.2734      -2189.0434
  22574779.7044   -8504002.42948  -6526782.86846  22574779.7004   22574785.5004
      1379.5734       1074.9884
  24090133.7014   18803804.97047  14862308.91545  24090132.8524   24090142.8994
     -4026.0844      -3137.2094
  22106967.7904    1756249.88548   1752688.94647  22106967.1414   22106969.8534
     -3911.9754      -3048.2934
  21584267.7734   -7355362.55149  -5567581.89747  21584267.1334   21584272.2554
     -2279.1714      -1775.9784
 02  8  5  2 31  0.0010000  0  8G 3G31G 8G 2G27G22G 1G13
  21651889.0274   -1486781.14149   -999750.90747  21651887.2314   21651889.0774
     -3198.2734      -2492.1594
  20436044.1744  -13018083.93848 -10128368.30746  20436042.5174   20436050.8904
      -310.1824       -241.6964
  24666318.4804    -892693.29847   -685397.64045  24666315.5724   24666319.4014
      2012.5634       1568.2274
  23142270.4214   12436195.82948   9856084.46546  23142268.1854   23142271.5724
     -2809.4894      -2189.2104
  22566912.0054   -8545331.39248  -6558987.23946  22566911.1274   22566919.3244
      1376.6794       1072.7414
  24113120.7434   18924581.19947  14956420.19345  24113120.7854   24113126.2744
     -4024.6274      -3136.0724
  22129336.1484    1873791.81248   1844280.01747  22129334.8454   22129336.8584
     -3923.0584      -3056.9274
  21597328.8734   -7286707.38749  -5514084.34647  21597330.2444   21597336.5414
     -2296.7714      -1789.6914
 02  8  5  2 31 30.0010000  0  8G 3G31G 8G 2G27G22G 1G13
  21670178.0714   -1390636.15349   -924832.72547  21670177.6934   21670184.4424
     -3212.4994      -2503.2474
  20437872.4154  -13008503.36149 -10120902.97747  20437870.6214   20437874.4104
      -329.6554       -256.8774
  24654817.6614    -953108.70547   -732474.48045  24654817.0194   24654822.5004
      2013.9984       1569.3454
  23158300.5564   12520480.22848   9921760.62446  23158300.4354   23158310.2244
     -2810.5784      -2190.0624
  22559065.0314   -8586593.78848  -6591139.73646  22559063.7184   22559066.4594
      1372.9354       1069.8174
  24136096.9384   19045294.09247  15050482.12545  24136093.3054   24136096.0964
     -4024.0614      -3135.6294
  22151762.1014    1991646.70548   1936114.96846  22151761.1614   22151763.7374
     -3934.9994      -3066.2334
  21610494.9174   -7217544.46649  -5460191.14947  21610494.5844   21610497.8614
     -2315.1804      -1804.0364
 02  8  5  2 32  0.0010000  0  8G 3G31G 8G 2G27G22G 1G13
  21688561.6824   -1294034.50949   -849558.67847  21688562.0654   21688567.3884
     -3226.5094      -2514.1624
  20439810.5574  -12998308.27049 -10112958.62747  20439810.4184   20439814.5624
      -348.9174       -271.8884
  24643311.6934   -1013535.62347   -779560.33445  24643313.3604   24643322.8294
      2015.5064       1570.5274
  23174356.1774   12604828.41648   9987486.51546  23174356.5334   23174360.9884
     -2811.5184      -2190.7914
  22551241.6274   -8627710.54448  -6623178.66447  22551241.4284   22551243.7034
      1369.2074       1066.9104
  24159066.8814   19166020.35647  15144554.48045  24159065.3504   24159069.8174
     -4023.3004      -3135.0414
  22174262.5624    2109888.84248   2028251.66946  22174261.2484   22174264.9674
     -3946.6954      -3075.3454
  21623770.6194   -7147798.38149  -5405843.56947  21623769.9724   21623769.9084
     -2333.4424      -1818.2654
 02  8  5  2 32 30.0010000  0  8G 3G31G 8G 2G27G22G 1G13
  21707028.4804   -1197027.02848   -773968.46747  21707027.0054   21707027.5504
     -3241.5064      -2525.8464
  20441854.4984  -12987546.51648 -10104572.88046  20441853.4864   20441862.1984
      -369.3534       -287.8044
  24631811.0304   -1074021.05947   -826691.80345  24631808.1604   24631811.4434
      2016.0224       1570.9224
  23190414.3414   12689191.73148  10053224.09246  23190411.8294   23190415.0044
     -2813.5034      -2192.3374
  22543431.7274   -8668728.40748  -6655140.58346  22543432.0224   22543438.3874
      1364.4064       1063.1744
  24182028.5884   19286710.70247  15238598.86745  24182027.8964   24182035.7124
     -4023.6044      -3135.2714
  22196827.7874    2228466.96348   2120650.16746  22196826.4334   22196829.5194
     -3959.3494      -3085.2054
  21637143.1454   -7077518.92649  -5351080.37947  21637142.5584   21637143.8444
     -2352.7064      -1833.2774
 02  8  5  2 33  0.0010000  0  8G 3G31G 8G 2G27G22G 1G13
  21725565.4154   -1099582.34348   -698037.58047  21725564.2174   21725570.1404
     -3255.7994      -2536.9874
  20444021.8294  -12976184.29049 -10095719.16447  20444021.0174   20444024.0574
      -389.1434       -303.2344
  24620297.2634   -1134530.03547   -873841.50545  24620296.8764   24620300.4114
      2017.0364       1571.7144
  23206467.6064   12773603.76848  10118999.70546  23206467.9414   23206478.0484
     -2814.8924      -2193.4234
  22535650.8904   -8709611.34248  -6686997.40646  22535650.1104   22535656.8444
      1360.0864       1059.8074
  24204993.4024   19407398.49547  15332641.24245  24204993.2884   24205002.9234
     -4023.2564      -3135.0064
  22219460.9824    2347412.13848   2213334.69746  22219459.2034   22219464.4994
     -3971.2964      -3094.5154
  21650620.8104   -7006673.78249  -5295876.36747  21650620.4664   21650625.2454
     -2371.2834      -1847.7544
 02  8  5  2 33 30.0010000  0  8G 3G31G 8G 2G27G22G 1G13
  21744193.6624   -1001676.82449   -621747.51747  21744193.7124   21744200.9374
     -3270.0134      -2548.0634
  20446300.5434  -12964195.14748 -10086376.86447  20446300.9844   20446305.8014
      -408.9394       -318.6544
  24608777.3274   -1195035.18747   -920988.29345  24608776.1594   24608785.2454
      2017.9764       1572.4424
  23222551.0084   12858090.58848  10184833.59746  23222551.4224   23222555.3964
     -2816.3054      -2194.5214
  22527908.0824   -8750331.37948  -6718727.24947  22527906.9574   22527908.6224
      1355.7644       1056.4374
  24227963.4204   19528109.28347  15426701.55546  24227964.5284   24227973.1114
     -4022.9194      -3134.7364
  22242167.8754    2466747.52748   2306323.29346  22242165.8594   22242172.1264
     -3983.1494      -3103.7494
  21664211.8734   -6935238.61249  -5240212.57947  21664212.9534   21664218.8474
     -2389.8244      -1862.2024
 02  8  5  2 34  0.0010000  0  8G 3G31G 8G 2G27G22G 1G13
  21762904.6274    -903377.35748   -545150.52447  21762904.6954   21762906.9764
     -3283.5874      -2558.6404
  20448690.5424  -12951642.94048 -10076596.01547  20448687.7644   20448694.5134
      -428.1944       -333.6564
  24597253.6704   -1255599.49247   -968181.26345  24597252.9484   24597260.9284
      2019.3694       1573.5274
  23238634.0624   12942587.59548  10250675.35546  23238630.8814   23238634.1744
     -2817.1364      -2195.1674
  22520176.5524   -8790951.16248  -6750378.94147  22520176.6514   22520180.5714
      1351.8624       1053.3984
  24250929.4204   19648778.10047  15520729.16446  24250929.6804   24250935.9364
     -4022.0004      -3134.0244
  22264936.5204    2586405.82348   2399563.51246  22264935.9014   22264942.8944
     -3994.3634      -3112.4904
  21677908.1324   -6863279.45049  -5184140.49147  21677908.6094   21677912.1584
     -2407.7944      -1876.2034
 02  8  5  2 34 30.0010000  0  9G 3G31G11G 8G 2G27G22G 1G13
  21781688.1594    -804674.49748   -468239.26647  21781686.1924   21781689.5824
     -3297.2394      -2569.2764
  20451190.0644  -12938516.01349 -10066367.14247  20451189.1784   20451192.4334
      -447.6304       -348.8084
  25194138.4894     -13747.66354     -2949.11743
      1700.6754       1325.1514
  24585724.8174   -1316209.95047  -1015410.10245  24585722.9884   24585725.9434
      2020.6964       1574.5594
  23254707.2234   13027106.41648  10316534.19346  23254707.5684   23254718.0524
     -2818.1004      -2195.9234
  22512464.5564   -8831456.52348  -6781941.52646  22512463.9484   22512471.4534
      1347.7744       1050.2154
  24273891.5314   19769416.50847  15614733.07045  24273888.7764   24273892.5954
     -4021.2564      -3133.4464
  22287769.5434    2706396.01848   2493062.33346  22287768.3444   22287775.6144
     -4005.6144      -3121.2564
  21691706.5594   -6790785.49349  -5127651.70447  21691705.9544   21691707.2304
     -2425.8014      -1890.2354
 02  8  5  2 35  0.0010000  0  9G 3G31G11G 8G 2G27G22G 1G13
  21800543.7854    -705549.90449   -390999.29247  21800544.2434   21800552.5624
     -3310.1014      -2579.3014
  20453796.8434  -12924793.07748 -10055673.87446  20453797.2274   20453803.3534
      -466.2644       -363.3204
  25184430.0334     -64833.11844    -42746.90943
      1705.8654       1327.9724
  24574183.3784   -1376844.22447  -1062657.48445  24574182.0224   24574187.2054
      2022.6394       1576.0774
  23270805.5344   13111667.91548  10382426.27146  23270806.1304   23270808.8054
     -2818.3264      -2196.0984
  22504784.4754   -8871824.87248  -6813397.39246  22504783.4304   22504789.3814
      1344.3414       1047.5384
  24296846.8964   19890044.49547  15708728.84645  24296843.7294   24296847.3594
     -4019.6904      -3132.2284
  22310666.6314    2826736.13148   2586833.83146  22310666.9414   22310676.8604
     -4016.0844      -3129.4144
  21705607.4204   -6717737.63449  -5070731.30947  21705606.8414   21705607.9584
     -2443.0834      -1903.7004
 02  8  5  2 35 30.0010000  0  9G 3G31G11G 8G 2G27G22G 1G13
  21819490.9564    -605998.28749   -313426.57247  21819491.4094   21819496.6874
     -3325.1704      -2591.0414
  20456526.8724  -12910466.40248 -10044510.31047  20456525.1234   20456529.6834
      -487.3484       -379.7564
  25174680.0444    -116027.41844    -82600.07143
      1708.5434       1330.0714
  24562635.9274   -1437493.58347  -1109916.63645  24562636.1374   24562646.3324
      2022.2484       1575.7754
  23286909.1434   13196279.41648  10448357.23846  23286906.8904   23286910.5544
     -2820.8954      -2198.1004
  22497134.8314   -8912046.70848  -6844739.03047  22497133.8474   22497135.7694
      1338.5444       1043.0184
  24319795.9294   20010669.14047  15802722.01846  24319795.6134   24319801.7494
     -4020.4454      -3132.8134
  22333634.4484    2947430.86048   2680881.65746  22333635.1524   22333643.6894
     -4028.7344      -3139.2724
  21719613.6544   -6644130.06049  -5013374.76547  21719612.6494   21719614.6764
     -2462.5594      -1918.8774
 02  8  5  2 36  0.0010000  0  9G 3G31G11G 8G 2G27G22G 1G13
  21838523.5274    -506016.37449   -235518.63747  21838521.7324   21838522.7054
     -3338.8734      -2601.7184
  20459368.7904  -12895530.49449 -10032871.81347  20459368.4944   20459372.3654
      -507.0254       -395.0894
  25164925.3324    -167322.94144      -280.67943
      1713.2794       1335.0194
  24551099.1274   -1498151.16847  -1157182.22045  24551096.5204   24551104.4524
      2023.1114       1576.4484
  23303012.0124   13280946.46248  10514331.56346  23303012.1634   23303022.7094
     -2822.1544      -2199.0844
  22489508.5784   -8952114.49048  -6875960.59547  22489508.3894   22489510.9714
      1334.0044       1039.4814
  24342747.5384   20131295.64647  15896716.64645  24342746.0954   24342755.3664
     -4019.9194      -3132.4044
  22356672.2894    3068483.07848   2775208.04546  22356671.8984   22356678.6694
     -4039.9834      -3148.0394
  21733724.4304   -6569959.30549  -4955579.37447  21733724.4224   21733728.9694
     -2480.7204      -1933.0294
 02  8  5  2 36 30.0010000  0  9G 3G31G11G 8G 2G27G22G 1G13
  21857617.1174    -405641.04249   -157304.11047  21857616.3604   21857623.8784
     -3352.1654      -2612.0774
  20462317.0614  -12880018.89748 -10020784.86646  20462315.8704   20462324.2344
      -526.4534       -410.2164
  25155136.2394    -218751.47944    -40354.86144
      1716.6494       1337.6854
  24539549.6344   -1558849.59547  -1204479.57645  24539549.2954   24539554.4584
      2024.2354       1577.3214
  23319133.6474   13365635.08048  10580322.69946  23319134.1694   23319137.4574
     -2823.1024      -2199.8184
  22481901.3714   -8992060.05148  -6907086.98646  22481901.0984   22481909.1714
      1329.6704       1036.1054
  24365692.6374   20251889.41947  15990685.77045  24365693.2774   24365704.1164
     -4019.0864      -3131.7544
  22379768.8964    3189855.62948   2869784.03846  22379768.5444   22379775.2794
     -4050.8314      -3156.4904
  21747936.0364   -6495261.32649  -4897373.14747  21747937.8204   21747943.3764
     -2498.5134      -1946.8944
 02  8  5  2 37  0.0010000  0  9G 3G31G11G 8G 2G27G22G 1G13
  21876790.9994    -304879.40549    -78788.50947  21876791.3754   21876797.8574
     -3366.3794      -2623.1534
  20465382.1404  -12863936.77749 -10008253.35947  20465380.8574   20465384.2804
      -546.8404       -426.1124
  25145327.0654    -270315.52046    -80534.87644  25145318.0204   25145330.8754
      1719.7574       1340.0654
  24527986.5984   -1619592.47647  -1251811.56945  24527987.0884   24527993.2164
      2024.2614       1577.3454
  23335257.0064   13450340.05948  10646326.52046  23335253.9244   23335257.2294
     -2824.9844      -2201.2864
  22474327.4224   -9031886.55948  -6938120.63846  22474325.7544   22474331.0574
      1324.2814       1031.9064
  24388637.0874   20372445.02747  16084625.12845  24388637.0234   24388645.6354
     -4019.1004      -3131.7634
  22402925.8454    3311540.74448   2964603.58746  22402925.9124   22402931.7664
     -4062.5884      -3165.6524
  21762254.6404   -6420041.61949  -4838760.37847  21762254.6914   21762257.4884
     -2517.2414      -1961.4864
 02  8  5  2 37 30.0010000  0  9G 3G31G11G 8G 2G27G22G 1G13
  21896050.8804    -203701.37749        51.49747  21896050.2184   21896051.3644
     -3380.4384      -2634.1074
  20468554.6674  -12847251.53648  -9995251.75247  20468555.0844   20468559.0154
      -567.1694       -441.9524
  25135498.2704    -321979.99246   -120793.16945  25135495.1994   25135497.5584
      1722.9364       1342.5464
  24516425.0474   -1680346.05447  -1299151.95945  24516423.1524   24516432.6854
      2024.3884       1577.4394
  23351375.4814   13535093.81348  10712368.43046  23351375.4494   23351384.1734
     -2826.8254      -2202.7234
  22466779.6784   -9071559.26148  -6969034.36247  22466779.3054   22466781.3814
      1318.9224       1027.7294
  24411579.4834   20492994.40047  16178559.62745  24411579.4074   24411585.4954
     -4019.1524      -3131.8024
  22426149.1744    3433567.88548   3059689.65646  22426148.7084   22426153.1714
     -4074.1614      -3174.6724
  21776677.3164   -6344270.02449  -4779717.58747  21776676.7664   21776676.2164
     -2535.8064      -1975.9534
 02  8  5  2 38  0.0010000  0  9G 3G31G11G 8G 2G27G22G 1G13
  21915384.7384    -102088.04149     79230.67347  21915383.0054   21915387.4884
     -3394.1214      -2644.7684
  20471849.0394  -12829941.24248  -9981763.29347  20471847.0914   20471853.1814
      -587.1874       -457.5484
  25125648.0984    -373721.26947   -161111.13045  25125649.2834   25125652.4534
      1726.1974       1345.0934
  24504869.6344   -1741087.07847  -1346482.54145  24504867.8104   24504875.5134
      2024.6864       1577.6764
  23367520.9964   13619917.87348  10778465.12246  23367521.8094   23367526.8764
     -2828.4114      -2203.9534
  22459259.2024   -9111054.81848  -6999810.06746  22459259.9994   22459265.3314
      1313.7904       1023.7324
  24434526.8114   20613558.74947  16272505.80945  24434523.4074   24434527.4484
     -4018.8634      -3131.5794
  22449439.3034    3555955.84348   3155056.85546  22449438.9404   22449442.3894
     -4085.3344      -3183.3754
  21791204.4454   -6267926.60349  -4720229.23447  21791203.5444   21791203.7094
     -2554.0814      -1990.1924
 02  8  5  2 38 30.0010000  0  9G 3G31G11G 8G 2G27G22G 1G13
  21934795.8944        -55.28049    158736.75247  21934796.0664   21934803.8184
     -3409.4164      -2656.6894
  20475260.7124  -12812019.55449  -9967798.26147  20475260.3574   20475263.2834
      -608.9554       -474.5154
  25115778.5074    -425550.10746   -201497.41244  25115779.8274   25115792.5464
      1727.8074       1346.3454
  24493312.5844   -1801827.59147  -1393812.71745  24493311.5334   24493314.5934
      2023.3214       1576.6174
  23383679.6604   13704798.97448  10844606.18346  23383676.3544   23383678.0864
     -2831.6564      -2206.4844
  22451774.6534   -9150384.23048  -7030456.34446  22451773.8914   22451781.0854
      1306.8104       1018.2944
  24457468.8604   20734124.25147  16366452.91845  24457466.6524   24457469.8844
     -4020.2514      -3132.6614
  22472795.5504    3678688.48048   3250692.64546  22472794.8674   22472797.6364
     -4098.1654      -3193.3754
  21805833.9824   -6191026.83849  -4660307.34147  21805832.7734   21805837.9794
     -2573.9334      -2005.6624
 02  8  5  2 39  0.0010000  0  9G 3G31G11G 8G 2G27G22G 1G13
  21954295.9544     102394.94848    238568.11747  21954295.8754   21954299.3164
     -3421.3034      -2665.9494
  20478784.0244  -12793485.92148  -9953356.40647  20478784.5304   20478790.7134
      -627.3704       -488.8584
  25105907.6684    -477463.66246   -241949.72945  25105906.4984   25105912.9344
      1732.4594       1349.9814
  24481746.1054   -1862565.83047  -1441141.14345  24481747.3294   24481758.0834
      2025.2214       1578.0944
  23399832.9004   13789737.24448  10910791.85446  23399833.1824   23399841.2144
     -2831.6114      -2206.4514
  22444326.4174   -9189545.16548  -7060971.34946  22444324.6464   22444329.4924
      1303.1334       1015.4264
  24480408.4334   20854690.85047  16460400.87145  24480407.2904   24480413.2344
     -4018.2564      -3131.1084
  22496215.3054    3801763.24248   3346595.02346  22496214.4494   22496217.7694
     -4107.5584      -3200.6924
  21820568.2334   -6113571.99449  -4599952.90347  21820569.8904   21820577.1444
     -2590.4094      -2018.5014
 02  8  5  2 39 30.0010000  0  9G 3G31G11G 8G 2G27G22G 1G13
  21973859.0254     205182.31848    318662.12147  21973857.3494   21973858.5724
     -3431.6474      -2674.0084
  20482416.6324  -12774417.97149  -9938498.35147  20482414.8944   20482418.8564
      -644.3414       -502.0874
  25095999.7774    -529537.63447   -282526.91545  25096000.4024   25096003.6494
      1738.6584       1354.8034
  24470180.2824   -1923378.14547  -1488527.28545  24470177.9364   24470185.3094
      2028.5214       1580.6664
  23415993.8054   13874655.04648  10976961.59746  23415994.9534   23416001.8484
     -2830.0554      -2205.2354
  22436892.5424   -9228613.49048  -7091414.12847  22436892.1644   22436894.6954
      1300.8794       1013.6704
  24503335.0144   20975180.33247  16554288.75945  24503334.5384   24503342.0374
     -4014.8234      -3128.4384
  22519686.8424    3925099.46748   3442701.14246  22519686.0324   22519688.9134
     -4115.3354      -3206.7544
  21835402.7264   -6035640.85949  -4539227.32847  21835403.0624   21835407.1594
     -2605.4474      -2030.2194
 02  8  5  2 40  0.0010000  0  9G 3G31G11G 8G 2G27G22G 1G13
  21993482.1074     308340.69748    399045.27047  21993481.6854   21993488.4934
     -3445.5534      -2684.8494
  20486152.6834  -12754779.87149  -9923195.82547  20486152.6294   20486155.3394
      -664.8944       -518.1044
  25086055.0434    -581733.46246   -323199.07844  25086059.1714   25086067.2364
      1741.3074       1356.8684
  24458605.8354   -1984226.86947  -1535941.77445  24458603.2424   24458606.7884
      2028.1514       1580.3744
  23432164.8964   13959588.54148  11043143.49546  23432162.1294   23432163.7324
     -2832.1034      -2206.8334
  22429480.5084   -9267550.76048  -7121754.79246  22429480.7064   22429484.7884
      1294.9274       1009.0334
  24526254.4284   21095628.37847  16648144.37445  24526253.4384   24526262.8194
     -4014.9984      -3128.5724
  22543214.0554    4048730.27048   3539036.78946  22543212.6324   22543214.7524
     -4126.6704      -3215.5854
  21850334.0844   -5957200.62849  -4478105.08547  21850333.5194   21850333.5404
     -2623.9004      -2044.5964
 02  8  5  2 40 30.0020000  0  8G 3G31G 8G 2G27G22G 1G13
  22013185.9714     411882.71648    479727.40447  22013186.2414   22013192.4894
     -3457.5484      -2694.1924
  20489999.5544  -12734558.95748  -9907439.30646  20489997.3214   20490003.4794
      -683.6524       -532.7104
  24447015.3234   -2045100.98047  -1583376.01745  24447015.9744   24447021.3554
      2029.5254       1581.4394
  23448324.5604   14044552.00848  11109348.77746  23448323.8294   23448331.2144
     -2832.4264      -2207.0864
  22422094.3594   -9306344.46548  -7151983.65846  22422093.6214   22422103.3504
      1290.6734       1005.7224
  24549167.3114   21216050.37247  16741979.68145  24549167.9744   24549178.5144
     -4013.3784      -3127.3054
  22566797.3144    4172668.69348   3635612.15646  22566796.6124   22566798.8614
     -4136.1324      -3222.9594
  21865360.6614   -5878237.36049  -4416575.30047  21865359.6344   21865359.6414
     -2640.6304      -2057.6324
 02  8  5  2 41  0.0020000  0  9G 3G31G11G 8G 2G27G22G 1G13
  22032970.9944     515816.16548    560714.48546  22032970.0064   22032970.5964
     -3472.0944      -2705.5274
  20493963.2484  -12713739.81249  -9891216.57947  20493962.3854   20493964.8874
      -705.0314       -549.3794
  25066140.8974     -52699.07254    -35677.91743
      1746.7444       1361.1614
  24435427.0204   -2105977.82847  -1630812.43445  24435427.0534   24435437.1284
      2028.1984       1580.4174
  23464498.5834   14129557.20348  11175586.60846  23464499.2854   23464508.0634
     -2835.3494      -2209.3644
  22414751.2334   -9344973.07848  -7182083.86947  22414749.5964   22414752.2454
      1283.7454       1000.3204
  24572082.4094   21336454.95247  16835801.40145  24572084.0764   24572091.2194
     -4014.3844      -3128.0944
  22590440.3404    4296920.74348   3732431.91046  22590439.5564   22590442.7074
     -4148.0974      -3232.2804
  21880485.4414   -5798741.10349  -4354630.17847  21880483.6164   21880487.5574
     -2659.8874      -2072.6384
 02  8  5  2 41 30.0020000  0  9G 3G31G11G 8G 2G27G22G 1G13
  22052822.9094     620164.42948    642024.78047  22052822.0594   22052827.3144
     -3484.2884      -2715.0284
  20498040.5684  -12692299.23148  -9874509.53547  20498041.2284   20498045.1304
      -724.1604       -564.2804
  25056154.1994    -105153.53846    -76551.58144  25056154.9534   25056164.5794
      1750.3784       1363.9184
  24423854.3754   -2166835.22047  -1678233.70845  24423851.7384   24423856.8274
      2029.1914       1581.1844
  23480696.5744   14214629.38548  11241876.59446  23480694.6494   23480695.9574
     -2835.9674      -2209.8434
  22407435.8734   -9383412.96348  -7212036.93547  22407435.3944   22407436.8054
      1279.0124        996.6314
  24595001.7604   21456868.31047  16929629.97145  24594999.6634   24595005.1084
     -4013.1294      -3127.1124
  22614149.5854    4421509.97348   3829514.40246  22614148.5814   22614151.8114
     -4157.7054      -3239.7694
  21895713.9694   -5718688.68149  -4292251.65947  21895714.2824   21895721.0154
     -2676.7874      -2085.8094
 02  8  5  2 42  0.0020000  0  8G 3G31G 8G 2G27G22G 1G13
  22072749.3914     724894.48249    723632.64647  22072749.3564   22072756.6514
     -3496.6304      -2724.6484
  20502235.7734  -12670267.47848  -9857342.04047  20502233.4584   20502237.4164
      -743.5064       -579.3554
  24412271.0534   -2227702.12947  -1725662.34445  24412270.4734   24412273.6614
      2029.8094       1581.6664
  23496886.7794   14299738.21948  11308195.10746  23496885.7964   23496891.9444
     -2836.8464      -2210.5314
  22400146.8894   -9421692.36348  -7241864.98347  22400147.1734   22400153.3794
      1273.9924        992.7204
  24617917.3674   21577259.59147  17023441.33245  24617912.2364   24617914.8404
     -4012.0424      -3126.2624
  22637916.3934    4546403.13548   3926833.71546  22637914.8384   22637918.5854
     -4167.4104      -3247.3324
  21911047.2474   -5638113.73949  -4229465.98447  21911048.2474   21911053.9204
     -2693.8124      -2099.0754
 02  8  5  2 42 30.0020000  0  9G 3G31G11G 8G 2G27G22G 1G13
  22092752.4304     829990.48248    805525.64147  22092752.9224   22092756.3044
     -3508.5364      -2733.9234
  20506536.5554  -12647658.86049  -9839724.83547  20506536.7484   20506539.8104
      -762.5114       -594.1694
  25036140.1264     -49072.40454    -27652.96743
      1757.3444       1369.3584
  24400679.5544   -2288590.84447  -1773107.95245  24400678.5334   24400687.7784
      2030.7004       1582.3644
  23513081.7134   14384869.85548  11374531.46446  23513082.4714   23513091.7344
     -2837.3494      -2210.9224
  22392890.0834   -9459823.17148  -7271577.30046  22392889.2924   22392896.3974
      1269.2204        989.0034
  24640817.5564   21697614.76947  17117224.55445  24640813.8244   24640817.7704
     -4010.4664      -3125.0444
  22661736.5754    4671583.52548   4024376.84046  22661734.7284   22661739.9564
     -4176.6974      -3254.5684
  21926481.0624   -5557030.88949  -4166284.54847  21926480.7284   21926483.4044
     -2710.4374      -2112.0284
 02  8  5  2 43  0.0020000  0  9G 3G31G11G 8G 2G27G22G 1G13
  22112821.3654     935433.92848    887689.31247  22112819.4554   22112821.5794
     -3521.2074      -2743.7984
  20510943.0554  -12624489.15848  -9821670.52146  20510942.5054   20510948.8024
      -782.3564       -609.6204
  25026100.6004    -101835.69744    -68767.33044
      1759.9644       1371.3954
  24389084.2884   -2349515.81347  -1820581.89745  24389083.6744   24389093.1434
      2030.7734       1582.4134
  23529290.6074   14470008.45548  11440873.22146  23529290.5064   23529293.2004
     -2838.7234      -2211.9874
  22385664.1624   -9497818.82348  -7301184.27947  22385662.5264   22385666.2364
      1263.5294        984.5664
  24663703.6904   21817917.45547  17210966.86345  24663703.3224   24663710.1764
     -4009.9314      -3124.6244
  22685607.2564    4797032.26548   4122129.07846  22685605.8334   22685611.1204
     -4186.7374      -3262.3924
  21942006.6784   -5475457.80849  -4102721.12847  21942005.8754   21942006.2524
     -2727.9084      -2125.6434
 02  8  5  2 43 30.0020000  0  9G 3G31G11G 8G 2G27G22G 1G13
  22132948.9014    1041242.57849    970137.61547  22132948.8674   22132956.2204
     -3532.7484      -2752.7914
  20515466.6574  -12600738.07749  -9803163.22047  20515465.8234   20515467.7544
      -801.1174       -624.2514
  25016044.7984    -154691.43446   -109953.41644  25016041.7114   25016050.6624
      1763.6684       1374.2734
  24377495.7264   -2410454.66547  -1868066.61045  24377493.8664   24377496.1314
      2031.8434       1583.2454
  23545498.8424   14555174.75348  11507236.50746  23545496.0504   23545499.8234
     -2839.0534      -2212.2464
  22378464.6684   -9535656.86048  -7330668.39847  22378463.9574   22378465.9964
      1258.8774        980.9424
  24686589.2534   21938187.91047  17304684.04645  24686588.2214   24686596.1854
     -4008.2084      -3123.2774
  22709533.9144    4922767.25448   4220104.37046  22709532.0844   22709538.2384
     -4195.6134      -3269.3064
  21957626.1654   -5393375.66949  -4038761.05047  21957625.0374   21957626.0914
     -2744.2284      -2138.3594
